[[{"header":{"parameterUnit":"m.s-1","parameterCategory":1,"la1":30.6,"la2":28.766,"lo1":-90.7593,"lo2":-88.6598,"dy":0.0162,"dx":0.0183,"nx":116,"ny":114,"refTime":"2024-03-27T06:00:00:Z","depth":0,"parameterNumber":2,"parameterNumberName":"U-component_of_WINDS"},"data":[0.0,0.0,0.0,0.0,0.0,0.0,0.0,0.0,0.0,0.0,0.0,0.0,0.0,0.0,0.0,0.0,0.0,0.0,0.0,0.0,0.0,0.0,0.0,0.0,0.0,0.0,0.0,0.0,0.0,0.0,0.0,0.0,0.0,0.0,0.0,0.0,0.0,0.0,0.0,0.0,0.0,0.0,0.0,0.0,0.0,0.0,0.0,0.0,0.0,0.0,0.0,0.0,0.0,0.0,0.0,0.0,0.0,0.0,0.0,0.0,0.0,0.0,0.0,0.0,0.0,0.0,0.0,0.0,0.0,0.0,0.0,0.0,0.0,0.0,0.0,0.0,0.0,0.0,0.0,0.0,0.0,0.0,0.0,0.0,0.0,0.0,0.0,0.0,0.0,0.0,0.0,0.0,0.0,0.0,0.0,0.0,0.0,0.0,0.0,0.0,0.0,0.0,0.0,0.0,0.0,0.0,0.0,0.0,0.0,0.0,0.0,0.0,0.0,0.0,0.0,0.0,0.0,0.0,0.0,0.0,0.0,0.0,0.0,0.0,0.0,0.0,0.0,0.0,0.0,0.0,0.0,0.0,0.0,0.0,0.0,0.0,0.0,0.0,0.0,0.0,0.0,0.0,0.0,0.0,0.0,0.0,0.0,0.0,0.0,0.0,0.0,0.0,0.0,0.0,0.0,0.0,0.0,0.0,0.0,0.0,0.0,0.0,0.0,0.0,0.0,0.0,0.0,0.0,0.0,0.0,0.0,0.0,0.0,0.0,0.0,0.0,0.0,0.0,0.0,0.0,0.0,0.0,0.0,0.0,0.0,0.0,0.0,0.0,0.0,0.0,0.0,0.0,0.0,0.0,0.0,0.0,0.0,0.0,0.0,0.0,0.0,0.0,0.0,0.0,0.0,0.0,0.0,0.0,0.0,0.0,0.0,0.0,0.0,0.0,0.0,0.0,0.0,0.0,0.0,0.0,0.0,0.0,0.0,0.0,0.0,0.0,0.0,0.0,0.0,0.0,0.0,0.0,0.0,0.0,0.0,0.0,0.0,0.0,0.0,0.0,0.0,0.0,0.0,0.0,0.0,0.0,0.0,0.0,0.0,0.0,0.0,0.0,0.0,0.0,0.0,0.0,0.0,0.0,0.0,0.0,0.0,0.0,0.0,0.0,0.0,0.0,0.0,0.0,0.0,0.0,0.0,0.0,0.0,0.0,0.0,0.0,0.0,0.0,0.0,0.0,0.0,0.0,0.0,0.0,0.0,0.0,0.0,0.0,0.0,0.0,0.0,0.0,0.0,0.0,0.0,0.0,0.0,0.0,0.0,0.0,0.0,0.0,0.0,0.0,0.0,0.0,0.0,0.0,0.0,0.0,0.0,0.0,0.0,0.0,0.0,0.0,0.0,0.0,0.0,0.0,0.0,0.0,0.0,0.0,0.0,0.0,0.0,0.0,0.0,0.0,0.0,0.0,0.0,0.0,0.0,0.0,0.0,0.0,0.0,0.0,0.0,0.0,0.0,0.0,0.0,0.0,0.0,0.0,0.0,0.0,0.0,0.0,0.0,0.0,0.0,0.0,0.0,0.0,0.0,0.0,0.0,0.0,0.0,0.0,0.0,0.0,0.0,0.0,0.0,0.0,0.0,0.0,0.0,0.0,0.0,0.0,0.0,0.0,0.0,0.0,0.0,0.0,0.0,0.0,0.0,0.0,0.0,0.0,0.0,0.0,0.0,0.0,0.0,0.0,0.0,0.0,0.0,0.0,0.0,0.0,0.0,0.0,0.0,0.0,0.0,0.0,0.0,0.0,0.0,0.0,0.0,0.0,0.0,0.0,0.0,0.0,0.0,0.0,0.0,0.0,0.0,0.0,0.0,0.0,0.0,0.0,0.0,0.0,0.0,0.0,0.0,0.0,0.0,0.0,0.0,0.0,0.0,0.0,0.0,0.0,0.0,0.0,0.0,0.0,0.0,0.0,0.0,0.0,0.0,0.0,0.0,0.0,0.0,0.0,0.0,0.0,0.0,0.0,0.0,0.0,0.0,0.0,0.0,0.0,0.0,0.0,0.0,0.0,0.0,0.0,0.0,0.0,0.0,0.0,0.0,0.0,0.0,0.0,0.0,0.0,0.0,0.0,0.0,0.0,0.0,0.0,0.0,0.0,0.0,0.0,0.0,0.0,0.0,0.0,0.0,0.0,0.0,0.0,0.0,0.0,0.0,0.0,0.0,0.0,0.0,0.0,0.0,0.0,0.0,0.0,0.0,0.0,0.0,0.0,0.0,0.0,0.0,0.0,0.0,0.0,0.0,0.0,0.0,0.0,0.0,0.0,0.0,0.0,0.0,0.0,0.0,0.0,0.0,0.0,0.0,0.0,0.0,0.0,0.0,0.0,0.0,0.0,0.0,0.0,0.0,0.0,0.0,0.0,0.0,0.0,0.0,0.0,0.0,0.0,0.0,0.0,0.0,0.0,0.0,0.0,0.0,0.0,0.0,0.0,0.0,0.0,0.0,0.0,0.0,0.0,0.0,0.0,0.0,0.0,0.0,0.0,0.0,0.0,0.0,0.0,0.0,0.0,0.0,0.0,0.0,0.0,0.0,0.0,0.0,0.0,0.0,0.0,0.0,0.0,0.0,0.0,0.0,0.0,0.0,0.0,0.0,0.0,0.0,0.0,0.0,0.0,0.0,0.0,0.0,0.0,0.0,0.0,0.0,0.0,0.0,0.0,0.0,0.0,0.0,0.0,0.0,0.0,0.0,0.0,0.0,0.0,0.0,0.0,0.0,0.0,0.0,0.0,0.0,0.0,0.0,0.0,0.0,0.0,0.0,0.0,0.0,0.0,0.0,0.0,0.0,0.0,0.0,0.0,0.0,0.0,0.0,0.0,0.0,0.0,0.0,0.0,0.0,0.0,0.0,0.0,0.0,0.0,0.0,0.0,0.0,0.0,0.0,0.0,0.0,0.0,0.0,0.0,0.0,0.0,0.0,0.0,0.0,0.0,0.0,0.0,0.0,0.0,0.0,0.0,0.0,0.0,0.0,0.0,0.0,0.0,0.0,0.0,0.0,0.0,0.0,0.0,0.0,0.0,0.0,0.0,0.0,0.0,0.0,0.0,0.0,0.0,0.0,0.0,0.0,0.0,0.0,0.0,0.0,0.0,0.0,0.0,0.0,0.0,0.0,0.0,0.0,0.0,0.0,0.0,0.0,0.0,0.0,0.0,0.0,0.0,0.0,0.0,0.0,0.0,0.0,0.0,0.0,0.0,0.0,0.0,0.0,0.0,0.0,0.0,0.0,0.0,0.0,0.0,0.0,0.0,0.0,0.0,0.0,0.0,0.0,0.0,0.0,0.0,0.0,0.0,0.0,0.0,0.0,0.0,0.0,0.0,0.0,0.0,0.0,0.0,0.0,0.0,0.0,0.0,0.0,0.0,0.0,0.0,0.0,0.0,0.0,0.0,0.0,0.0,0.0,0.0,0.0,0.0,0.0,0.0,0.0,0.0,0.0,0.0,0.0,0.0,0.0,0.0,0.0,0.0,0.0,0.0,0.0,0.0,0.0,0.0,0.0,0.0,0.0,0.0,0.0,0.0,0.0,0.0,0.0,0.0,0.0,0.0,0.0,0.0,0.0,0.0,0.0,0.0,0.0,0.0,0.0,0.0,0.0,0.0,0.0,0.0,0.0,0.0,0.0,0.0,0.0,0.0,0.0,0.0,0.0,0.0,0.0,0.0,0.0,0.0,0.0,0.0,0.0,0.0,0.0,0.0,0.0,0.0,0.0,0.0,0.0,0.0,0.0,0.0,0.0,0.0,0.0,0.0,0.0,0.0,0.0,0.0,0.0,0.0,0.0,0.0,0.0,0.0,0.0,0.0,0.0,0.0,0.0,0.0,0.0,0.0,0.0,0.0,0.0,0.0,0.0,0.0,0.0,0.0,0.0,0.0,0.0,0.0,0.0,0.0,0.0,0.0,0.0,0.0,0.0,0.0,0.0,0.0,0.0,0.0,0.0,0.0,0.0,0.0,0.0,0.0,0.0,0.0,0.0,0.0,0.0,0.0,0.0,0.0,0.0,0.0,0.0,0.0,0.0,0.0,0.0,0.0,0.0,0.0,0.0,0.0,0.0,0.0,0.0,0.0,0.0,0.0,0.0,0.0,0.0,0.0,0.0,0.0,0.0,0.0,0.0,0.0,0.0,0.0,0.0,0.0,0.0,0.0,0.0,0.0,0.0,0.0,0.0,0.0,0.0,0.0,0.0,0.0,0.0,0.0,0.0,0.0,0.0,0.0,0.0,0.0,0.0,0.0,0.0,0.0,0.0,0.0,0.0,0.0,0.0,0.0,0.0,0.0,0.0,0.0,0.0,0.0,0.0,0.0,0.0,0.0,0.0,0.0,0.0,0.0,0.0,0.0,0.0,0.0,0.0,0.0,0.0,0.0,0.0,0.0,0.0,0.0,0.0,0.0,0.0,0.0,0.0,0.0,0.0,0.0,0.0,0.0,0.0,0.0,0.0,0.0,0.0,0.0,0.0,0.0,0.0,0.0,0.0,0.0,0.0,0.0,0.0,0.0,0.0,0.0,0.0,0.0,0.0,0.0,0.0,0.0,0.0,0.0,0.0,0.0,0.0,0.0,0.0,0.0,0.0,0.0,0.0,0.0,0.0,0.0,0.0,0.0,0.0,0.0,0.0,0.0,0.0,0.0,0.0,0.0,0.0,0.0,0.0,0.0,0.0,0.0,0.0,0.0,0.0,0.0,0.0,0.0,0.0,0.0,0.0,0.0,0.0,0.0,0.0,0.0,0.0,0.0,0.0,0.0,0.0,0.0,0.0,0.0,0.0,0.0,0.0,0.0,0.0,0.0,0.0,0.0,0.0,0.0,0.0,0.0,0.0,0.0,0.0,0.0,0.0,0.0,0.0,0.0,0.0,0.0,0.0,0.0,0.0,0.0,0.0,0.0,0.0,0.0,0.0,0.0,0.0,0.0,0.0,0.0,0.0,0.0,0.0,0.0,0.0,0.0,0.0,0.0,0.0,0.0,0.0,0.0,0.0,0.0,0.0,0.0,0.0,0.0,0.0,0.0,0.0,0.0,0.0,0.0,0.0,0.0,0.0,0.0,0.0,0.0,0.0,0.0,0.0,0.0,0.0,0.0,0.0,0.0,0.0,0.0,0.0,0.0,0.0,0.0,0.0,0.0,0.0,0.0,0.0,0.0,0.0,0.0,0.0,0.0,0.0,0.0,0.0,0.0,0.0,0.0,0.0,0.0,0.0,0.0,0.0,0.0,0.0,0.0,0.0,0.0,0.0,0.0,0.0,0.0,0.0,0.0,0.0,0.0,0.0,0.0,0.0,0.0,0.0,0.0,0.0,0.0,0.0,0.0,0.0,0.0,0.0,0.0,0.0,0.0,0.0,0.0,0.0,0.0,0.0,0.0,0.0,0.0,0.0,0.0,0.0,0.0,0.0,0.0,0.0,0.0,0.0,0.0,0.0,0.0,0.0,0.0,0.0,0.0,0.0,0.0,0.0,0.0,0.0,0.0,0.0,0.0,0.0,0.0,0.0,0.0,0.0,0.0,0.0,0.0,0.0,0.0,0.0,0.0,0.0,0.0,0.0,0.0,0.0,0.0,0.0,0.0,0.0,0.0,0.0,0.0,0.0,0.0,0.0,0.0,0.0,0.0,0.0,0.0,0.0,0.0,0.0,0.0,0.0,0.0,0.0,0.0,0.0,0.0,0.0,0.0,0.0,0.0,0.0,0.0,0.0,0.0,0.0,0.0,0.0,0.0,0.0,0.0,0.0,0.0,0.0,0.0,0.0,0.0,0.0,0.0,0.0,0.0,0.0,0.0,0.0,0.0,0.0,0.0,0.0,0.0,0.0,0.0,0.0,0.0,0.0,0.0,0.0,0.0,0.0,0.0,0.0,0.0,0.0,0.0,0.0,0.0,0.0,0.0,0.0,0.0,0.0,0.0,0.0,0.0,0.0,0.0,0.0,0.0,0.0,0.0,0.0,0.0,0.0,0.0,0.0,0.0,0.0,0.0,0.0,0.0,0.0,0.0,0.0,0.0,0.0,0.0,0.0,0.0,0.0,0.0,-6.3564,-6.4189,0.0,0.0,0.0,0.0,0.0,0.0,0.0,0.0,0.0,0.0,0.0,0.0,0.0,0.0,0.0,0.0,0.0,0.0,0.0,0.0,0.0,0.0,0.0,-6.6185,-6.6376,-6.6452,-6.661,-6.672,-6.6795,0.0,0.0,0.0,0.0,0.0,-6.6907,-6.691,-6.6911,-6.6911,-6.6911,-6.6911,-6.6911,-6.6909,-6.6863,-6.6811,0.0,0.0,0.0,0.0,0.0,0.0,0.0,0.0,0.0,0.0,0.0,0.0,0.0,0.0,0.0,0.0,0.0,0.0,0.0,0.0,0.0,0.0,0.0,0.0,0.0,0.0,0.0,0.0,0.0,0.0,0.0,0.0,0.0,0.0,0.0,0.0,0.0,0.0,0.0,0.0,0.0,0.0,0.0,0.0,0.0,0.0,0.0,0.0,0.0,0.0,0.0,0.0,0.0,0.0,0.0,0.0,0.0,0.0,0.0,0.0,0.0,0.0,0.0,0.0,0.0,0.0,0.0,0.0,0.0,0.0,-6.2645,-6.3091,0.0,0.0,0.0,0.0,0.0,0.0,0.0,0.0,0.0,0.0,0.0,0.0,0.0,0.0,0.0,0.0,0.0,0.0,0.0,0.0,0.0,-6.6067,-6.6098,-6.6376,-6.6569,-6.659,-6.672,-6.6795,-6.6795,-6.6798,0.0,0.0,0.0,-6.6908,-6.6912,-6.6757,-6.668,-6.668,-6.6523,-6.6445,-6.6445,-6.6444,-6.6439,-6.6387,-6.6698,0.0,0.0,0.0,0.0,0.0,0.0,0.0,0.0,0.0,0.0,0.0,0.0,0.0,0.0,0.0,0.0,0.0,0.0,0.0,0.0,0.0,0.0,0.0,0.0,0.0,0.0,0.0,0.0,0.0,0.0,0.0,0.0,0.0,0.0,0.0,0.0,0.0,0.0,0.0,0.0,0.0,0.0,0.0,0.0,0.0,0.0,0.0,0.0,0.0,0.0,0.0,0.0,0.0,0.0,0.0,0.0,0.0,0.0,0.0,0.0,0.0,0.0,0.0,-6.0987,-6.0987,-6.0997,-6.1,-6.0992,-6.1041,-6.194,-6.1912,-6.1281,-6.134,0.0,0.0,0.0,0.0,0.0,0.0,0.0,0.0,0.0,0.0,0.0,0.0,0.0,0.0,0.0,0.0,0.0,0.0,0.0,-6.5955,-6.6088,-6.6226,-6.6393,-6.6585,-6.672,-6.6795,-6.6795,-6.6805,-6.6815,-6.6862,-6.6908,-6.6912,-6.6914,-6.6172,-6.5781,-6.5781,-6.5,-6.4648,-6.4648,-6.4648,-6.4647,-6.4683,-6.6201,-6.6901,-6.686,0.0,0.0,0.0,0.0,0.0,0.0,0.0,0.0,0.0,0.0,0.0,0.0,0.0,0.0,0.0,0.0,0.0,0.0,0.0,0.0,0.0,0.0,0.0,0.0,0.0,0.0,0.0,0.0,0.0,0.0,0.0,0.0,0.0,0.0,0.0,0.0,0.0,0.0,0.0,0.0,0.0,-6.3808,-6.3692,0.0,0.0,0.0,0.0,0.0,0.0,0.0,0.0,0.0,0.0,0.0,0.0,0.0,-6.1036,-6.1152,-6.1064,-6.0987,-6.0987,-6.0987,-6.0987,-6.0987,-6.0997,-6.1008,-6.1008,-6.1155,0.0,-6.1134,-6.1274,0.0,0.0,0.0,0.0,0.0,0.0,0.0,0.0,0.0,0.0,0.0,0.0,0.0,0.0,0.0,0.0,0.0,0.0,0.0,0.0,0.0,-6.639,-6.6524,-6.6705,-6.6787,-6.6802,-6.6798,-6.6852,-6.686,-6.6902,-6.644,-6.617,-6.6172,-6.5312,-6.4883,-6.4883,-6.4492,-6.4297,-6.4297,-6.4297,-6.4297,-6.4335,-6.5116,-6.5425,-6.5457,-6.5415,0.0,0.0,0.0,0.0,0.0,0.0,0.0,0.0,0.0,0.0,0.0,0.0,0.0,0.0,0.0,0.0,0.0,0.0,0.0,0.0,0.0,0.0,0.0,0.0,0.0,0.0,0.0,0.0,0.0,0.0,0.0,0.0,0.0,0.0,0.0,0.0,0.0,0.0,0.0,-6.378,-6.3323,-6.2821,-6.2783,-6.259,0.0,0.0,0.0,0.0,0.0,0.0,0.0,0.0,0.0,-6.0944,-6.0944,-6.0933,-6.09,-6.09,-6.09,-6.09,-6.09,-6.09,-6.09,-6.0933,-6.0944,-6.0944,-6.0976,-6.1018,-6.1031,-6.1127,-6.1143,-6.1139,0.0,0.0,0.0,0.0,-6.1362,-6.1403,0.0,0.0,0.0,0.0,0.0,0.0,0.0,0.0,0.0,0.0,0.0,0.0,-6.6291,-6.6413,-6.6605,-6.679,-6.6807,-6.6809,-6.68,-6.6664,-6.6555,-6.6555,-6.5739,-6.5273,-6.5273,-6.4414,-6.3867,-6.3633,-6.3633,-6.3633,-6.3633,-6.3633,-6.3633,-6.3633,-6.3633,-6.3866,-6.429,-6.4289,-6.4286,-6.4281,0.0,0.0,0.0,0.0,0.0,0.0,0.0,0.0,0.0,0.0,0.0,0.0,0.0,0.0,0.0,0.0,0.0,0.0,0.0,0.0,0.0,0.0,0.0,0.0,0.0,0.0,0.0,0.0,0.0,0.0,0.0,0.0,0.0,0.0,0.0,0.0,0.0,-6.3004,-6.2563,-6.1801,-6.1713,-6.142,0.0,0.0,0.0,0.0,0.0,0.0,-6.0683,-6.0683,-6.0671,-6.0622,-6.0622,-6.0622,-6.0685,-6.0685,-6.0722,-6.0781,-6.0781,-6.0781,-6.0781,-6.0866,-6.0888,-6.0888,-6.0933,-6.0955,-6.0955,-6.0976,-6.1018,-6.0982,-6.0982,-6.1098,-6.1213,-6.1213,-6.125,-6.1285,0.0,0.0,0.0,0.0,0.0,0.0,0.0,0.0,0.0,0.0,0.0,-6.5997,-6.6275,-6.6322,-6.6438,-6.6787,-6.6807,-6.6811,-6.6811,-6.6085,-6.5661,-6.5661,-6.4843,-6.4375,-6.4375,-6.3515,-6.2656,-6.1836,-6.1836,-6.1836,-6.1836,-6.1836,-6.1836,-6.1836,-6.1836,-6.2734,-6.4297,-6.4295,-6.4294,-6.4293,-6.4281,0.0,0.0,0.0,0.0,0.0,0.0,0.0,0.0,0.0,0.0,0.0,0.0,0.0,0.0,0.0,0.0,0.0,0.0,0.0,0.0,0.0,0.0,0.0,0.0,0.0,0.0,0.0,0.0,0.0,0.0,0.0,0.0,0.0,0.0,0.0,0.0,0.0,0.0,-6.0439,-6.0412,0.0,0.0,0.0,0.0,-5.9874,-5.9874,-5.9874,-5.9874,-5.9874,-5.9874,-5.9874,-5.9874,-6.0015,-6.0321,-6.0321,-6.0494,-6.0781,-6.0781,-6.0781,-6.0781,-6.0793,-6.0831,-6.0831,-6.0793,-6.0793,-6.0804,-6.0944,-6.0997,-6.0997,-6.0997,-6.1008,-6.1018,-6.1018,-6.1029,-6.1,0.0,0.0,0.0,0.0,0.0,-6.8385,-6.8385,-6.6974,-6.5897,-6.5897,-6.5897,-6.5955,-6.6148,-6.6243,-6.6393,-6.6638,-6.6795,-6.6857,-6.6813,-6.605,-6.5585,-6.5583,-6.4218,-6.3203,-6.2656,-6.2305,-6.1992,-6.1719,-6.1719,-6.1719,-6.1719,-6.1719,-6.1719,-6.1719,-6.1719,-6.2031,-6.2617,-6.2617,-6.2616,-6.2614,-6.2647,-6.264,0.0,0.0,0.0,0.0,0.0,0.0,0.0,0.0,0.0,0.0,0.0,0.0,0.0,0.0,0.0,0.0,0.0,0.0,0.0,0.0,0.0,0.0,0.0,0.0,0.0,0.0,0.0,0.0,0.0,0.0,0.0,0.0,0.0,0.0,0.0,0.0,0.0,-6.0307,-6.0121,0.0,-5.9826,-5.9809,-5.9809,-5.9809,-5.9809,-5.9809,-5.9809,-5.9809,-5.9809,-5.9809,-5.9809,-5.9874,-5.9984,-6.0194,-6.0349,-6.0494,-6.071,-6.0697,-6.0494,-6.071,-6.0697,-6.0494,-6.071,-6.0781,-6.0793,-6.0866,-6.0911,-6.0944,-6.0944,-6.0965,-6.0987,-6.0987,-6.0987,-6.0997,0.0,0.0,0.0,0.0,-6.9513,-6.8385,-6.8385,-6.6974,-6.5897,-6.5897,-6.5897,-6.5958,-6.6088,-6.6185,-6.6314,-6.6579,-6.6727,-6.6692,-6.6426,-6.5622,-6.5039,-6.4725,-6.332,-6.2305,-6.1719,-6.1719,-6.1719,-6.1719,-6.1719,-6.1719,-6.1719,-6.1719,-6.1719,-6.1719,-6.1719,-6.1719,-6.1719,-6.1719,-6.1718,-6.1716,-6.1711,-6.1707,-6.1779,0.0,0.0,0.0,0.0,0.0,0.0,0.0,0.0,0.0,0.0,0.0,0.0,0.0,0.0,0.0,0.0,0.0,0.0,0.0,0.0,0.0,0.0,0.0,0.0,0.0,0.0,0.0,0.0,0.0,0.0,0.0,0.0,0.0,0.0,-6.0362,-6.0068,-5.9946,-5.9739,-5.9537,-5.9452,-5.9434,-5.9434,-5.9434,-5.9434,-5.9434,-5.9434,-5.9434,-5.9434,-5.9434,-5.9434,-5.9467,-5.9588,-5.982,-5.9992,-6.015,-6.0349,-6.0335,-6.015,-6.0349,-6.0335,-6.0165,-6.0494,-6.061,-6.0622,-6.0746,-6.0843,-6.0877,-6.0877,-6.09,-6.0933,-6.0933,-6.0933,-6.0944,0.0,0.0,0.0,-7.0898,-6.9513,-6.8385,-6.8385,-6.6974,-6.5897,-6.5897,-6.5897,-6.5958,-6.6077,-6.6098,-6.623,-6.6569,-6.6599,-6.6307,-6.5651,-6.4764,-6.3906,-6.3008,-6.2148,-6.1719,-6.1719,-6.1719,-6.1719,-6.1719,-6.1719,-6.1719,-6.1719,-6.1719,-6.1719,-6.1719,-6.1719,-6.1719,-6.1719,-6.1719,-6.1718,-6.1716,-6.1711,-6.1709,-6.1708,0.0,0.0,0.0,0.0,0.0,0.0,0.0,0.0,0.0,0.0,0.0,0.0,0.0,0.0,0.0,0.0,0.0,0.0,0.0,0.0,0.0,0.0,0.0,0.0,0.0,0.0,0.0,0.0,0.0,0.0,0.0,0.0,0.0,-6.0335,-6.003,-5.9639,-5.9252,-5.9197,-5.9064,-5.8739,-5.8698,-5.8698,-5.8698,-5.8698,-5.8698,-5.8698,-5.8698,-5.8698,-5.8698,-5.8698,-5.8865,-5.9178,-5.9197,-5.9397,-5.9793,-5.9809,-5.9809,-5.9793,-5.9809,-5.9809,-5.9809,-6.015,-6.0279,-6.0307,-6.0622,-6.0769,-6.0769,-6.0781,-6.0781,-6.0781,-6.0781,-6.0781,-6.0754,0.0,0.0,-7.0898,-7.0898,-6.9513,-6.8385,-6.8385,-6.6974,-6.5897,-6.5897,-6.5897,-6.5923,-6.5958,-6.6052,-6.6185,-6.6439,-6.6532,-6.6307,-6.5653,-6.4764,-6.3633,-6.2109,-6.1836,-6.1719,-6.1719,-6.1719,-6.1719,-6.1719,-6.1719,-6.1719,-6.1719,-6.1719,-6.1719,-6.1719,-6.1719,-6.1719,-6.1719,-6.1719,-6.1718,-6.1711,-6.1709,-6.1709,-6.1708,0.0,0.0,0.0,0.0,0.0,0.0,0.0,0.0,0.0,0.0,0.0,0.0,0.0,0.0,0.0,0.0,0.0,0.0,0.0,0.0,0.0,0.0,0.0,0.0,0.0,0.0,0.0,0.0,0.0,0.0,0.0,-6.0376,-6.0135,-6.0279,-6.003,-5.9639,-5.9252,-5.8986,-5.8784,-5.8698,-5.8698,-5.8698,-5.8698,-5.8698,-5.8698,-5.8698,-5.8698,-5.8698,-5.8698,-5.8698,-5.8739,-5.8825,-5.9065,-5.927,-5.9379,-5.9656,-5.9639,-5.9379,-5.9656,-5.9622,-5.9397,-5.9772,-5.9953,-5.9915,-6.0045,-6.0223,-6.0481,-6.071,-6.0781,-6.0781,-6.0781,-6.0396,-5.9781,0.0,-7.0898,-7.0898,-7.0898,-6.9513,-6.8385,-6.8385,-6.6974,-6.5897,-6.5897,-6.5897,-6.5897,-6.5897,-6.5955,-6.6067,-6.6265,-6.6023,-6.5577,-6.4952,-6.386,-6.2773,-6.1758,-6.1719,-6.1719,-6.1719,-6.1719,-6.1719,-6.1719,-6.1719,-6.1719,-6.1719,-6.1719,-6.1719,-6.1719,-6.1719,-6.1719,-6.1719,-6.1719,-6.1717,-6.1709,-6.1709,-6.1709,-6.1708,-6.1704,-6.1711,-6.1718,-6.1718,-6.1718,-6.1758,-6.2258,0.0,0.0,0.0,0.0,0.0,0.0,0.0,0.0,0.0,0.0,0.0,0.0,0.0,0.0,0.0,0.0,0.0,0.0,0.0,0.0,0.0,0.0,0.0,0.0,-6.0265,-5.9962,-5.9868,-5.9554,-5.9253,-5.9025,-5.8805,-5.8698,-5.8698,-5.8698,-5.8698,-5.8698,-5.8698,-5.8698,-5.8698,-5.8698,-5.8698,-5.8698,-5.8698,-5.8698,-5.8698,-5.8905,-5.8986,-5.8986,-5.9234,-5.9215,-5.9006,-5.9234,-5.9215,-5.9006,-5.9379,-5.9554,-5.9554,-5.9706,-5.9884,-6.0135,0.0,0.0,0.0,0.0,-5.9935,-5.9396,0.0,-7.0898,-7.0898,-7.0898,-6.9513,-6.8385,-6.8385,-6.6974,-6.5897,-6.5897,-6.5897,-6.5897,-6.5897,-6.5897,-6.5931,-6.6098,-6.5383,-6.4676,-6.4051,-6.2631,-6.1796,-6.1719,-6.1719,-6.1719,-6.1719,-6.1719,-6.1719,-6.1719,-6.1719,-6.1719,-6.1719,-6.1719,-6.1719,-6.1719,-6.1719,-6.1719,-6.1719,-6.1719,-6.1717,-6.1709,-6.1708,-6.1708,-6.1709,-6.1709,-6.1715,-6.1719,-6.1719,-6.1719,-6.1719,-6.1679,0.0,0.0,0.0,0.0,0.0,0.0,0.0,0.0,0.0,0.0,0.0,0.0,0.0,0.0,0.0,0.0,0.0,0.0,0.0,0.0,0.0,0.0,0.0,0.0,-6.0237,-5.9962,-5.9307,-5.8925,-5.8698,-5.8698,-5.8698,-5.8698,-5.8698,-5.8698,-5.8698,-5.8698,-5.8698,-5.8698,-5.8698,-5.8698,0.0,0.0,0.0,-5.8698,-5.8698,-5.8698,-5.8698,-5.8698,-5.8698,-5.8698,-5.8698,-5.8698,-5.8698,-5.8719,-5.9025,-5.9159,-5.9234,-5.9588,-5.9777,-5.9842,-6.0179,-6.0507,-6.0666,-5.9704,-5.9358,-5.9242,0.0,-7.0898,-7.0898,-7.0898,-6.9513,-6.8385,-6.8385,-6.6974,-6.5897,-6.5897,-6.5897,-6.5897,-6.5897,-6.5897,-6.5955,-6.607,-6.5945,-6.5359,-6.417,-6.3225,-6.2421,-6.1719,-6.1719,-6.1719,-6.1719,-6.1719,-6.1719,-6.1719,-6.1719,-6.1719,-6.1719,-6.1719,-6.1719,-6.1719,-6.1719,-6.1719,-6.1719,-6.1718,-6.1715,-6.1708,-6.1702,-6.1704,-6.1709,-6.1709,-6.1715,-6.1719,-6.1719,-6.1719,-6.1679,-6.1627,-6.1534,-6.1398,-6.1343,-6.1221,0.0,0.0,0.0,0.0,0.0,0.0,0.0,0.0,0.0,0.0,0.0,0.0,0.0,0.0,0.0,0.0,0.0,0.0,0.0,-6.0307,-5.982,-5.9341,-5.9234,-5.8925,-5.8698,-5.8698,-5.8698,-5.8698,-5.8698,-5.8698,-5.8698,-5.8698,-5.8698,-5.8698,-5.8698,-5.8698,-5.8698,-5.8698,-5.8698,-5.8698,-5.8698,-5.8698,-5.8698,-5.8698,-5.8698,0.0,-5.8698,-5.8698,-5.8698,-5.8698,-5.8781,-5.8947,-5.9215,-5.9289,-5.9502,-5.9842,-6.0179,-6.0507,-6.0627,-5.9088,-5.855,-5.8319,0.0,-7.0898,-7.0898,-7.0898,-6.986,-6.8898,-6.8475,-6.7321,-6.6359,-6.5936,-6.5897,-6.5897,-6.5897,-6.5897,-6.5933,-6.6008,-6.5652,-6.5023,-6.4023,-6.3251,-6.2714,-6.2383,-6.1914,-6.1718,-6.1719,-6.1719,-6.1719,-6.1719,-6.1719,-6.1719,-6.1719,-6.1719,-6.1719,-6.1719,-6.1719,-6.1719,-6.1719,-6.1718,-6.1714,-6.1708,-6.1701,-6.1702,-6.1709,-6.1709,-6.1715,-6.1719,-6.1719,-6.1719,-6.1679,-6.1674,-6.1551,-6.1403,-6.1351,-6.1221,-6.1118,0.0,0.0,0.0,0.0,0.0,0.0,0.0,0.0,0.0,0.0,0.0,0.0,0.0,0.0,-6.0781,-6.0781,0.0,-6.0251,-6.0091,-5.9588,-5.914,-5.8967,-5.8821,-5.8698,-5.8698,-5.8698,-5.8698,-5.8698,-5.8698,-5.8698,-5.8698,-5.8698,-5.8698,-5.8698,-5.8698,-5.8698,-5.8698,-5.8698,-5.8698,-5.8698,-5.8698,-5.8698,-5.8698,-5.8698,-5.8698,-5.8698,-5.8698,-5.8698,-5.8698,-5.8698,-5.8821,-5.8947,-5.9122,-5.945,-5.9826,-6.0,-6.0251,-6.0355,-5.8617,-5.8127,-5.805,0.0,-7.0898,-7.0898,-7.0898,-7.0244,-6.9475,-6.8783,-6.7782,-6.6859,-6.6205,-6.6013,-6.5897,-6.5897,-6.5897,-6.5897,-6.5897,-6.5363,-6.4742,-6.4026,-6.347,-6.3081,-6.2965,-6.2299,-6.1832,-6.1719,-6.1719,-6.1719,-6.1719,-6.1719,-6.1719,-6.1719,-6.1719,-6.1719,-6.1719,-6.1719,-6.1719,-6.1718,-6.1717,-6.1713,-6.1707,-6.1699,-6.1701,-6.1707,-6.1708,-6.1715,-6.1719,-6.1719,-6.1719,-6.1719,-6.1719,-6.1571,-6.1412,-6.1412,-6.1239,-6.1118,-6.1118,-6.1118,0.0,0.0,0.0,0.0,0.0,0.0,0.0,0.0,-6.0781,-6.0781,-6.0781,-6.0781,-6.0781,-6.0781,-6.0481,-6.0121,-5.9858,-5.9397,-5.9006,-5.8739,-5.8698,-5.8677,-5.8656,-5.8656,-5.8656,-5.8635,-5.8635,-5.8635,-5.8635,-5.8635,-5.8635,-5.8656,-5.8656,-5.8656,-5.8698,-5.8698,-5.8698,-5.8698,-5.8698,-5.8698,-5.8698,-5.8698,-5.8698,-5.8698,-5.8698,-5.8698,-5.8698,-5.8781,-5.8784,-5.8825,-5.9159,-5.9502,-5.9809,-5.9689,-5.9884,-5.9979,-5.8304,-5.7902,-5.7943,0.0,-7.0898,-7.0898,-7.0898,-7.0244,-6.9667,-6.959,-6.8167,-6.7051,-6.6974,-6.632,-6.5897,-6.5897,-6.5897,-6.5897,-6.5897,-6.5947,-6.5606,-6.4733,-6.4782,-6.4242,-6.2873,-6.2719,-6.2356,-6.1719,-6.1719,-6.1719,-6.1719,-6.1719,-6.1719,-6.1719,-6.1719,-6.1719,-6.1719,-6.1719,-6.1718,-6.1717,-6.1712,-6.1707,-6.1699,-6.1688,-6.169,-6.1701,-6.1707,-6.1715,-6.1719,-6.1719,-6.1719,-6.1719,-6.1719,-6.1571,-6.1412,-6.1412,-6.1239,-6.1118,-6.1118,-6.1118,-6.1109,-6.1022,-6.0969,-6.09,-6.0843,-6.0781,-6.0781,0.0,-6.0781,-6.0781,-6.0781,-6.0781,-6.0781,-6.0781,-6.0279,-5.9858,-5.9826,-5.9215,-5.8739,-5.8698,-5.8698,-5.8656,-5.8551,-5.8513,-5.8508,-5.8437,-5.8437,-5.8437,-5.8437,-5.8437,-5.848,-5.8529,-5.8513,-5.8593,-5.8677,-5.8698,-5.8698,-5.8698,-5.8698,-5.8698,-5.8698,-5.8698,-5.8698,-5.8698,-5.8698,-5.8698,-5.8719,-5.9025,-5.914,-5.9178,-5.9554,-5.9777,-5.9739,-5.9415,-5.952,-5.9678,-5.822,-5.7734,-5.757,0.0,0.0,-7.0898,-7.0898,-7.0629,-7.0244,-6.9783,-6.909,-6.8244,-6.7244,-6.6821,-6.6397,-6.5936,-6.5897,-6.5897,-6.5897,-6.5943,-6.5859,-6.5587,-6.5157,-6.4683,-6.4164,-6.3237,-6.2626,-6.2359,-6.1906,-6.1717,-6.1719,-6.1717,-6.1716,-6.1718,-6.1716,-6.1715,-6.1715,-6.1715,-6.1714,-6.1712,-6.1707,-6.1701,-6.1697,-6.1686,-6.1692,-6.1705,-6.1708,-6.1715,-6.1719,-6.1719,-6.1719,0.0,-6.1719,-6.1626,-6.1481,-6.1431,-6.1337,-6.1181,-6.1116,-6.1118,-6.1099,-6.101,-6.0997,-6.0933,-6.0843,-6.0781,-6.0781,-6.0781,-6.0781,-6.0781,-6.0781,-6.0781,-6.0781,-6.0781,-6.039,-6.0045,-5.9842,-5.9325,-5.8908,-5.8719,-5.8698,-5.8635,-5.8443,-5.8422,-5.8437,-5.8393,-5.8393,-5.8393,-5.8393,-5.8393,-5.8415,-5.8422,-5.8422,-5.8486,-5.8593,-5.8593,-5.8614,-5.8698,-5.8698,-5.8656,-5.8593,-5.8656,-5.8656,-5.8593,-5.8656,-5.8698,-5.8698,-5.8845,-5.9025,-5.9234,-5.9622,-5.9809,-5.9809,-5.9836,-5.9517,-5.89,-5.781,-5.7516,-5.7518,0.0,0.0,0.0,-7.0898,-7.0898,-7.0706,-7.0129,-6.986,-6.9244,-6.7975,-6.759,-6.7128,-6.632,-6.6013,-6.5897,-6.5897,-6.5897,-6.5919,-6.6028,-6.5456,-6.5103,-6.5008,-6.3884,-6.3102,-6.2742,-6.2259,-6.1896,-6.1634,-6.1671,-6.1711,-6.1715,-6.1711,-6.1709,-6.1709,-6.1709,-6.1708,-6.1705,-6.1701,-6.1696,-6.1692,-6.1683,-6.169,-6.1702,-6.1705,-6.1712,-6.1718,-6.1719,-6.1719,-6.1719,-6.1719,-6.1672,-6.1598,-6.1471,-6.1362,-6.1281,-6.1203,-6.1125,-6.1099,-6.1,-6.1008,-6.0965,-6.0877,-6.0793,-6.0781,-6.0781,-6.0781,-6.0781,-6.0781,-6.0781,-6.0781,-6.0781,-6.0533,-6.0194,-5.9874,-5.9467,-5.9065,-5.876,-5.8698,-5.8651,-5.8415,-5.8393,-5.8371,-5.8305,-5.8305,-5.8305,-5.8305,-5.8305,-5.8305,-5.8349,-5.8349,-5.8378,-5.8508,-5.8486,-5.8551,-5.8698,-5.8656,-5.8593,-5.8492,-5.8614,-5.8593,-5.8492,-5.8635,-5.8698,-5.8698,-5.8698,-5.8825,-5.9084,-5.9588,-5.9809,-5.9842,-6.0179,-5.9616,-5.8517,-5.7666,-5.7358,-5.7212,0.0,0.0,0.0,0.0,-7.0898,-7.0898,-7.086,-7.0206,-6.9667,-6.9629,-6.8898,-6.8052,-6.7167,-6.6359,-6.5897,-6.5897,-6.5897,-6.591,-6.591,-6.5871,-6.5543,-6.4851,-6.4744,-6.4045,-6.2528,-6.2678,-6.2336,-6.1524,-6.1655,-6.1709,-6.1709,-6.1709,-6.1709,-6.1709,-6.1709,-6.1705,-6.1697,-6.1697,-6.1692,-6.172,-6.1718,-6.172,-6.1681,-6.1694,-6.1704,-6.1711,-6.1718,-6.1719,-6.1719,-6.1719,-6.1672,-6.1605,-6.1603,-6.1465,-6.131,-6.1303,-6.1189,-6.1109,-6.1012,-6.1,-6.0976,-6.0922,-6.0866,-6.0781,-6.0781,-6.0781,-6.0781,-6.0781,-6.0781,-6.0781,-6.0781,-6.0533,-6.0194,-5.9874,-5.9467,-5.9065,-5.876,-5.8698,-5.8651,-5.8415,-5.8393,-5.8305,-5.8042,-5.802,-5.802,-5.802,-5.802,-5.8065,-5.8179,-5.8215,-5.829,-5.8471,-5.8459,-5.8502,-5.8677,-5.8572,-5.8492,-5.8492,-5.8492,-5.8492,-5.8492,-5.8635,-5.8698,-5.8698,-5.8698,-5.8698,-5.8781,-5.9523,-5.9809,-5.9842,-6.0179,-5.9745,-5.8891,-5.7998,-5.721,-5.646,0.0,0.0,0.0,0.0,0.0,-7.0898,-7.0898,-7.0667,-7.0283,-6.9783,-6.8936,0.0,0.0,0.0,0.0,0.0,-6.5897,-6.5897,-6.5897,-6.5897,-6.5793,-6.5543,-6.508,-6.4551,-6.4037,-6.3086,-6.2507,-6.2372,-6.1829,-6.1624,-6.1702,-6.1696,-6.1692,-6.1692,-6.1692,-6.169,-6.1686,-6.1686,-6.1683,-6.1718,-6.1718,-6.1686,-6.1692,-6.1696,-6.1702,-6.171,0.0,-6.1718,-6.1719,-6.1719,-6.1679,-6.1673,-6.1614,-6.154,-6.1478,-6.1324,-6.1228,-6.1109,-6.1022,-6.0992,-6.1,-6.0976,-6.0922,-6.0877,-6.0877,-6.0816,-6.0781,-6.0781,-6.0781,-6.0781,-6.0781,-6.071,-6.052,-6.0194,-5.982,-5.9467,-5.9102,-5.8845,-5.8651,-5.8415,-5.8393,-5.8305,-5.802,-5.7997,-5.7997,-5.7997,-5.7997,-5.802,-5.8065,-5.8065,-5.8179,-5.8437,-5.8349,-5.8356,-5.8572,-5.8465,-5.8378,-5.829,-5.8378,-5.8443,-5.8492,-5.8635,-5.8698,-5.8698,-5.8698,-5.8698,-5.8739,-5.9234,-5.9554,-5.9842,-6.0179,-5.9561,-5.8498,-5.8218,-5.7193,-5.5938,0.0,0.0,0.0,0.0,0.0,0.0,0.0,0.0,0.0,0.0,0.0,0.0,0.0,0.0,0.0,0.0,0.0,-6.6205,-6.5897,-6.5897,-6.5897,-6.5897,-6.5438,-6.5065,-6.4749,-6.3795,-6.3107,-6.2624,-6.2167,-6.1837,-6.1627,-6.1676,-6.1718,-6.1718,-6.1718,-6.1718,-6.1718,-6.1718,-6.1718,-6.1718,-6.1718,-6.1686,-6.1692,-6.1692,-6.1697,0.0,-6.171,-6.1716,-6.1718,-6.1719,-6.1719,-6.1679,-6.1631,-6.1618,-6.1543,-6.1349,-6.1237,-6.1161,-6.106,-6.1022,-6.0992,-6.1,-6.0987,-6.0944,-6.0944,-6.09,-6.0854,-6.0854,-6.0843,-6.0781,-6.0781,-6.0781,-6.0697,-6.0349,-6.003,-5.9656,-5.927,-5.8925,-5.8651,-5.8415,-5.8393,-5.8305,-5.802,-5.7997,-5.7997,-5.7997,-5.7997,-5.7997,-5.7997,-5.8042,-5.8156,-5.8393,-5.8327,-5.8356,-5.8572,-5.8465,-5.8393,-5.8282,-5.8371,-5.8437,-5.8465,-5.8614,-5.8698,-5.8698,-5.8698,-5.8698,-5.8719,-5.9046,-5.945,-5.9842,-6.0179,-5.9473,-5.8319,-5.8319,-5.7203,-5.5703,0.0,0.0,0.0,0.0,0.0,0.0,0.0,0.0,0.0,0.0,0.0,0.0,0.0,0.0,0.0,0.0,0.0,0.0,-6.6013,-6.5897,-6.5897,-6.5897,-6.5897,-6.5513,-6.4666,-6.4734,-6.3999,-6.2424,-6.2633,-6.2328,-6.1564,-6.1687,-6.1715,-6.1676,-6.1718,-6.1718,-6.1718,-6.1718,-6.1718,-6.1718,-6.1718,-6.1718,-6.1718,-6.1718,-6.1688,-6.1697,-6.1697,-6.1708,-6.1717,-6.1718,-6.1719,-6.1719,-6.1719,-6.1633,-6.1546,-6.1361,-6.131,-6.1274,-6.1134,-6.1041,-6.1012,-6.1012,-6.1,-6.0997,-6.0997,-6.0955,-6.0911,-6.0911,-6.0866,-6.0793,-6.0781,-6.0781,-6.071,-6.0362,-6.0061,-5.9673,-5.9289,-5.8927,-5.8635,-5.8437,-5.8393,-5.8305,-5.8042,-5.7997,-5.7997,-5.7997,-5.7997,-5.7997,-5.7997,-5.8111,-5.8282,-5.8393,-5.8393,-5.8502,-5.8677,-5.8572,-5.8465,-5.8393,-5.8393,-5.8393,-5.8415,-5.8593,-5.8698,-5.8698,-5.8698,-5.8698,-5.8719,-5.9064,-5.9415,-5.9842,-6.0165,-5.946,-5.8319,-5.8319,-5.7203,-5.5703,0.0,0.0,0.0,0.0,0.0,0.0,0.0,0.0,0.0,0.0,0.0,0.0,0.0,0.0,0.0,0.0,0.0,0.0,-6.6821,-6.6244,-6.5897,0.0,0.0,0.0,0.0,-6.4959,-6.4497,-6.4164,-6.3649,-6.2983,-6.2244,-6.2372,-6.2145,-6.1569,-6.166,-6.1718,-6.1718,-6.1718,-6.1718,-6.1718,-6.1718,-6.1718,-6.1718,-6.1718,-6.1681,-6.1686,-6.1696,-6.1701,-6.1707,-6.1716,-6.1718,-6.1719,-6.1719,-6.1633,-6.1551,-6.1412,-6.1349,-6.1274,-6.1134,-6.1109,-6.106,-6.106,-6.1022,-6.0982,-6.0982,-6.098,-6.0955,-6.0922,-6.09,-6.0877,-6.0793,-6.0781,-6.0757,-6.0697,-6.0376,-6.0061,-5.9689,-5.9307,-5.8927,-5.8492,-5.8437,-5.8327,-5.8193,-5.8065,-5.7997,-5.7997,-5.7997,-5.8042,-5.8133,-5.8156,-5.8268,-5.8465,-5.8437,-5.8459,-5.8572,-5.8378,-5.8327,-5.8393,-5.8393,-5.8437,-5.8486,-5.8635,-5.8698,-5.8698,-5.8698,-5.8698,-5.8698,-5.8784,-5.9215,-5.9826,-5.9868,-5.9272,-5.8319,-5.8319,-5.7203,-5.5703,0.0,0.0,0.0,0.0,0.0,0.0,0.0,0.0,0.0,0.0,0.0,0.0,0.0,0.0,0.0,0.0,0.0,0.0,0.0,-6.6667,-6.6282,-6.5897,0.0,0.0,0.0,-6.5436,-6.5009,-6.4712,-6.4307,-6.3719,-6.2973,-6.3132,-6.2758,-6.2036,-6.2122,-6.1966,-6.1718,-6.1718,-6.1718,0.0,0.0,-6.1718,-6.1718,-6.1718,-6.1718,-6.1681,-6.1688,-6.1696,-6.1705,-6.1715,-6.1718,-6.1719,-6.1719,-6.1677,-6.1623,-6.1534,-6.1408,-6.1331,-6.1213,-6.1143,-6.1118,-6.1118,-6.106,-6.1041,-6.1041,-6.1031,-6.098,-6.0959,-6.0905,-6.09,-6.0866,-6.0804,-6.0781,-6.0781,-6.052,-6.0237,-6.0061,-5.9554,-5.9084,-5.8788,-5.8551,-5.8349,-5.8201,-5.8065,-5.7997,-5.7997,-5.8042,-5.8111,-5.8215,-5.8268,-5.84,-5.8508,-5.8508,-5.8508,-5.8492,-5.8356,-5.8327,-5.8393,-5.8393,-5.8459,-5.8492,-5.8635,-5.8698,-5.8698,-5.8698,-5.8698,-5.8698,-5.8698,-5.9025,-5.9554,-5.9706,-5.9092,-5.804,-5.8235,-5.7203,-5.5703,0.0,0.0,0.0,0.0,0.0,0.0,0.0,0.0,0.0,0.0,-7.0898,-7.0898,0.0,0.0,0.0,0.0,0.0,0.0,0.0,0.0,0.0,0.0,0.0,0.0,-6.5897,-6.5897,-6.5513,-6.4782,-6.4878,-6.4549,-6.3737,-6.3856,-6.3539,-6.2802,-6.2873,-6.2504,-6.1824,-6.1871,-6.1796,-6.1718,-6.1718,-6.1718,-6.1718,0.0,0.0,-6.1718,-6.1718,-6.1694,-6.1709,-6.1714,-6.1718,-6.1719,-6.1719,-6.1719,-6.1679,-6.1618,-6.1527,-6.1408,-6.1311,-6.1205,-6.1107,-6.1089,-6.1118,-6.1118,-6.1118,-6.1041,-6.1012,-6.1002,-6.0969,-6.0933,-6.0911,-6.0866,-6.0793,-6.0781,-6.0559,-6.0335,-6.0307,-5.9701,-5.9234,-5.914,-5.8681,-5.8349,-5.826,-5.8088,-5.7997,-5.7997,-5.8111,-5.8215,-5.8238,-5.84,-5.8508,-5.8551,-5.8635,-5.8635,-5.8551,-5.8459,-5.8393,-5.8415,-5.8393,-5.8459,-5.8492,-5.8635,-5.8698,-5.8698,-5.8698,-5.8698,-5.8698,-5.876,-5.8967,-5.9325,-5.9706,-5.9071,-5.7953,-5.8189,-5.728,-5.5857,0.0,0.0,0.0,0.0,0.0,0.0,0.0,0.0,0.0,0.0,-7.0898,-7.0898,0.0,0.0,0.0,0.0,0.0,0.0,0.0,0.0,0.0,0.0,0.0,0.0,-6.5897,-6.5897,-6.582,-6.5667,-6.5716,-6.5267,-6.4431,-6.4539,-6.4193,-6.3464,-6.3696,-6.3322,-6.2526,-6.2714,-6.2345,-6.1718,-6.1718,-6.1718,-6.1718,0.0,0.0,0.0,-6.1718,-6.169,-6.1701,0.0,-6.1716,-6.1719,-6.1719,-6.1719,-6.1679,-6.1618,-6.1598,-6.1527,-6.1337,-6.1289,-6.1237,-6.1116,-6.1118,-6.1118,-6.1118,-6.107,-6.1051,-6.1012,-6.0992,-6.099,-6.0933,-6.09,-6.0877,-6.0793,-6.0746,-6.061,-6.0335,-5.9931,-5.9554,-5.9234,-5.8723,-5.8393,-5.8371,-5.8133,-5.7997,-5.7997,-5.8111,-5.826,-5.8371,-5.8393,-5.8465,-5.8656,-5.8677,-5.8677,-5.8656,-5.8502,-5.8437,-5.8486,-5.8437,-5.8459,-5.8492,-5.8635,-5.8698,-5.8698,-5.8698,-5.8698,-5.8719,-5.9006,-5.9343,-5.9723,-6.0091,-5.9777,-5.9107,-5.8527,-5.7665,-5.6676,0.0,0.0,0.0,0.0,0.0,0.0,0.0,-7.0898,-7.0898,-7.0898,-7.0898,-7.0898,-7.0898,-7.0898,-7.0898,0.0,0.0,0.0,0.0,0.0,0.0,0.0,0.0,0.0,-6.6513,-6.609,-6.5897,-6.5897,0.0,-6.5705,-6.5294,-6.5413,-6.5074,-6.4369,-6.4603,-6.4242,-6.351,-6.3154,-6.2774,-6.2345,-6.1874,-6.1718,0.0,0.0,0.0,0.0,0.0,-6.1688,-6.1699,-6.1702,-6.1712,-6.1718,-6.1719,-6.1719,-6.1679,-6.1674,-6.1621,-6.1593,-6.1487,-6.1379,-6.1289,-6.1213,-6.1152,-6.1118,-6.1118,-6.1118,-6.107,-6.1051,-6.1022,-6.0982,-6.0965,-6.0933,-6.0888,-6.0793,-6.0781,-6.0746,-6.0572,-6.0265,-5.9915,-5.9554,-5.8988,-5.8598,-5.8465,-5.8179,-5.802,-5.8088,-5.8088,-5.8133,-5.8305,-5.8415,-5.8529,-5.8677,-5.8698,-5.8656,-5.8593,-5.848,-5.8422,-5.8492,-5.8459,-5.848,-5.8614,-5.8656,-5.8698,-5.8698,-5.8698,-5.8698,-5.8719,-5.9046,-5.9325,-5.9537,-6.0068,-5.9879,-5.9204,-5.9004,-5.8088,-5.6945,0.0,0.0,0.0,0.0,0.0,0.0,-7.0898,-7.0898,-7.0898,-7.0898,-7.0898,-7.0898,-7.0898,-7.0898,-7.0898,0.0,0.0,0.0,0.0,0.0,0.0,0.0,0.0,0.0,0.0,0.0,0.0,-6.5897,-6.5897,0.0,0.0,0.0,0.0,0.0,-6.5516,-6.5195,-6.4476,-6.3823,-6.3321,0.0,0.0,-6.1874,0.0,0.0,0.0,0.0,0.0,-6.1686,-6.1696,-6.1697,-6.1707,-6.1715,-6.1718,-6.1718,-6.1719,-6.1719,-6.1674,-6.1616,-6.1607,-6.1487,-6.1343,-6.1324,-6.1213,-6.1134,-6.1127,-6.1118,-6.1118,-6.1118,-6.1051,-6.1041,-6.1008,-6.0955,-6.09,-6.0793,-6.0781,-6.0781,-6.0781,-6.052,-6.0179,-5.9858,-5.9307,-5.8848,-5.8513,-5.8246,-5.8111,-5.8223,-5.8133,-5.8111,-5.826,-5.8443,-5.8593,-5.8677,-5.8698,-5.8656,-5.8513,-5.8459,-5.8422,-5.8492,-5.8459,-5.8502,-5.8656,-5.8677,-5.8698,-5.8698,-5.8698,-5.8739,-5.8825,-5.9178,-5.9379,-5.9482,-6.0141,-6.0007,-5.937,-5.948,-5.8665,-5.7484,0.0,0.0,0.0,0.0,0.0,0.0,-7.0898,-7.0898,-7.0898,-7.0898,-7.0898,-7.0898,-7.0898,-7.0898,-7.0898,0.0,0.0,0.0,0.0,0.0,0.0,0.0,0.0,0.0,0.0,0.0,0.0,-6.5897,-6.5897,0.0,0.0,0.0,0.0,0.0,0.0,-6.6016,-6.5211,-6.5328,0.0,0.0,0.0,0.0,0.0,0.0,0.0,0.0,0.0,-6.172,-6.1683,-6.1694,-6.1699,-6.1702,-6.1709,-6.1716,-6.1719,-6.1719,-6.1719,-6.1678,-6.1616,-6.1598,-6.152,-6.1331,-6.1296,-6.1244,-6.1116,-6.1118,-6.1118,-6.1118,-6.1109,-6.108,-6.1008,-6.0987,-6.0955,-6.0804,-6.0781,-6.0781,-6.0781,-6.052,-6.0179,-5.9858,-5.9361,-5.8927,-5.8535,-5.84,-5.8371,-5.8371,-5.8371,-5.8371,-5.8371,-5.8551,-5.8677,-5.8698,-5.8698,-5.8677,-5.8677,-5.8502,-5.8422,-5.8492,-5.8459,-5.8459,-5.8513,-5.8635,-5.8698,-5.8698,-5.8698,-5.8885,-5.9178,-5.9571,-5.9915,-6.0251,-6.0597,-6.0707,-6.0527,-5.9769,-5.9396,-5.905,0.0,0.0,0.0,0.0,0.0,0.0,-7.0898,-7.0898,-7.0898,-7.0898,-7.0898,-7.0898,-7.0898,-7.0898,-7.0898,-7.0898,0.0,0.0,0.0,0.0,0.0,0.0,0.0,0.0,0.0,0.0,-6.5897,-6.5897,-6.5897,0.0,0.0,0.0,0.0,0.0,0.0,-6.6521,-6.6174,-6.5769,0.0,0.0,0.0,0.0,0.0,0.0,0.0,0.0,0.0,0.0,-6.172,-6.1686,-6.1692,-6.1699,-6.1702,-6.1712,-6.1718,-6.1718,-6.1718,-6.1679,-6.1676,-6.1623,-6.1546,-6.1388,-6.1331,-6.1267,-6.1125,-6.1118,-6.1118,-6.1118,-6.1118,-6.1099,-6.1021,-6.1018,-6.0965,-6.0888,-6.0843,-6.0781,-6.0781,-6.0697,-6.039,-5.9874,-5.9571,-5.9197,-5.8677,-5.8502,-5.8393,-5.8393,-5.8459,-5.8465,-5.8465,-5.8551,-5.8614,-5.8677,-5.8698,-5.8698,-5.8698,-5.8529,-5.8508,-5.8614,-5.8508,-5.8508,-5.8635,-5.8677,-5.8698,-5.8698,-5.8698,-5.8801,-5.8965,-5.9537,-5.989,-6.0061,-6.0585,-6.0781,-6.0742,-6.0396,-5.9935,-5.9396,0.0,0.0,0.0,0.0,0.0,-7.0898,-7.0898,-7.0898,-7.0898,-7.0898,-7.0898,-7.0898,-7.0898,-7.0898,-7.0898,-7.0898,-7.0898,0.0,0.0,0.0,0.0,0.0,0.0,0.0,0.0,0.0,-6.6128,-6.5897,-6.5897,-6.5955,0.0,0.0,-6.6393,-6.6595,0.0,0.0,0.0,0.0,0.0,0.0,0.0,0.0,0.0,0.0,0.0,0.0,0.0,0.0,0.0,0.0,0.0,-6.1694,-6.1694,-6.1705,0.0,-6.1716,-6.1718,-6.1719,-6.1719,-6.1675,-6.1614,-6.1474,-6.1408,-6.1343,-6.1181,-6.1169,-6.1152,-6.1127,-6.1118,-6.106,-6.1012,-6.099,-6.0976,-6.0922,-6.0827,-6.0781,-6.0781,-6.0781,-6.0585,-6.003,-5.9788,-5.9467,-5.8905,-5.8635,-5.8502,-5.8502,-5.8529,-5.8572,-5.8572,-5.8572,-5.8614,-5.8677,-5.8698,-5.8698,-5.8698,-5.8551,-5.8551,-5.8677,-5.8551,-5.8551,-5.8698,-5.8698,-5.8698,-5.8698,-5.8698,-5.876,-5.8905,-5.9558,-5.9874,-5.9977,-6.0572,-6.0781,-6.0781,-6.0781,-6.0396,-5.9858,0.0,0.0,0.0,0.0,0.0,0.0,-7.0898,-7.0898,-7.0898,-7.0898,-7.0898,-7.0898,-7.0898,-7.0898,-7.0898,-7.0898,-7.0898,0.0,0.0,0.0,0.0,0.0,0.0,0.0,0.0,0.0,-6.6705,-6.5897,-6.5897,-6.5955,-6.6108,-6.6234,-6.6393,-6.6595,0.0,0.0,0.0,0.0,0.0,0.0,0.0,0.0,-6.1718,0.0,0.0,0.0,0.0,0.0,0.0,0.0,0.0,0.0,0.0,-6.1696,-6.171,-6.1716,-6.1718,-6.1719,-6.1719,-6.1719,-6.1679,-6.1616,-6.1603,-6.1534,-6.1331,-6.1303,-6.1259,-6.1116,-6.1118,-6.106,-6.1012,-6.099,-6.0976,-6.0922,-6.0827,-6.0781,-6.0781,-6.0781,-6.0685,-6.0335,-6.0015,-5.9622,-5.9234,-5.8905,-5.8677,-5.8677,-5.8677,-5.8677,-5.8677,-5.8677,-5.8698,-5.8698,-5.8698,-5.8698,-5.8698,-5.8502,-5.8502,-5.8677,-5.8502,-5.8523,-5.8698,-5.8698,-5.8698,-5.8698,-5.8698,-5.8905,-5.9234,-5.9622,-6.0015,-6.0321,-6.0685,-6.0781,-6.0781,-6.0781,-6.0781,-6.0666,0.0,0.0,0.0,0.0,0.0,0.0,-7.0898,-7.0898,-7.0898,-7.0898,-7.0898,-7.0898,-7.0898,-7.0898,-7.0898,-7.0898,-7.0898,0.0,0.0,0.0,0.0,0.0,0.0,0.0,0.0,-6.7552,-6.6705,-6.5897,-6.6001,-6.6118,-6.6234,-6.6432,-6.66,-6.6727,-6.6787,-6.6795,0.0,0.0,0.0,0.0,0.0,-6.1718,-6.1718,0.0,0.0,0.0,0.0,0.0,0.0,0.0,0.0,0.0,0.0,0.0,0.0,-6.171,-6.1717,-6.1719,-6.1719,-6.1719,-6.1679,-6.1616,-6.1605,-6.1546,-6.1398,-6.1337,-6.1296,-6.1244,-6.1169,-6.107,-6.106,-6.1021,-6.0987,-6.0965,-6.0888,-6.0781,-6.0781,-6.0781,-6.0685,-6.0335,-5.9772,-5.9343,-5.9215,-5.8905,-5.8698,-5.8698,-5.8698,-5.8698,-5.8698,-5.8698,-5.8698,-5.8698,-5.8698,-5.8698,-5.8698,-5.8551,-5.8508,-5.8572,-5.8508,-5.8508,-5.8572,-5.8656,-5.8698,-5.8698,-5.8698,-5.8905,-5.9234,-5.9622,-6.0015,-6.0321,-6.0685,-6.0781,-6.0781,-6.0781,-6.0781,-6.0742,0.0,0.0,0.0,0.0,0.0,0.0,-7.0937,-7.0898,-7.0898,-7.0898,-7.0898,-7.0898,-7.0898,-7.0898,-7.0898,-7.0898,-7.0898,0.0,0.0,0.0,0.0,0.0,0.0,0.0,-6.8436,-6.7859,-6.7051,-6.5897,-6.603,-6.6176,-6.6314,-6.6495,-6.6685,-6.6795,-6.6795,-6.6795,0.0,0.0,0.0,0.0,-6.1913,-6.1718,-6.1718,0.0,0.0,0.0,0.0,0.0,0.0,0.0,0.0,0.0,0.0,0.0,0.0,0.0,-6.1715,-6.1718,-6.1719,-6.1719,-6.1679,-6.1631,-6.1627,-6.1618,-6.1481,-6.1393,-6.1331,-6.1317,-6.1173,-6.1118,-6.1118,-6.1069,-6.0987,-6.0987,-6.09,-6.0781,-6.0781,-6.0781,-6.0685,-6.0335,-5.9899,-5.9499,-5.9234,-5.9025,-5.8825,-5.8698,-5.8698,-5.8698,-5.8698,-5.8656,-5.8656,-5.8698,-5.8698,-5.8698,-5.8698,-5.8572,-5.8551,-5.8593,-5.8513,-5.8551,-5.8593,-5.8656,-5.8698,-5.8698,-5.8698,-5.8905,0.0,-5.9622,-6.0015,-6.0321,-6.0685,-6.0781,-6.0781,-6.0781,-6.0781,-6.0781,0.0,0.0,0.0,0.0,0.0,0.0,0.0,-7.0927,-7.0952,-7.0925,-7.0952,-7.0952,-7.0925,-7.0925,-7.0925,-7.0925,-7.0912,0.0,0.0,0.0,0.0,0.0,0.0,0.0,-6.8423,-6.8385,-6.759,-6.5897,-6.6052,-6.6185,-6.6314,-6.6507,-6.6693,-6.6795,-6.6795,-6.6717,-6.6522,-6.4885,-6.3243,-6.1718,-6.1718,-6.1718,0.0,0.0,0.0,0.0,0.0,0.0,0.0,0.0,0.0,0.0,0.0,0.0,0.0,0.0,0.0,0.0,0.0,-6.1719,-6.1719,-6.1719,-6.1719,-6.1679,-6.1618,-6.1524,0.0,-6.1311,-6.1189,-6.1098,-6.1118,-6.1069,-6.0987,-6.0987,-6.09,-6.0781,-6.0781,-6.0781,-6.0685,-6.0335,-6.0279,-5.9992,-5.9325,-5.9197,-5.9064,-5.876,-5.8698,-5.8677,-5.8677,-5.8572,-5.8572,-5.8677,-5.8677,-5.8677,-5.8698,-5.8572,-5.8572,-5.8677,-5.8572,-5.8572,-5.8677,-5.8677,-5.8698,-5.8698,-5.8698,-5.8925,-5.9289,-5.9639,-6.003,-6.0362,-6.0697,-6.0781,-6.0781,-6.0781,-6.0781,-6.0781,0.0,0.0,0.0,0.0,0.0,0.0,0.0,0.0,0.0,0.0,-7.125,-7.129,-7.1147,-7.1136,-7.1136,0.0,0.0,0.0,0.0,0.0,0.0,0.0,0.0,0.0,-6.8423,-6.8385,-6.759,-6.5897,-6.6129,-6.6275,-6.6314,-6.6629,-6.6781,-6.6795,-6.6795,-6.6092,-6.4807,-6.375,-6.2696,-6.1718,-6.1718,-6.1718,0.0,0.0,0.0,0.0,-6.1718,-6.1718,0.0,0.0,0.0,0.0,0.0,0.0,0.0,0.0,-6.1713,-6.1717,-6.1719,0.0,-6.1719,-6.1719,-6.1719,-6.1719,0.0,-6.1619,-6.1527,-6.1398,-6.1318,-6.1213,-6.1107,-6.1069,-6.0987,-6.0987,-6.09,-6.0781,-6.0781,-6.0781,-6.0685,-6.0335,-6.0091,-5.9874,-5.9673,-5.9159,-5.8865,-5.8986,-5.8723,-5.8572,-5.8572,-5.8465,-5.8523,-5.8677,-5.8614,-5.8593,-5.8698,-5.8572,-5.8529,-5.8572,-5.8529,-5.8529,-5.8572,-5.8656,-5.8698,-5.8698,-5.8698,-5.9045,-5.9656,-5.9777,-6.015,-6.0697,-6.0757,-6.0781,-6.0781,-6.0781,-6.0781,-6.0781,0.0,0.0,0.0,0.0,0.0,0.0,0.0,0.0,0.0,0.0,-7.1422,-7.1448,-7.1339,-7.1329,-7.1329,0.0,0.0,0.0,0.0,0.0,0.0,0.0,0.0,-6.9744,-6.8436,-6.8013,-6.723,-6.6001,-6.6221,-6.6351,-6.6458,-6.6709,-6.6795,-6.6795,-6.6405,-6.5312,-6.3672,-6.3204,-6.2501,-6.1718,-6.1718,0.0,0.0,0.0,0.0,0.0,-6.1718,-6.1718,0.0,-6.1718,-6.1718,-6.1718,0.0,0.0,0.0,0.0,-6.1713,-6.1717,-6.1719,-6.1719,-6.1719,-6.1719,-6.1719,-6.1719,-6.1719,-6.1631,-6.1551,-6.1431,-6.1361,-6.1259,-6.1116,-6.1069,-6.0987,-6.0987,-6.09,-6.0781,-6.0781,-6.0781,-6.0734,-6.0546,-6.0362,-6.015,-5.9842,-5.9452,-5.9121,-5.8945,-5.8661,-5.8492,-5.8492,-5.8378,-5.8378,-5.8614,-5.8508,-5.8529,-5.8698,-5.8635,-5.8572,-5.8492,-5.8572,-5.8572,-5.8492,-5.8635,-5.8698,-5.8698,-5.8698,-5.9102,-5.9809,-5.9809,-6.0208,-6.0781,-6.0781,-6.0781,-6.0781,-6.0781,-6.0781,-6.0742,0.0,0.0,0.0,0.0,0.0,0.0,0.0,0.0,0.0,0.0,0.0,0.0,0.0,0.0,0.0,0.0,0.0,0.0,0.0,0.0,0.0,0.0,-7.0106,-6.931,-6.845,-6.7577,-6.6812,-6.6119,-6.6267,-6.6413,-6.6595,-6.6727,-6.6717,-6.6561,-6.578,-6.4492,-6.3008,-6.2852,-6.2384,-6.1718,-6.1718,0.0,0.0,0.0,0.0,0.0,0.0,0.0,0.0,-6.1718,-6.1718,-6.1718,-6.1718,0.0,0.0,0.0,0.0,0.0,-6.1719,-6.1719,-6.1719,-6.1719,-6.1719,-6.1719,-6.1719,0.0,0.0,0.0,0.0,-6.1296,-6.1161,-6.1051,-6.0987,-6.0987,-6.09,-6.0781,-6.0781,-6.0781,-6.0769,-6.0734,-6.0722,-6.0507,-5.9953,-5.9755,-5.945,-5.8865,-5.8598,-5.8486,-5.8465,-5.8268,-5.8268,-5.8486,-5.8437,-5.8502,-5.8656,-5.8656,-5.8635,-5.8513,-5.8635,-5.8614,-5.8513,-5.8656,-5.8698,-5.8698,-5.8698,-5.9102,-5.9809,-5.9809,-6.0208,-6.0781,-6.0781,-6.0781,-6.0781,-6.0781,-6.0781,-6.0666,0.0,0.0,0.0,0.0,0.0,0.0,0.0,0.0,0.0,0.0,0.0,0.0,0.0,0.0,0.0,0.0,0.0,0.0,0.0,0.0,0.0,-7.0338,-7.0018,-6.9458,-6.8596,-6.7757,-6.7009,-6.6275,-6.6465,-6.6574,-6.6595,-6.6727,-6.6444,-6.5741,-6.4882,-6.3945,-6.2969,-6.2228,-6.1835,-6.1718,-6.1718,0.0,0.0,0.0,0.0,0.0,0.0,0.0,0.0,-6.1718,-6.1718,-6.1718,-6.1718,0.0,0.0,0.0,0.0,0.0,-6.1719,-6.1719,-6.1719,-6.1719,-6.1719,-6.1719,-6.1719,-6.1679,0.0,0.0,-6.1456,-6.1356,-6.1296,-6.1107,-6.0987,-6.0987,-6.09,-6.0781,-6.0781,-6.0781,-6.071,-6.039,-6.0362,-6.0335,-6.0237,-5.9673,-5.9287,-5.9286,-5.8747,-5.8371,-5.8246,-5.8111,-5.8133,-5.8415,-5.8415,-5.8459,-5.8551,-5.8513,-5.8593,-5.8656,-5.8593,-5.8593,-5.8656,-5.8677,-5.8698,-5.8698,-5.8698,-5.9102,-5.9809,-5.9809,-6.0208,-6.0781,-6.0781,-6.0781,-6.0781,-6.0781,-6.0781,-6.0589,0.0,0.0,0.0,0.0,0.0,0.0,0.0,0.0,0.0,0.0,0.0,0.0,0.0,0.0,0.0,0.0,0.0,0.0,0.0,0.0,-7.0826,-7.0324,-6.9359,-6.8582,-6.8082,-6.7238,-6.6702,-6.6471,-6.6569,-6.6624,-6.6709,-6.6313,-6.5702,-6.4843,-6.3984,-6.3125,-6.2267,-6.1874,-6.1718,-6.1718,0.0,0.0,0.0,0.0,0.0,0.0,0.0,0.0,0.0,0.0,-6.1718,-6.1718,-6.1718,0.0,0.0,0.0,0.0,0.0,-6.1719,-6.1719,-6.1719,-6.1719,-6.1719,-6.1719,-6.1719,-6.1719,-6.1678,-6.1614,-6.1546,-6.1487,-6.135,-6.1173,-6.1032,-6.0894,-6.0854,-6.0781,-6.0781,-6.0781,-6.0746,-6.0585,-6.0572,-6.0507,-6.0307,-5.9836,-5.9467,-5.9286,-5.8727,-5.8371,-5.8327,-5.8111,-5.8088,-5.8305,-5.8371,-5.8459,-5.8492,-5.8492,-5.8513,-5.8593,-5.8551,-5.8513,-5.8593,-5.8656,-5.8698,-5.8698,-5.8905,-5.9308,-5.9826,-6.0015,-6.0349,-6.0781,-6.0781,-6.0781,-6.0781,-6.0781,-6.0242,-5.9358,0.0,0.0,0.0,0.0,0.0,0.0,0.0,0.0,0.0,0.0,0.0,0.0,0.0,0.0,0.0,0.0,0.0,0.0,0.0,-7.1167,-7.0558,-7.0176,-6.8734,-6.7865,-6.7687,-6.6832,-6.6477,-6.6668,-6.6668,-6.6588,-6.6522,-6.5897,-6.5038,-6.3984,-6.3282,-6.254,-6.1718,-6.1718,-6.1718,-6.1718,0.0,0.0,0.0,0.0,0.0,0.0,0.0,0.0,0.0,0.0,0.0,0.0,0.0,0.0,0.0,-6.1709,-6.1716,-6.1719,-6.1719,-6.1719,-6.1719,-6.1719,-6.1719,-6.1719,-6.1719,-6.1719,-6.1679,-6.1624,-6.1612,-6.1534,-6.1361,-6.1198,-6.1041,-6.0839,-6.0781,-6.0781,-6.0781,-6.0781,-6.0781,-6.0781,-6.0781,-6.071,-6.0416,-6.0121,-5.9739,-5.9343,-5.8808,-5.8465,-5.8371,-5.8111,-5.8065,-5.8215,-5.8327,-5.8459,-5.8492,-5.8492,-5.8529,-5.8572,-5.8529,-5.8529,-5.8572,-5.8656,-5.8698,-5.8719,-5.9026,-5.9432,-5.9842,-6.0165,-6.0507,-6.0781,-6.0781,-6.0781,-6.0781,-6.055,-5.955,-5.828,0.0,0.0,0.0,0.0,0.0,0.0,0.0,0.0,0.0,0.0,0.0,0.0,0.0,0.0,0.0,0.0,0.0,0.0,0.0,-7.1167,-7.0345,-6.9522,-6.8585,-6.8004,-6.786,-6.7008,-6.6633,-6.679,-6.679,-6.6402,-6.5702,-6.5624,-6.4687,-6.3086,-6.3047,-6.254,-6.1718,-6.1718,-6.1718,-6.1718,-6.1718,0.0,0.0,0.0,0.0,0.0,0.0,0.0,0.0,0.0,0.0,0.0,0.0,0.0,-6.1709,-6.1709,-6.1716,-6.1719,-6.1719,-6.1719,-6.1719,-6.1719,-6.1719,-6.1719,-6.1719,-6.1719,-6.1719,-6.1679,-6.1629,-6.1549,-6.1422,-6.1174,-6.0976,-6.0804,-6.0781,-6.0781,-6.0781,-6.0781,-6.0781,-6.0781,-6.0781,-6.0781,-6.0757,-6.0481,-6.0068,-5.9601,-5.9122,-5.8686,-5.8223,-5.8065,-5.8065,-5.8215,-5.8327,-5.8459,-5.8492,-5.8492,-5.8572,-5.8677,-5.8572,-5.8572,-5.8677,-5.8677,-5.8698,-5.8719,-5.9026,-5.9432,-5.9842,-6.0165,-6.0507,-6.0781,-6.0781,-6.0781,-6.0704,-5.9896,-5.905,-5.8165,0.0,0.0,0.0,0.0,0.0,0.0,0.0,0.0,0.0,0.0,0.0,0.0,0.0,0.0,0.0,0.0,0.0,0.0,0.0,-7.0387,-6.9489,-6.863,-6.7771,-6.7253,-6.7223,-6.6876,-6.6733,-6.6795,-6.6795,-6.6405,-6.5585,-6.5038,-6.414,-6.2969,-6.2423,-6.1991,-6.1718,-6.1718,-6.1718,-6.1718,-6.1718,-6.1718,0.0,0.0,0.0,0.0,0.0,0.0,0.0,0.0,-6.1718,-6.1718,-6.1718,-6.1696,-6.1709,-6.1709,-6.1716,-6.1719,-6.1719,-6.1719,-6.1719,-6.1719,-6.1719,-6.1719,-6.1719,-6.1719,-6.1719,-6.1719,-6.1678,-6.1626,-6.1474,-6.1253,-6.1041,-6.0933,-6.0845,-6.0781,-6.0781,-6.0781,-6.0781,-6.0781,-6.0781,-6.0781,-6.0781,-6.0507,-6.015,-5.9755,-5.9289,-5.8808,-5.8349,-5.8215,-5.8088,-5.8065,-5.8305,-5.8415,-5.8459,-5.8551,-5.8656,-5.8698,-5.8572,-5.8572,-5.8698,-5.8698,-5.8698,-5.8739,-5.9344,-5.9656,-5.9858,-6.0376,-6.0697,-6.0781,-6.0781,-6.0473,-5.9935,-5.9627,-5.8665,-5.7434,0.0,0.0,0.0,0.0,0.0,0.0,0.0,0.0,0.0,0.0,0.0,0.0,0.0,0.0,0.0,0.0,0.0,0.0,-7.0738,-6.9645,-6.8708,-6.8122,-6.7264,-6.6795,-6.6795,-6.6795,-6.6795,-6.6795,-6.6561,-6.6014,-6.5155,-6.4297,-6.3438,-6.2579,-6.1952,-6.1718,-6.1718,-6.1683,-6.1686,-6.1686,-6.169,-6.169,0.0,0.0,0.0,0.0,0.0,0.0,0.0,0.0,-6.1683,-6.1718,-6.1718,-6.1696,-6.1709,-6.1709,-6.1716,-6.1719,-6.1719,-6.1719,-6.1719,-6.1719,-6.1719,-6.1719,-6.1719,-6.1719,-6.1719,-6.1719,-6.1679,-6.163,-6.1501,-6.1277,-6.1079,-6.1,-6.0871,-6.0781,-6.0781,-6.0781,-6.0781,-6.0781,-6.0781,-6.0781,-6.0781,-6.0585,-6.0279,-5.9842,-5.9467,-5.9025,-5.8443,-5.8327,-5.8223,-5.8179,-5.8334,-5.8459,-5.8502,-5.8614,-5.8698,-5.8698,-5.8614,-5.8614,-5.8698,-5.8698,-5.8698,-5.8739,-5.9488,-5.9744,-5.9656,-6.0362,-6.0622,-6.0634,-6.045,-6.0012,-5.9435,-5.8896,-5.7973,-5.6945,0.0,0.0,0.0,0.0,0.0,0.0,0.0,0.0,0.0,0.0,0.0,0.0,0.0,0.0,0.0,0.0,0.0,0.0,-7.0699,-6.9059,-6.8083,-6.8083,-6.7264,-6.6795,-6.6795,-6.6795,-6.6795,-6.6795,-6.5975,-6.5155,-6.426,-6.3399,-6.254,-6.1718,-6.1718,-6.1718,-6.1681,-6.1694,-6.1697,-6.1699,-6.1707,-6.1709,-6.1709,0.0,0.0,0.0,0.0,0.0,0.0,0.0,-6.169,-6.1718,-6.1718,-6.1696,-6.1709,-6.1709,-6.1716,-6.1719,-6.1719,-6.1719,-6.1719,-6.1719,-6.1719,-6.1719,-6.1719,-6.1719,-6.1719,-6.1719,-6.1631,-6.1562,-6.1507,-6.1295,-6.1095,-6.1014,-6.0902,-6.0793,-6.0781,-6.0781,-6.0781,-6.0781,-6.0781,-6.0781,-6.0781,-6.0781,-6.0533,-5.9874,-5.9652,-5.9269,-5.8535,-5.8422,-5.84,-5.8471,-5.8492,-5.8535,-5.8677,-5.8698,-5.8698,-5.8698,-5.8698,-5.8698,-5.8698,-5.8698,-5.8698,-5.8739,-5.945,-5.9571,-5.9233,-5.9992,-6.0293,-6.022,-5.9687,-5.9473,-5.9281,-5.7599,-5.6983,-5.6868,0.0,0.0,0.0,0.0,0.0,0.0,0.0,0.0,0.0,0.0,0.0,0.0,0.0,0.0,0.0,0.0,0.0,0.0,-6.8942,-6.8396,-6.7849,-6.7224,-6.6951,-6.6795,-6.6795,-6.6249,-6.5975,-6.5975,-6.5702,-6.4843,-6.3399,-6.3125,-6.254,-6.1718,-6.1718,-6.1686,-6.1694,-6.1696,-6.1701,-6.1707,-6.1708,-6.1709,-6.1709,0.0,0.0,0.0,0.0,0.0,0.0,0.0,0.0,0.0,-6.1702,-6.1709,-6.1715,-6.1715,-6.1718,-6.1719,-6.1719,-6.1719,-6.1719,-6.1719,-6.1719,-6.1719,-6.1719,-6.1719,-6.1719,-6.1719,-6.1679,-6.1675,-6.1631,-6.1501,-6.1349,-6.1246,-6.1062,-6.0905,-6.0816,-6.0781,-6.0781,-6.0781,-6.0781,-6.0781,-6.0781,-6.0781,-6.061,-6.0194,-5.933,-5.8597,-5.8051,-5.7208,-5.6742,-5.6663,-5.6784,-5.6825,-5.6867,-5.6948,-5.7026,-5.7026,-5.7026,-5.7621,-5.8698,-5.8698,-5.8698,-5.8681,-5.8577,-5.846,-5.8386,-5.8485,-5.8693,-5.8868,-5.8708,-5.828,-5.7665,-5.7176,-5.6599,-5.6049,0.0,0.0,0.0,0.0,0.0,0.0,0.0,0.0,0.0,0.0,-7.1987,-7.1987,0.0,0.0,0.0,0.0,0.0,0.0,0.0,-6.7771,-6.7342,-6.6834,-6.6795,-6.6795,-6.6795,-6.6014,-6.5429,-6.5077,-6.4726,-6.4023,-6.3008,-6.2657,-6.2189,-6.1718,-6.1686,-6.1692,-6.1699,-6.1705,-6.1709,-6.1713,-6.1679,-6.1679,-6.1716,0.0,0.0,0.0,0.0,0.0,0.0,0.0,0.0,0.0,-6.1709,-6.1713,-6.1717,-6.1717,-6.1718,-6.1719,-6.1719,-6.1719,-6.1719,-6.1719,-6.1719,-6.1719,-6.1719,-6.1719,-6.1719,-6.1719,-6.1719,-6.1719,-6.1718,-6.158,-6.1474,-6.1306,-6.1135,-6.0963,-6.0861,-6.0843,-6.0781,-6.0781,-6.0781,-6.0781,-6.0781,-6.0473,-6.0135,-5.9824,-5.8684,-5.7829,-5.7378,-5.6607,-5.6142,-5.608,-5.6142,-5.6183,-5.6183,-5.6243,-5.632,-5.632,-5.632,-5.6803,-5.7769,-5.7769,-5.7769,-5.7732,-5.7452,-5.7471,-5.7712,-5.7635,-5.7772,-5.8052,-5.7862,-5.7473,-5.6945,-5.6599,-5.6137,-5.5703,0.0,0.0,-7.5501,-7.4564,0.0,0.0,0.0,0.0,0.0,0.0,-7.1987,-7.1987,0.0,0.0,0.0,0.0,0.0,-6.8083,-6.8005,-6.7224,-6.6795,-6.6795,-6.6795,-6.6756,-6.6678,-6.5897,-6.5038,-6.4182,-6.3399,-6.2969,-6.2852,-6.2071,-6.172,-6.1681,-6.1694,-6.1699,-6.1702,-6.1676,-6.1679,-6.1679,-6.1619,-6.1582,-6.156,-6.1497,0.0,0.0,0.0,0.0,0.0,0.0,0.0,0.0,-6.171,-6.1714,-6.1717,-6.1717,-6.1718,-6.1719,-6.1719,-6.1719,-6.1719,-6.1719,-6.1719,-6.1719,-6.1719,-6.1719,-6.1719,-6.1719,-6.1719,-6.1719,-6.1719,-6.1587,-6.1452,-6.133,-6.1154,-6.1009,-6.0938,-6.0839,-6.0831,-6.0781,-6.0742,-6.0666,-6.0666,-5.9896,-5.9264,-5.8972,-5.7877,-5.7046,-5.6659,-5.6332,-5.61,-5.606,-5.606,-5.606,-5.606,-5.606,-5.606,-5.606,-5.606,-5.606,-5.6097,-5.6246,-5.6246,-5.6172,-5.6172,-5.6518,-5.7081,-5.7081,-5.7239,-5.7467,-5.7036,-5.6868,-5.6791,-5.5972,-5.5703,-5.5703,0.0,0.0,-7.5345,-7.3822,0.0,0.0,0.0,0.0,0.0,0.0,0.0,0.0,0.0,0.0,0.0,0.0,-6.8318,-6.781,-6.7107,-6.6912,-6.6795,-6.6795,-6.6795,-6.6483,-6.5858,-6.5038,-6.414,-6.3282,-6.3086,-6.2657,-6.1991,-6.1796,-6.1686,-6.1694,-6.1697,-6.1705,-6.1715,-6.1638,-6.1627,-6.1618,-6.1478,-6.1066,-6.0538,-6.052,-6.0522,0.0,0.0,0.0,0.0,0.0,0.0,0.0,-6.1718,-6.1718,-6.1718,-6.1718,-6.1719,-6.1719,-6.1719,-6.1719,-6.1719,-6.1719,-6.1719,-6.1719,-6.1719,-6.1719,-6.1719,-6.1719,-6.1719,-6.1719,-6.1719,-6.1679,-6.1591,-6.1495,-6.132,-6.1175,-6.1018,-6.0941,-6.0877,-6.0831,-6.0204,-5.9781,-5.9781,-5.905,-5.8527,-5.8469,-5.7341,-5.6521,-5.6154,-5.5228,-5.4595,-5.4351,-5.4351,-5.4351,-5.4351,-5.4351,-5.4351,-5.4351,-5.4351,-5.4351,-5.4388,-5.5689,-5.5949,-5.528,-5.528,-5.5319,-5.5322,-5.5322,-5.5652,-5.6126,-5.6028,-5.5972,-5.5972,-5.578,-5.5703,-5.5703,0.0,0.0,0.0,0.0,0.0,0.0,0.0,0.0,0.0,0.0,0.0,0.0,0.0,0.0,0.0,0.0,-6.7732,-6.7264,-6.6834,-6.6795,-6.6795,-6.6795,-6.6444,-6.6014,-6.5624,-6.4336,-6.3477,-6.3008,-6.2579,-6.2149,-6.1718,-6.1686,-6.1692,-6.1697,-6.1707,-6.1678,-6.1638,-6.1623,-6.1557,-6.1474,-6.0955,-6.0516,-6.017,-5.9688,-5.9542,-5.9615,-5.9615,0.0,0.0,0.0,0.0,0.0,0.0,0.0,-6.1719,-6.1719,-6.1719,-6.1719,-6.1719,-6.1719,-6.1719,-6.1719,-6.1719,-6.1719,-6.1719,-6.1719,-6.1719,-6.1719,-6.1719,-6.1719,-6.1719,-6.1719,-6.1677,-6.1564,-6.1409,-6.1244,-6.1136,-6.0973,-6.0745,-6.0288,-5.9804,-5.9358,-5.8973,-5.8165,-5.7665,-5.7665,-5.6599,-5.578,-5.5428,-5.4705,-5.4161,-5.3794,-5.3794,-5.3794,-5.3794,-5.3794,-5.3794,-5.3794,-5.3794,-5.3794,-5.3831,-5.4723,-5.4871,-5.4426,-5.4426,-5.457,-5.4791,-5.4791,-5.5159,-5.5703,-5.5703,-5.5703,-5.5703,-5.5703,-5.5703,-5.5703,0.0,0.0,0.0,0.0,0.0,0.0,0.0,0.0,0.0,0.0,0.0,0.0,0.0,0.0,-6.8044,0.0,0.0,0.0,-6.6795,-6.6678,-6.66,-6.66,-6.5819,-6.5312,-6.5155,-6.375,-6.293,-6.2774,-6.2032,-6.1681,-6.1683,-6.1694,-6.1699,-6.1704,-6.1677,-6.1638,-6.1616,-6.1551,-6.1382,-6.1105,-6.0313,-5.9866,-5.9605,-5.8791,-5.853,-5.8676,-5.8676,-5.9276,-6.0073,-6.0237,0.0,0.0,0.0,0.0,-6.1719,-6.1719,-6.1719,-6.1719,-6.1719,-6.1719,-6.1719,-6.1719,-6.1719,-6.1719,-6.1719,-6.1719,-6.1719,-6.1719,-6.1719,-6.1719,-6.1719,-6.1719,-6.1678,-6.1621,-6.1478,-6.1328,-6.1225,-6.1068,-6.0629,-5.9716,-5.9403,-5.8984,-5.8165,-5.728,-5.6791,-5.6791,-5.5907,-5.5249,-5.4895,-5.4576,-5.421,-5.3907,-5.3832,-5.3794,-5.3794,-5.3794,-5.3794,-5.3794,-5.3794,-5.3794,-5.3794,-5.3794,-5.3794,-5.3794,-5.3794,-5.4196,-5.4791,-5.4791,-5.5159,-5.5703,-5.5703,-5.5703,-5.5703,-5.5703,-5.5703,-5.5703,0.0,0.0,0.0,0.0,0.0,0.0,0.0,0.0,0.0,0.0,-7.0777,-7.0113,0.0,-6.8239,-6.781,-6.7029,-6.6873,-6.6795,-6.6795,0.0,0.0,-6.5741,-6.4921,-6.4101,-6.336,-6.3125,-6.2618,-6.1874,-6.1757,-6.1686,-6.1696,-6.1697,-6.1705,-6.1716,-6.1636,-6.1619,-6.1601,-6.1417,-6.0884,-6.0158,-5.9993,-5.9005,-5.7666,-5.7525,-5.7552,-5.7696,-5.7696,-5.8281,-5.9194,-6.0032,-6.036,0.0,0.0,0.0,-6.1719,-6.1719,-6.1719,-6.1719,-6.1719,-6.1719,-6.1719,-6.1719,-6.1719,-6.1719,-6.1719,-6.1719,-6.1719,-6.1719,-6.1719,-6.1719,-6.1719,-6.1719,-6.1719,-6.1679,-6.1623,-6.1485,-6.1295,-6.1225,-6.0756,-5.971,-5.8946,-5.8115,-5.7253,-5.6406,-5.5857,-5.5857,-5.572,-5.552,-5.5262,-5.4909,-5.4576,-5.4228,-5.3926,-5.3794,-5.3794,-5.3794,-5.3794,-5.3794,-5.3794,-5.3794,-5.3794,-5.3794,-5.3794,-5.3794,-5.3794,-5.4196,-5.4791,-5.4791,-5.5159,-5.5703,-5.5703,-5.5703,-5.5703,-5.5703,-5.5703,-5.5703,0.0,0.0,0.0,0.0,0.0,0.0,0.0,0.0,0.0,0.0,0.0,-6.8963,0.0,-6.7668,-6.7234,-6.6844,-6.68,-6.66,-6.617,-6.5819,-6.539,-6.4882,-6.4023,-6.3399,-6.3008,-6.254,-6.2071,-6.1718,-6.1688,-6.1696,-6.1704,-6.1709,-6.1713,-6.1717,-6.163,-6.1554,-6.1463,-6.0849,-6.032,-5.9838,-5.8871,-5.7985,-5.7241,-5.6738,-5.6604,-5.6676,-5.6676,-5.7288,-5.8187,-5.8588,-5.9446,-6.036,-6.0806,0.0,0.0,0.0,-6.1719,-6.1719,-6.1719,-6.1719,-6.1719,-6.1719,-6.1719,-6.1719,-6.1719,-6.1719,-6.1719,-6.1719,-6.1719,-6.1719,-6.1719,-6.1719,-6.1719,-6.1719,-6.1629,-6.1543,-6.1373,-6.0851,-6.0079,-5.9109,-5.8179,-5.7279,-5.641,-5.5955,-5.5703,-5.5703,-5.5703,-5.5566,-5.5314,-5.4981,-5.4654,-5.4296,-5.3963,-5.3794,-5.3794,-5.3794,-5.3794,-5.3794,-5.3794,-5.3794,-5.3794,-5.3794,-5.3794,-5.3794,-5.3794,-5.4196,-5.4791,-5.4791,-5.5159,-5.5703,-5.5703,-5.5703,-5.5703,-5.5703,-5.5703,-5.5703,0.0,0.0,0.0,0.0,0.0,0.0,0.0,0.0,0.0,0.0,0.0,0.0,0.0,0.0,0.0,0.0,-6.6614,-6.6141,-6.5316,-6.508,-6.4648,-6.3984,-6.3125,-6.2657,-6.2657,-6.203,-6.1681,-6.1686,-6.1694,-6.1704,-6.1711,-6.1715,-6.1679,-6.1679,-6.1573,-6.1463,-6.1328,-6.0377,-5.9816,-5.9455,-5.7907,-5.7164,-5.6893,-5.6235,-5.6012,-5.6012,-5.6012,-5.649,-5.7144,-5.7418,-5.8413,-5.9658,-6.0154,-6.0767,0.0,0.0,0.0,-6.1719,-6.1719,-6.1719,-6.1719,-6.1719,-6.1719,-6.1719,-6.1719,-6.1719,-6.1719,-6.1719,-6.1719,-6.1719,-6.1719,-6.1719,-6.1719,-6.1719,-6.1673,-6.1562,-6.1431,-6.0583,-5.9622,-5.8606,-5.7679,-5.676,-5.5874,-5.5745,-5.5703,-5.5703,-5.5703,-5.5599,-5.5413,-5.5009,-5.4685,-5.443,-5.4017,-5.3794,-5.3794,-5.3794,-5.3794,-5.3794,-5.3794,-5.3794,-5.3794,-5.3794,-5.3794,-5.3794,-5.3889,-5.4245,-5.4806,-5.4895,-5.5224,-5.5703,-5.5703,-5.5703,-5.5703,-5.5703,-5.5703,-5.5703,0.0,0.0,0.0,0.0,0.0,0.0,0.0,0.0,0.0,0.0,0.0,0.0,-6.706,-6.6902,-6.6902,-6.6902,-6.6121,-6.5297,-6.4431,-6.3601,-6.3125,-6.3086,-6.2228,0.0,-6.1757,-6.1718,-6.1686,-6.1697,-6.1697,-6.1707,-6.1716,-6.1716,-6.1678,-6.1607,-6.1463,-6.1362,-6.1232,-6.0287,-5.9425,-5.8604,-5.7675,-5.6815,-5.6042,-5.6012,-5.6012,-5.6012,-5.6012,-5.6012,-5.6209,-5.719,-5.756,-5.7965,-5.9739,-6.0319,-6.0563,0.0,0.0,0.0,-6.1719,-6.1719,-6.1719,-6.1719,-6.1719,-6.1719,-6.1719,-6.1719,-6.1719,-6.1719,-6.1719,-6.1719,-6.1719,-6.1719,-6.1719,-6.1719,-6.1719,-6.1631,-6.1439,-6.0711,-5.976,-5.8624,-5.7719,-5.6811,-5.5874,-5.5745,-5.5703,-5.5703,-5.5703,-5.5703,-5.5692,-5.5119,-5.4791,-5.4776,-5.4143,-5.3794,-5.3794,-5.3794,-5.3794,-5.3794,-5.3794,-5.3794,-5.3794,-5.3794,-5.3794,-5.3813,-5.4143,-5.4479,-5.4821,-5.5119,-5.5437,-5.5703,-5.5703,-5.5703,-5.5703,-5.5703,-5.5703,-5.5703,0.0,0.0,0.0,0.0,0.0,0.0,0.0,0.0,0.0,0.0,0.0,0.0,0.0,-6.6911,-6.6675,-6.6128,-6.5265,-6.4401,-6.3502,-6.3186,-6.2755,-6.2209,-6.1852,-6.1696,-6.1701,-6.1696,-6.1697,-6.1705,-6.171,-6.1714,-6.1717,-6.1676,-6.1568,-6.146,-6.1426,-6.1039,-6.0402,-5.9465,-5.8565,-5.7675,-5.6824,-5.6274,-5.6012,-5.6012,-5.6012,-5.6012,-5.6012,-5.6012,-5.6059,-5.6435,-5.6961,-5.7606,-5.8281,-5.8932,-5.9573,-6.0524,-6.1246,-6.1719,-6.1719,-6.1719,-6.1719,-6.1719,-6.1719,-6.1719,-6.1719,-6.1719,-6.1719,-6.1719,-6.1719,-6.1719,-6.1719,-6.1719,-6.1719,-6.1719,-6.1719,-6.1676,-6.1546,-6.029,-5.9187,-5.8668,-5.7336,-5.6281,-5.5914,-5.5787,-5.5745,-5.5714,-5.5703,-5.5703,-5.5703,-5.5132,-5.4791,-5.4791,-5.4161,-5.3794,-5.3794,-5.3794,-5.3794,-5.3794,-5.3794,-5.3794,-5.3794,-5.3794,-5.3794,-5.3832,-5.438,-5.4685,-5.4821,-5.5145,-5.5449,-5.5703,-5.5703,-5.5703,-5.5703,-5.5703,-5.5703,-5.5703,0.0,0.0,0.0,0.0,0.0,-7.0508,-6.9961,-6.8906,-6.8086,-6.7812,0.0,0.0,0.0,0.0,-6.5975,-6.4842,-6.4214,-6.3508,-6.2611,-6.257,-6.2295,-6.1748,-6.1704,-6.1704,-6.1709,-6.1704,-6.1705,-6.1712,-6.1716,-6.1717,-6.1718,-6.1626,-6.1534,-6.1412,-6.1378,-6.0864,-5.9902,-5.8975,-5.8101,-5.7202,-5.6351,-5.6012,-5.6012,-5.6012,-5.6012,-5.6012,-5.6012,-5.6012,-5.6012,-5.6012,-5.6443,-5.7053,-5.7379,-5.8148,-5.9061,-6.0006,-6.0718,-6.1285,-6.1598,-6.1679,-6.1719,-6.1719,-6.1719,-6.1679,-6.1677,-6.1679,-6.1679,-6.1677,-6.1679,-6.1719,-6.1719,-6.1719,-6.1719,-6.1719,-6.1719,-6.1678,-6.1612,-6.0035,-5.8856,-5.8726,-5.7094,-5.5961,-5.5924,-5.5865,-5.5776,-5.5735,-5.5714,-5.5703,-5.5703,-5.5224,-5.4866,-5.4639,-5.4089,-5.3794,-5.3794,-5.3794,-5.3794,-5.3794,-5.3794,-5.3794,-5.3794,-5.3794,-5.3794,-5.3832,-5.4511,-5.4791,-5.4836,-5.5237,-5.5531,-5.5703,-5.5703,-5.5703,-5.5703,-5.5703,-5.5703,-5.5703,0.0,0.0,-7.168,-7.082,-7.0625,-7.0078,-6.8437,-6.8164,-6.7851,-6.6992,0.0,0.0,0.0,0.0,0.0,-6.3164,-6.2968,-6.2615,-6.1756,-6.1712,-6.1709,-6.1709,-6.1709,-6.1709,-6.1709,-6.1709,-6.1712,-6.1717,-6.1717,-6.1718,-6.1719,-6.1623,-6.153,-6.1403,-6.1285,-6.0748,-5.9803,-5.8952,-5.8062,-5.7202,-5.6351,-5.6012,-5.6012,-5.6012,-5.6012,-5.6012,-5.6012,-5.6012,-5.6012,-5.6012,-5.6012,-5.6162,-5.7144,-5.8104,-5.9005,-5.9858,-6.0191,-6.0473,0.0,0.0,0.0,-6.1719,-6.1719,-6.1678,-6.1616,-6.1632,-6.1678,-6.1614,-6.1632,-6.1719,-6.1719,-6.1719,-6.1719,-6.1719,-6.1719,-6.1678,-6.1575,-6.0038,-5.8856,-5.8694,-5.7094,-5.6018,-5.6018,-5.5895,-5.5797,-5.5797,-5.5735,-5.5703,-5.5703,-5.5437,-5.4981,-5.4313,-5.3963,-5.3794,-5.3794,-5.3794,-5.3794,-5.3794,-5.3794,-5.3794,-5.3794,-5.3794,-5.3813,-5.3851,-5.4528,-5.4806,-5.4866,-5.5473,-5.5703,-5.5703,-5.5703,-5.5703,-5.5703,-5.5703,-5.5703,-5.5703,0.0,-7.1055,-7.078,-6.9868,-6.916,-6.8564,-6.8011,-6.7415,-6.6943,0.0,0.0,0.0,-6.5487,-6.441,-6.3515,-6.3047,-6.2422,-6.1953,-6.1718,-6.1718,-6.1718,-6.1718,-6.1716,-6.1716,-6.1718,-6.1716,-6.1717,-6.1718,-6.1718,-6.1678,-6.1621,-6.1527,-6.1403,-6.1279,-6.0585,-5.9779,-5.8952,-5.869,-5.7714,-5.6351,-5.6089,-5.6012,-5.6012,-5.6012,-5.6012,-5.6012,-5.6012,-5.6012,-5.6012,-5.6012,-5.6012,-5.6059,-5.6341,-5.7098,-5.792,-5.8186,-5.9202,-6.0286,-6.052,0.0,0.0,0.0,0.0,0.0,-6.1675,-6.1679,-6.1678,-6.1614,-6.1614,-6.1621,-6.1621,-6.1621,-6.1629,-6.1679,-6.1719,-6.1484,-6.0818,-5.9675,-5.865,-5.7994,-5.6767,-5.6016,-5.6018,-5.5914,-5.5865,-5.5797,-5.5735,-5.5703,-5.5703,-5.5211,-5.4746,-5.4296,-5.3963,-5.3794,-5.3794,-5.3794,-5.3794,-5.3794,-5.3794,-5.3794,-5.3794,-5.4054,-5.4178,-5.4213,-5.488,-5.5145,-5.521,-5.5543,-5.5703,-5.5703,-5.5703,-5.5703,-5.5703,-5.5703,-5.5703,-5.5703,-7.021,-7.0011,-6.977,-6.8834,-6.8241,-6.7794,-6.7346,-6.6907,-6.6478,0.0,0.0,0.0,-6.4336,-6.312,-6.2319,-6.2319,-6.1887,-6.1575,-6.1575,-6.1629,-6.1673,-6.1673,-6.1679,-6.1718,-6.1719,-6.1718,-6.168,-6.1673,-6.1673,-6.1619,-6.1527,-6.1398,-6.1343,-6.1264,-6.0317,-5.9416,-5.8574,-5.8217,-5.725,-5.6012,-5.6012,-5.6012,-5.6012,-5.6012,-5.6012,-5.6012,-5.6012,-5.6012,-5.6012,-5.6012,-5.6012,-5.6012,-5.6012,-5.6396,-5.6946,-5.7295,-5.8221,-5.9137,-5.9482,-6.0215,-6.0924,-6.1013,0.0,0.0,-6.154,-6.1562,-6.1562,-6.1495,-6.1506,-6.1527,-6.1527,-6.1527,-6.1423,-6.1104,-6.1069,-6.0918,-6.0422,-5.9513,-5.8568,-5.7663,-5.665,-5.5995,-5.6007,-5.5961,-5.5914,-5.5865,-5.5776,-5.5735,-5.5703,-5.525,-5.4851,-5.4511,-5.4196,-5.3963,-5.3794,-5.3794,-5.3794,-5.3794,-5.3794,-5.3794,-5.3794,-5.4161,-5.4296,-5.433,-5.5009,-5.5301,-5.5326,-5.5577,-5.5703,-5.5703,-5.5703,-5.5703,-5.5703,-5.5703,-5.5703,-5.5703,0.0,-6.8943,-6.8666,-6.7793,-6.7631,-6.7392,-6.6674,-6.6474,-6.6129,0.0,-6.5094,-6.4364,-6.2742,-6.1841,-6.1412,-6.1412,-6.1412,-6.1412,-6.1412,-6.1524,-6.1596,-6.1596,-6.163,-6.1678,-6.1678,-6.1678,-6.1631,-6.1596,-6.1596,-6.1524,-6.1393,-6.1324,-6.1296,-6.1235,-6.0192,-5.9339,-5.8526,-5.7559,-5.6699,-5.6012,-5.6012,-5.6012,-5.6012,-5.6012,-5.6012,-5.6012,-5.6012,-5.6012,-5.6012,-5.6012,-5.6012,-5.6012,-5.6012,-5.6012,-5.6158,-5.6932,-5.7327,-5.7638,-5.8337,-5.9281,-6.0025,-6.0039,-6.058,0.0,-6.1046,-6.1073,-6.1115,-6.1046,-6.1073,-6.1105,-6.1114,-6.1114,-6.0924,-6.0317,-6.0118,-6.0056,-5.9993,-5.9283,-5.8418,-5.7483,-5.6552,-5.6012,-5.6012,-5.6007,-5.5952,-5.5905,-5.5817,-5.5766,-5.5714,-5.5437,-5.517,-5.4806,-5.4479,-5.4143,-5.3794,-5.3794,-5.3794,-5.3794,-5.3794,-5.3813,-5.387,-5.4176,-5.4364,-5.4446,-5.5064,-5.5339,-5.5364,-5.5588,-5.5703,-5.5703,-5.5703,-5.5703,-5.5703,-5.5703,-5.5703,-5.5703,-6.8242,-6.8042,-6.7776,-6.6846,-6.6669,-6.6586,-6.6329,-6.5729,-6.5264,-6.507,-6.3915,-6.275,-6.1754,-6.149,-6.1412,-6.1412,-6.1412,-6.1412,-6.1412,-6.1431,-6.1439,-6.1439,-6.1456,-6.1463,-6.1463,-6.1463,-6.1456,-6.1439,-6.1439,-6.1388,-6.1311,-6.1324,-6.1237,-6.1057,-5.955,-5.8767,-5.8497,-5.694,-5.6167,-5.6012,-5.6012,-5.6012,-5.6012,-5.6012,-5.6012,-5.6012,-5.6012,-5.6012,-5.6012,-5.6012,-5.6012,-5.6012,-5.6012,-5.6012,-5.6051,-5.6197,-5.6773,-5.7379,-5.7533,-5.8225,-5.8948,-5.8992,-5.9095,0.0,-5.9353,-5.9386,-5.9391,-5.9363,-5.9372,-5.9408,-5.9469,-5.9477,-5.9649,-6.0265,-5.9741,-5.8961,-5.8219,-5.7936,-5.7423,-5.657,-5.6195,-5.6012,-5.6012,-5.6007,-5.5952,-5.5905,-5.5776,-5.5714,-5.5703,-5.5437,-5.517,-5.4806,-5.4479,-5.4143,-5.3794,-5.3794,-5.3794,-5.3794,-5.3794,-5.3963,-5.4193,-5.4544,-5.4851,-5.5105,-5.5473,-5.5599,-5.5649,-5.5692,-5.5703,-5.5703,-5.5703,-5.5703,-5.5703,-5.5703,-5.5703,-5.5703,-6.7192,-6.7021,-6.6835,-6.6394,-6.595,-6.569,-6.5625,-6.487,-6.4213,-6.3748,-6.2632,-6.1718,-6.1296,-6.1264,-6.1264,-6.1264,-6.1264,-6.1264,-6.1264,-6.1292,-6.1367,-6.1367,-6.1383,-6.1412,-6.1412,-6.1412,-6.1388,-6.1367,-6.1367,-6.1298,-6.1181,-6.1181,-6.0937,-6.046,-5.9184,-5.8372,-5.7869,-5.6553,-5.6012,-5.6012,-5.6012,-5.6012,-5.6012,-5.6012,-5.6012,-5.6012,-5.6012,-5.6012,-5.6012,-5.6012,-5.6012,-5.6012,-5.6012,-5.6012,-5.6012,-5.6012,-5.6313,-5.6661,-5.6661,-5.7288,-5.7972,-5.7986,-5.832,0.0,0.0,-5.8752,-5.8752,-5.8746,-5.8739,-5.8765,-5.8787,-5.8841,-5.8854,-5.89,-5.8523,-5.7892,-5.7025,-5.7241,-5.7133,-5.6226,-5.6024,-5.6012,-5.6012,-5.5986,-5.598,-5.5905,-5.5797,-5.5735,-5.5703,-5.5554,-5.5263,-5.4806,-5.4639,-5.4296,-5.3794,-5.3794,-5.3794,-5.3794,-5.3794,-5.3963,-5.4296,-5.4654,-5.4981,-5.5314,-5.5566,-5.5703,-5.5703,-5.5703,-5.5703,-5.5703,-5.5703,-5.5703,-5.5703,-5.5703,-5.5703,-5.5703,-6.638,-6.6185,-6.6147,-6.5992,-6.5412,-6.4948,-6.4803,-6.4029,-6.3129,-6.2278,-6.1543,-6.1118,-6.1118,-6.1118,-6.1118,-6.1118,-6.1118,-6.1118,-6.1118,-6.1181,-6.1259,-6.1259,-6.1292,-6.1351,-6.1351,-6.1351,-6.1337,-6.1259,-6.1259,-6.1189,-6.1118,-6.1118,-6.0654,-5.9841,-5.899,-5.8101,-5.7241,-5.6381,-5.5995,-5.5995,-5.5995,-5.6003,-5.6012,-5.6012,-5.6012,-5.6012,-5.6012,-5.6012,-5.6012,-5.6012,-5.6012,-5.6012,-5.6012,-5.6012,-5.6012,-5.6012,-5.6012,-5.6012,-5.6012,-5.6506,-5.7048,-5.7048,-5.7598,-5.8101,0.0,0.0,0.0,-5.8114,-5.8153,-5.8131,-5.8164,-5.8192,-5.8072,-5.7534,-5.7276,-5.6984,-5.6524,-5.69,-5.6915,-5.6106,-5.6012,-5.6012,-5.6012,-5.6003,-5.5959,-5.5905,-5.5855,-5.5766,-5.5714,-5.5703,-5.5461,-5.4909,-5.4836,-5.4544,-5.3981,-5.3944,-5.3944,-5.3981,-5.3981,-5.4178,-5.4511,-5.4776,-5.5064,-5.5389,-5.5626,-5.5703,-5.5703,-5.5703,-5.5703,-5.5703,-5.5703,-5.5703,-5.5703,-5.5703,-5.5703,-5.5703,-6.6234,-6.6185,-6.5992,-6.5257,-6.5064,-6.4725,-6.399,-6.3091,-6.224,-6.135,-6.1157,-6.1118,-6.1118,-6.1118,-6.1118,-6.1118,-6.1118,-6.1118,-6.1118,-6.1098,-6.1116,-6.1116,-6.1134,-6.1143,-6.1143,-6.1143,-6.1134,-6.1116,-6.1116,-6.1098,-6.1118,-6.1118,-6.0654,-5.9841,-5.899,-5.8101,-5.7241,-5.6384,-5.598,-5.598,-5.598,-5.6007,-5.6012,-5.6012,-5.6012,-5.6012,-5.6012,-5.6012,-5.6012,-5.6012,-5.6012,-5.6012,-5.6012,-5.6012,-5.6012,-5.6012,-5.6012,-5.6012,-5.6012,-5.6089,-5.6158,-5.6158,-5.6205,-5.6321,-5.6321,0.0,-5.6325,-5.6432,0.0,-5.6498,-5.6529,0.0,0.0,-5.7468,-5.6875,-5.6563,-5.7276,-5.6691,-5.6115,-5.6012,-5.6012,-5.6012,-5.6012,-5.6007,-5.5961,-5.5905,-5.5855,-5.5766,-5.5714,-5.5703,-5.5554,-5.5262,-5.4952,-5.4761,-5.4685,-5.438,-5.438,-5.4685,-5.4685,-5.4866,-5.521,-5.5236,-5.5401,-5.5671,-5.5692,-5.5703,-5.5703,-5.5703,-5.5703,-5.5703,-5.5703,-5.5703,-5.5703,-5.5703,-5.5703,-5.5703,-6.5402,-6.5489,-6.5218,-6.4377,-6.3826,-6.3362,-6.3013,-6.2201,-6.1505,-6.1157,-6.1118,-6.1118,-6.1118,-6.1118,-6.1118,-6.1118,-6.1118,-6.1118,-6.1118,-6.1118,-6.1118,-6.1118,-6.1118,-6.1118,-6.1118,-6.1118,-6.1118,-6.1118,-6.1118,-6.1118,-6.1079,-6.0615,-5.9957,-5.9106,-5.8217,-5.7366,-5.6506,-5.6141,-5.6016,-5.6016,-5.5989,-5.5989,-5.6007,-5.6007,-5.6007,-5.6007,-5.5995,-5.6012,-5.6012,-5.6012,-5.6012,-5.6012,-5.6012,-5.6012,-5.6012,-5.6012,-5.6012,-5.6012,-5.6012,-5.6012,-5.6012,-5.6012,-5.6012,-5.6012,-5.6012,-5.6012,-5.6029,-5.6064,0.0,0.0,0.0,0.0,0.0,0.0,-5.6446,-5.633,-5.6686,-5.6319,-5.6012,-5.6012,-5.6012,-5.6012,-5.6012,-5.5986,-5.5998,-5.5943,-5.5924,-5.5885,-5.5766,-5.5756,-5.5638,-5.5314,-5.5145,-5.4995,-5.4806,-5.467,-5.467,-5.4791,-5.4791,-5.4966,-5.5301,-5.5301,-5.5437,-5.5703,-5.5703,-5.5703,-5.5703,-5.5703,-5.5703,-5.5703,-5.5703,-5.5703,-5.5703,-5.5703,-5.5703,-5.5703,-6.4124,-6.4405,-6.4337,-6.3458,-6.2791,-6.2268,-6.2037,-6.1495,-6.107,-6.107,-6.109,-6.106,-6.106,-6.1109,-6.1118,-6.1118,-6.1118,-6.1118,-6.1118,-6.1118,-6.1118,-6.1118,-6.1118,-6.1118,-6.1118,-6.1118,-6.1118,-6.1118,-6.1118,-6.1118,-6.1079,-6.0267,-5.9416,-5.8574,-5.7675,-5.6815,-5.6003,-5.5977,-5.5968,-5.5968,-5.5952,-5.5933,-5.5943,-5.6,-5.6018,-5.598,-5.5995,-5.6012,-5.6012,-5.6012,-5.6012,-5.6012,-5.6012,-5.6012,-5.6012,-5.6012,-5.6012,-5.6012,-5.6012,-5.6012,-5.6012,-5.6012,-5.6012,-5.6012,-5.6012,-5.6012,-5.6012,-5.6012,-5.6012,0.0,0.0,0.0,-5.6153,-5.6153,0.0,-5.6153,-5.6153,-5.6056,-5.6012,-5.6012,-5.6012,-5.6012,-5.6012,-5.6012,-5.5986,-5.6018,-5.6018,-5.5933,-5.5797,-5.5797,-5.5692,-5.5413,-5.5339,-5.5236,-5.505,-5.4966,-5.4966,-5.505,-5.505,-5.5172,-5.5401,-5.5401,-5.5508,-5.5703,-5.5703,-5.5703,-5.5703,-5.5703,-5.5703,-5.5703,-5.5703,-5.5703,-5.5703,-5.5703,-5.5703,-5.5703,-6.2436,-6.2976,-6.3306,-6.2509,-6.2274,-6.1934,-6.1152,-6.1036,-6.0997,-6.0997,-6.101,-6.1002,-6.1002,-6.1051,-6.1118,-6.1118,-6.1118,-6.1118,-6.1118,-6.1118,-6.1118,-6.1118,-6.1118,-6.1118,-6.1118,-6.1118,-6.1118,-6.1118,-6.1118,-6.1118,-6.1079,-6.0267,-5.9416,-5.8574,-5.7675,-5.6815,-5.6003,-5.5943,-5.5905,-5.5895,-5.5817,-5.5797,-5.5807,-5.5943,-5.6018,-5.598,-5.5995,-5.6012,-5.6012,-5.6012,-5.6012,-5.6012,-5.6012,-5.6012,-5.6012,-5.6012,-5.6012,-5.6012,-5.6012,-5.6012,-5.6012,-5.6012,-5.6012,-5.6012,-5.6012,-5.6012,-5.6012,-5.6012,-5.6012,-5.6012,-5.6012,-5.6012,-5.602,-5.602,-5.602,0.0,0.0,-5.6012,-5.6012,-5.6012,-5.6012,-5.6012,-5.6012,-5.6012,-5.5986,-5.6018,-5.6018,-5.5933,-5.5797,-5.5797,-5.5766,-5.5703,-5.5425,-5.5413,-5.5682,-5.5413,-5.5413,-5.5682,-5.5682,-5.5692,-5.5692,-5.5692,-5.5703,-5.5703,-5.5703,-5.5703,-5.5703,-5.5703,-5.5703,-5.5703,-5.5703,-5.5703,-5.5703,-5.5703,-5.5703,-5.5703,-6.1395,-6.1527,-6.1654,-6.1471,-6.1432,-6.1306,-6.1025,-6.0987,-6.0987,-6.0987,-6.1008,-6.098,-6.098,-6.1039,-6.1049,-6.1049,-6.1051,-6.1032,-6.1032,-6.1099,-6.1118,-6.1118,-6.1118,-6.1118,-6.1118,-6.1118,-6.1118,-6.1118,-6.1118,-6.1118,-6.1079,-5.9687,-5.8874,-5.8535,-5.7095,-5.6274,-5.6003,-5.598,-5.5991,-5.5943,-5.5827,-5.5766,-5.5745,-5.5885,-5.5905,-5.5895,-5.5971,-5.5998,-5.6007,-5.5995,-5.6012,-5.6012,-5.6012,-5.6012,-5.6012,-5.6012,-5.6012,-5.6012,-5.6012,-5.6012,-5.6012,-5.6012,-5.6012,-5.6012,-5.6012,-5.6012,-5.6012,-5.6012,-5.6012,-5.6012,-5.6012,-5.6012,-5.6012,-5.6012,-5.6012,-5.6012,0.0,-5.6012,-5.6012,-5.6012,-5.6012,-5.6012,-5.6012,-5.6012,-5.6003,-5.5986,-5.5986,-5.5998,-5.5933,-5.5895,-5.5855,-5.5766,-5.5649,-5.5626,-5.5703,-5.5626,-5.5626,-5.5703,-5.5703,-5.5703,-5.5703,-5.5703,-5.5703,-5.5703,-5.5703,-5.5703,-5.5703,-5.5703,-5.5703,-5.5703,-5.5703,-5.5703,-5.5703,-5.5703,-5.5703,-5.5703,-6.0877,-6.0816,-6.0816,-6.0944,-6.0944,-6.0933,-6.0933,-6.0933,-6.0933,-6.0933,-6.0955,-6.0965,-6.0965,-6.0976,-6.0987,-6.0987,-6.099,-6.0982,-6.1002,-6.1032,-6.1099,-6.1118,-6.1118,-6.1118,-6.1118,-6.1118,-6.1118,-6.1118,-6.1118,-6.1118,0.0,0.0,0.0,-5.8535,-5.7095,-5.6274,-5.6003,-5.598,-5.5952,-5.5943,-5.5807,-5.5745,-5.5714,-5.5787,-5.5797,-5.5807,-5.5943,-5.6018,-5.598,-5.5995,-5.6012,-5.6012,-5.6012,-5.6012,-5.6012,-5.6012,-5.6012,-5.6012,-5.6012,-5.6012,-5.6012,-5.6012,-5.6012,-5.6012,-5.6012,-5.6012,-5.6012,-5.6012,-5.6012,-5.6012,-5.6012,-5.6012,-5.6012,-5.6012,-5.6012,-5.6012,0.0,-5.6012,-5.6012,-5.6012,-5.6012,-5.6012,-5.6012,-5.6012,-5.6012,-5.6012,-5.6012,-5.5986,-5.6018,-5.5924,-5.5875,-5.5797,-5.5735,-5.5703,-5.5703,-5.5703,-5.5703,-5.5703,-5.5703,-5.5703,-5.5703,-5.5703,-5.5703,-5.5703,-5.5703,-5.5703,-5.5703,-5.5703,-5.5703,-5.5703,-5.5703,-5.5703,-5.5703,-5.5703,-5.5703,-5.5703,-6.0781,-6.0781,-6.0804,-6.09,-6.0816,-6.0781,-6.0781,-6.0781,-6.0781,-6.0781,-6.0877,-6.0911,-6.0911,-6.0955,-6.0987,-6.0987,-6.0987,-6.1008,-6.0992,-6.1002,-6.1022,-6.107,-6.1118,-6.1118,-6.1118,-6.1118,-6.1118,-6.1118,-6.1118,-6.1118,0.0,0.0,0.0,0.0,-5.7714,-5.6854,-5.6033,-5.5943,-5.5895,-5.5885,-5.5745,-5.5703,-5.5703,-5.5703,-5.5745,-5.5797,-5.5933,-5.6009,-5.6018,-5.5986,-5.6003,-5.6012,-5.6012,-5.6012,-5.6012,-5.6012,-5.6012,-5.6012,-5.6012,-5.6012,-5.6012,-5.6012,-5.6012,-5.6012,-5.6012,-5.6012,-5.6012,-5.6012,-5.6012,-5.6012,-5.6012,-5.6012,-5.6012,-5.6012,-5.6012,-5.6012,-5.6012,-5.6012,-5.6012,-5.6012,-5.6012,-5.6012,-5.6012,-5.6012,-5.6012,-5.6012,-5.6012,-5.5986,-5.598,-5.5933,-5.5885,-5.5797,-5.5745,-5.5714,-5.5703,-5.5703,-5.5703,-5.5703,-5.5703,-5.5703,-5.5703,-5.5703,-5.5703,-5.5703,-5.5703,-5.5703,-5.5703,-5.5703,-5.5703,-5.5703,-5.5703,-5.5703,-5.5703,-5.5703,-5.5703,-5.5703,-6.0781,-6.0781,-6.0831,-6.0804,-6.0793,-6.0781,-6.0781,-6.0781,-6.0781,-6.0781,-6.0793,-6.0843,-6.0843,-6.0816,-6.0866,-6.0866,-6.0911,-6.0933,-6.0916,-6.0962,-6.1012,-6.1022,-6.106,-6.1118,-6.1118,-6.1118,-6.1118,-6.1118,-6.1118,-6.1118,-6.1079,0.0,0.0,0.0,-5.7985,-5.7146,-5.6848,-5.6194,-5.5855,-5.5745,-5.5714,-5.5703,-5.5703,-5.5703,-5.5714,-5.5735,-5.5807,-5.5895,-5.5924,-5.598,-5.6016,-5.6012,-5.6012,-5.6012,-5.6012,-5.6012,-5.6012,-5.6012,-5.6012,-5.6012,-5.6012,-5.6012,-5.6012,-5.6012,-5.6012,-5.6012,-5.6012,-5.6012,-5.6012,-5.6012,-5.6012,-5.6012,-5.6012,-5.6012,-5.6012,-5.6012,-5.6012,-5.6012,-5.6012,-5.6012,-5.6012,-5.6012,-5.6012,-5.6012,-5.6012,-5.6012,-5.6012,-5.6003,-5.5995,-5.598,-5.5933,-5.5885,-5.5797,-5.5756,-5.5703,-5.5703,-5.5703,-5.5703,-5.5703,-5.5703,-5.5703,-5.5703,-5.5703,-5.5703,-5.5703,-5.5703,-5.5703,-5.5703,-5.5703,-5.5703,-5.5703,-5.5703,-5.5703,-5.5703,-5.5703,-5.5703,-6.0781,-6.0781,-6.0781,-6.0781,-6.0781,-6.0781,-6.0781,-6.0781,-6.0781,-6.0781,-6.0781,-6.0781,-6.0781,-6.0781,-6.0781,-6.0781,-6.0816,-6.0877,-6.0911,-6.0938,-6.098,-6.1,-6.106,-6.1051,-6.1051,-6.1109,-6.1118,-6.1118,-6.1118,-6.1118,-6.1079,0.0,0.0,0.0,-5.8874,-5.7996,-5.7139,-5.6252,-5.5787,-5.5703,-5.5703,-5.5703,0.0,-5.5703,-5.5703,-5.5714,-5.5745,-5.5787,-5.5875,-5.5924,-5.5961,-5.5941,-5.5941,-5.5998,-5.6016,-5.6016,-5.5995,-5.6012,-5.6012,-5.6012,-5.6012,-5.6012,-5.6012,-5.6012,-5.6012,-5.6012,-5.6012,-5.6012,-5.6012,-5.6012,-5.6012,-5.6012,-5.6012,-5.6012,-5.6012,-5.6012,-5.6012,-5.6012,-5.6012,-5.6012,-5.6012,-5.6012,-5.6012,-5.6012,-5.6012,-5.6012,-5.6012,-5.6012,-5.6012,-5.5998,-5.5952,-5.5895,-5.5875,-5.5787,-5.5703,-5.5735,-5.5735,-5.5703,-5.5703,-5.5703,-5.5703,-5.5703,-5.5703,-5.5703,-5.5703,-5.5703,-5.5703,-5.5703,-5.5703,-5.5703,-5.5703,-5.5703,-5.5703,-5.5703,-5.5703,-5.5703,-6.0781,-6.0781,-6.0781,-6.0781,-6.0781,-6.0781,-6.0781,-6.0781,-6.0781,-6.0781,-6.0781,-6.0781,-6.0781,-6.0781,-6.0781,-6.0781,-6.0781,-6.0804,-6.09,-6.0911,-6.0933,-6.0976,-6.1,-6.0992,-6.1002,-6.1051,-6.107,-6.1118,-6.1118,-6.1118,0.0,0.0,0.0,0.0,0.0,-5.8876,-5.712,-5.6328,-5.5871,-5.5703,-5.5703,-5.5703,-5.5703,-5.5703,-5.5703,-5.5703,-5.5703,-5.5745,-5.5797,-5.5875,-5.5895,-5.5895,-5.5895,-5.5933,-5.6,-5.6,-5.5998,-5.5986,-5.5986,-5.5995,-5.5995,-5.5995,-5.6003,-5.6012,-5.6012,-5.6012,-5.6012,-5.6012,-5.6012,-5.6012,-5.6012,-5.6012,-5.6012,-5.6012,-5.6012,-5.6012,-5.6012,-5.6012,-5.6012,-5.6012,-5.6012,0.0,-5.6012,-5.6012,-5.6012,-5.6012,-5.6012,-5.6012,-5.6012,-5.6007,-5.5961,-5.5914,-5.5905,-5.5865,-5.5724,-5.5776,-5.5766,-5.5714,-5.5714,-5.5703,-5.5703,-5.5703,-5.5703,-5.5703,-5.5703,-5.5703,-5.5703,-5.5703,-5.5703,-5.5703,-5.5703,-5.5703,-5.5703,-5.5703,-5.5703,-5.5703,-6.0781,-6.0781,-6.0781,-6.0781,-6.0781,-6.0781,-6.0781,-6.0781,-6.0781,-6.0781,-6.0781,-6.0781,-6.0781,-6.0781,-6.0781,-6.0781,-6.0781,-6.0793,-6.0843,-6.0888,-6.0911,-6.0922,-6.0976,-6.099,-6.1002,-6.1012,-6.1041,-6.1118,-6.1118,-6.1118,-6.1118,0.0,0.0,0.0,0.0,-5.88,-5.7117,-5.6862,-5.6368,-5.5703,-5.5703,-5.5703,-5.5703,-5.5703,-5.5703,-5.5703,-5.5703,-5.5745,-5.5797,-5.5797,-5.5865,-5.5895,-5.5895,-5.5905,-5.5914,-5.5914,-5.5914,-5.5924,-5.5924,-5.5952,-5.5989,-5.5989,-5.6016,-5.6012,-5.6012,-5.6012,-5.6012,-5.6012,-5.6012,-5.6012,-5.6012,-5.6012,-5.6012,-5.6012,-5.6012,-5.6012,-5.6012,-5.6012,-5.6012,-5.6012,-5.6012,-5.6012,-5.6012,-5.6012,-5.6012,-5.6012,-5.6012,-5.6012,-5.6012,-5.6003,-5.5977,-5.5961,-5.5961,-5.5933,-5.5875,-5.5807,-5.5787,-5.5776,-5.5735,-5.5703,-5.5703,-5.5703,-5.5703,-5.5703,-5.5703,-5.5703,-5.5703,-5.5703,-5.5703,-5.5703,-5.5703,-5.5703,-5.5703,-5.5703,-5.5703,-5.5703,-6.0781,-6.0781,-6.0781,-6.0781,-6.0781,-6.0781,-6.0781,-6.0781,-6.0781,-6.0781,-6.0781,-6.0781,-6.0781,-6.0781,-6.0781,-6.0781,-6.0781,-6.0781,-6.0781,-6.0816,-6.0866,-6.0866,-6.0922,-6.0965,-6.0959,-6.098,-6.1021,-6.1041,-6.1041,-6.1051,-6.1118,-6.1118,-6.1118,-6.107,0.0,-5.9282,-5.8371,-5.7401,-5.6753,-5.6329,-5.5857,-5.5703,-5.5703,-5.5703,-5.5703,-5.5703,-5.5703,-5.5724,-5.5745,-5.5745,-5.5766,-5.5787,-5.5787,-5.5807,-5.5865,-5.5865,-5.5875,-5.5895,-5.5895,-5.5914,-5.5943,-5.6009,-5.5989,-5.6016,-5.6003,-5.6012,-5.6012,-5.6012,-5.6012,-5.6012,-5.6012,-5.6012,-5.6012,-5.6012,-5.6012,-5.6012,-5.6012,-5.6012,-5.6012,-5.6012,-5.6012,-5.6012,-5.6012,-5.6012,-5.6012,-5.6012,-5.6012,-5.6012,-5.6012,-5.6012,-5.5986,-5.6018,-5.5998,-5.5971,-5.5865,-5.5865,-5.5797,-5.5745,-5.5724,-5.5703,-5.5703,-5.5703,-5.5703,-5.5703,-5.5703,-5.5703,-5.5703,-5.5703,-5.5703,-5.5703,-5.5703,-5.5703,-5.5703,-5.5703,-5.5703,-5.5703,-6.0781,-6.0781,-6.0781,-6.0781,-6.0781,-6.0781,-6.0781,-6.0781,-6.0781,-6.0781,-6.0781,-6.0781,-6.0781,-6.0781,-6.0781,-6.0781,-6.0781,-6.0781,-6.0781,-6.0781,-6.0781,-6.0781,-6.0866,-6.09,-6.0911,-6.0955,-6.1008,-6.0982,-6.0982,-6.0935,-6.0819,-6.0983,-6.106,-6.106,-6.0315,-5.9878,-5.9588,-5.8143,-5.733,-5.6945,-5.6252,-5.5857,-5.5703,-5.5703,-5.5703,-5.5703,-5.5703,-5.5703,-5.5703,-5.5703,-5.5703,-5.5703,-5.5703,-5.5735,-5.5776,-5.5776,-5.5835,-5.5865,-5.5865,-5.5875,-5.5895,-5.5933,-5.5961,-5.5989,-5.5986,-5.6003,-5.6012,-5.6012,-5.6012,-5.6012,-5.6012,-5.6012,-5.6012,-5.6012,-5.6012,-5.6012,-5.6012,-5.6012,-5.6012,-5.6012,-5.6012,-5.6012,-5.6012,-5.6012,-5.6012,-5.6012,-5.6012,-5.6012,-5.6012,-5.6012,-5.5995,-5.5989,-5.5986,-5.595,-5.5827,-5.5885,-5.5855,-5.5724,-5.5714,-5.5703,-5.5703,-5.5703,-5.5703,-5.5703,-5.5703,-5.5703,-5.5703,-5.5703,-5.5703,-5.5703,-5.5703,-5.5703,-5.5703,-5.5703,-5.5703,-5.5703,-6.0781,-6.0781,-6.0781,-6.0781,-6.0781,-6.0781,-6.0781,-6.0781,-6.0781,-6.0781,-6.0781,-6.0781,-6.0781,-6.0781,-6.0781,-6.0781,-6.0781,-6.0781,-6.0781,-6.0781,-6.0781,-6.0781,-6.0831,-6.0854,-6.0911,-6.0911,-6.0944,-6.0997,-6.0997,-6.0583,-5.986,-6.0644,-6.1012,-6.1012,-6.0902,-6.0426,-5.9601,-5.9342,-5.8396,-5.6983,-5.6907,-5.6406,-5.5703,-5.5703,-5.5703,-5.5703,-5.5703,-5.5703,-5.5703,-5.5703,-5.5703,-5.5703,-5.5703,-5.5714,-5.5714,-5.5714,-5.5714,-5.5724,-5.5724,-5.5756,-5.5797,-5.5807,-5.5914,-5.6018,-5.598,-5.6016,-5.6012,-5.6012,-5.6012,-5.6012,-5.6012,-5.6012,-5.6012,-5.6012,-5.6012,-5.6012,-5.6012,-5.6012,-5.6012,-5.6012,-5.6012,-5.6012,-5.6012,-5.6012,-5.6012,-5.6012,-5.6012,-5.6012,-5.6012,-5.6012,-5.6003,-5.6003,-5.6003,-5.5977,-5.5961,-5.5924,-5.5875,-5.5787,-5.5735,-5.5703,-5.5703,-5.5703,-5.5703,-5.5703,-5.5703,-5.5703,-5.5703,-5.5703,-5.5703,-5.5703,-5.5703,-5.5703,-5.5703,-5.5703,-5.5703,-5.5703,-6.0781,-6.0781,-6.0781,-6.0781,-6.0781,-6.0781,-6.0781,-6.0781,-6.0781,-6.0781,-6.0781,-6.0781,-6.0781,-6.0781,-6.0781,-6.0781,-6.0781,-6.0781,-6.0781,-6.0781,-6.0781,-6.0781,-6.0781,-6.0793,-6.0854,-6.0854,-6.0888,-6.0944,-6.0944,-6.0773,-6.0496,-6.0828,-6.1002,-6.1002,-6.0948,-6.074,-6.0322,-5.9765,-5.9127,-5.8396,-5.7407,-5.6791,-5.6406,-5.5895,-5.5703,-5.5703,-5.5703,-5.5703,-5.5703,-5.5703,-5.5703,-5.5703,-5.5703,-5.5703,-5.5703,-5.5703,-5.5703,-5.5703,-5.5703,-5.5724,-5.5745,-5.5787,-5.5827,-5.5905,-5.5961,-5.5989,-5.6016,-5.6003,-5.6012,-5.6012,-5.6012,-5.6012,-5.6012,-5.6012,-5.6012,-5.6012,-5.6012,-5.6012,-5.6012,-5.6012,-5.6012,-5.6012,-5.6012,-5.6012,-5.6012,-5.6012,-5.6012,-5.6012,-5.6012,-5.6012,-5.6012,-5.6012,-5.6016,-5.598,-5.5933,-5.5885,-5.5797,-5.5745,-5.5714,-5.5703,-5.5703,-5.5703,-5.5703,-5.5703,-5.5703,-5.5703,-5.5703,-5.5703,-5.5703,-5.5703,-5.5703,-5.5703,-5.5703,-5.5703,-5.5703,-5.5703,-6.0781,-6.0781,-6.0781,-6.0781,-6.0781,-6.0781,-6.0781,-6.0781,-6.0781,-6.0781,-6.0781,-6.0781,-6.0781,-6.0781,-6.0781,-6.0781,-6.0781,-6.0781,-6.0781,-6.0781,-6.0781,-6.0781,-6.0781,-6.0781,-6.0781,-6.0781,-6.0804,-6.0888,-6.0888,-6.0745,-6.0558,-6.0583,-6.073,-6.101,-6.0916,-6.0911,-6.0861,-6.015,-5.9742,-5.9396,-5.8204,-5.7599,-5.728,-5.6395,-5.6088,-5.6049,-5.578,-5.5703,-5.5703,-5.5703,-5.5714,-5.5735,-5.5714,-5.5714,-5.5724,-5.5714,-5.5703,-5.5703,-5.5703,-5.5703,-5.5714,-5.5756,-5.5776,-5.5817,-5.5933,-5.6,-5.5989,-5.5995,-5.6012,-5.6012,-5.6012,-5.6012,-5.6012,-5.6012,-5.6012,-5.6012,-5.6012,-5.6012,-5.6012,-5.6012,-5.6012,-5.6012,-5.6012,-5.6012,-5.6012,-5.6012,-5.6012,-5.6012,-5.6012,-5.6012,-5.6003,-5.5986,-5.5989,-5.5943,-5.5875,-5.5807,-5.5766,-5.5703,-5.5703,-5.5703,-5.5703,-5.5703,-5.5703,-5.5703,-5.5703,-5.5703,-5.5703,-5.5703,-5.5703,-5.5703,-5.5703,-5.5703,-5.5703,-5.5703,-5.5703,-5.5703,-6.0781,-6.0781,-6.0781,-6.0781,-6.0781,-6.0781,-6.0781,-6.0781,-6.0781,-6.0781,-6.0781,-6.0781,-6.0781,-6.0781,-6.0781,-6.0781,-6.0781,-6.0781,-6.0781,-6.0781,-6.0781,-6.0781,-6.0781,-6.0781,-6.0781,-6.0781,-6.0781,-6.0781,-6.0781,-6.0358,-5.9511,-5.9568,-6.0096,-6.0987,-6.0933,-6.0911,-6.0911,-6.0804,-6.0281,-5.9511,-5.9473,-5.8973,-5.8204,-5.733,-5.6983,-5.6868,-5.6011,-5.5703,-5.5703,-5.5703,-5.5745,-5.5787,-5.5724,-5.5745,-5.5776,-5.5724,-5.5703,-5.5703,-5.5703,-5.5703,-5.5703,-5.5703,-5.5756,-5.5807,-5.5885,-5.5943,-5.5989,-5.5995,-5.6012,-5.6012,-5.6012,-5.6012,-5.6012,-5.6012,-5.6012,-5.6012,-5.6012,-5.6012,-5.6012,-5.6012,-5.6012,-5.6012,-5.6012,-5.6012,-5.6012,-5.6012,-5.6012,-5.6012,-5.6012,-5.6012,-5.5986,-5.6018,-5.6018,-5.5933,-5.5797,-5.5797,-5.5766,-5.5703,-5.5703,-5.5703,-5.5703,-5.5703,-5.5703,-5.5703,-5.5703,-5.5703,-5.5703,-5.5703,-5.5703,-5.5703,-5.5703,-5.5703,-5.5703,-5.5703,-5.5703,-5.5703,-6.0781,-6.0781,-6.0781,-6.0781,-6.0781,-6.0781,-6.0781,-6.0781,-6.0781,-6.0781,-6.0781,-6.0781,-6.0781,-6.0781,-6.0781,-6.0781,-6.0781,-6.0781,-6.0781,-6.0781,-6.0781,-6.0781,-6.0781,-6.0781,-6.0781,-6.0781,-6.0781,-6.0781,-6.0781,-6.0689,-6.0453,-6.0431,-6.0607,-6.0933,-6.0877,-6.0816,-6.0816,-6.0793,-6.0627,-6.0319,-5.9742,-5.9358,-5.905,-5.8204,-5.7896,-5.778,-5.6907,-5.6599,-5.6522,-5.5895,-5.5766,-5.5865,-5.5776,-5.5797,-5.5865,-5.5776,-5.5766,-5.5756,-5.5714,-5.5703,-5.5703,-5.5703,-5.5724,-5.5745,-5.5807,-5.5885,-5.5943,-5.5995,-5.5986,-5.6007,-5.6003,-5.6012,-5.6012,-5.6012,-5.6012,-5.6012,-5.6012,-5.6012,-5.6012,-5.6012,-5.6012,-5.6012,-5.6012,-5.6012,-5.6012,-5.6012,-5.6012,-5.6012,-5.6012,-5.6012,-5.6003,-5.5986,-5.5961,-5.5905,-5.5875,-5.5766,-5.5724,-5.5703,-5.5703,-5.5703,-5.5703,-5.5703,-5.5703,-5.5703,-5.5703,-5.5703,-5.5703,-5.5703,-5.5703,-5.5703,-5.5703,-5.5703,-5.5703,-5.5703,-5.5703,-5.5703,-6.0781,-6.0781,-6.0781,-6.0781,-6.0781,-6.0781,-6.0781,-6.0781,-6.0781,-6.0781,-6.0781,-6.0781,-6.0781,-6.0781,-6.0781,-6.0781,-6.0781,-6.0781,-6.0781,-6.0781,-6.0781,-6.0781,-6.0781,-6.0781,-6.0781,-6.0781,-6.0781,-6.0781,-6.0781,-6.0804,-6.0877,-6.0804,-6.0804,-6.0877,-6.0843,-6.0781,-6.0781,-6.0781,-6.0781,-6.0742,-6.0204,-5.9973,-5.9896,-5.9088,-5.8742,-5.8627,-5.778,-5.7291,-5.6907,-5.6379,-5.6046,-5.5875,-5.5885,-5.5905,-5.5914,-5.5875,-5.5807,-5.5787,-5.5745,-5.5724,-5.5703,-5.5703,-5.5703,-5.5724,-5.5776,-5.5885,-5.5943,-5.5941,-5.5998,-5.6007,-5.6016,-5.5995,-5.6012,-5.6012,-5.6012,-5.6012,-5.6012,-5.6012,-5.6012,-5.6012,-5.6012,-5.6012,-5.6012,-5.6012,-5.6012,-5.6012,-5.6012,-5.6012,-5.6012,-5.5995,-5.5977,-5.595,-5.5914,-5.5865,-5.5845,-5.5735,-5.5703,-5.5703,-5.5703,-5.5703,-5.5703,-5.5703,-5.5703,-5.5703,-5.5703,-5.5703,-5.5703,-5.5703,-5.5703,-5.5703,-5.5703,-5.5703,-5.5703,-5.5703,-5.5703,-5.5703,-6.0781,-6.0781,-6.0781,-6.0781,-6.0781,-6.0781,-6.0781,-6.0781,-6.0781,-6.0781,-6.0781,-6.0781,-6.0781,-6.0781,-6.0781,-6.0781,-6.0781,-6.0781,-6.0781,-6.0781,-6.0781,-6.0781,-6.0781,-6.0781,-6.0781,-6.0781,-6.0781,-6.0781,-6.0781,-6.0781,-6.0781,-6.0781,-6.0781,-6.0781,-6.0781,-6.0781,-6.0781,-6.0781,-6.0781,-6.0781,-6.0781,-6.0781,-6.0704,-5.9896,-5.9588,-5.9473,-5.8665,-5.7857,-5.7176,-5.718,-5.6596,-5.5933,-5.6058,-5.6048,-5.6009,-5.5914,-5.5875,-5.5797,-5.5797,-5.5756,-5.5714,-5.5714,-5.5714,-5.5724,-5.5787,-5.5905,-5.5952,-5.5914,-5.5941,-5.5986,-5.5989,-5.6016,-5.6012,-5.6012,-5.6012,-5.6012,-5.6012,-5.6012,-5.6012,-5.6012,-5.6012,-5.6012,-5.6012,-5.6012,-5.6012,-5.6012,-5.6012,-5.6012,-5.6012,-5.5998,-5.5991,-5.5905,-5.5817,-5.5766,-5.5714,-5.5714,-5.5703,-5.5703,-5.5703,-5.5703,-5.5703,-5.5703,-5.5703,-5.5703,-5.5703,-5.5703,-5.5703,-5.5703,-5.5703,-5.5703,-5.5703,-5.5703,-5.5703,-5.5703,-5.5703,-5.5703,-6.0781,-6.0781,-6.0781,-6.0781,-6.0781,-6.0781,-6.0781,-6.0781,-6.0781,-6.0781,-6.0781,-6.0781,-6.0781,-6.0781,-6.0781,-6.0781,-6.0781,-6.0781,-6.0781,-6.0781,-6.0781,-6.0781,-6.0781,-6.0781,-6.0781,-6.0781,-6.0781,-6.0781,-6.0781,-6.0781,-6.0781,-6.0781,-6.0781,-6.0781,-6.0781,-6.0781,-6.0781,-6.0781,-6.0781,-6.0781,-6.0781,-6.0781,-6.0781,-6.055,-6.0473,-6.0396,-5.9511,-5.9088,-5.8819,-5.8215,-5.751,-5.6849,-5.6917,-5.6473,-5.5986,-5.5971,-5.5924,-5.5885,-5.5885,-5.5845,-5.5776,-5.5855,-5.5797,-5.5787,-5.5875,-5.5807,-5.5807,-5.595,-5.5932,-5.5952,-5.5977,-5.6003,-5.6012,-5.6012,-5.6012,-5.6012,-5.6012,-5.6012,-5.6012,-5.6012,-5.6012,-5.6012,-5.6012,-5.6012,-5.6012,-5.6012,-5.6012,-5.6012,-5.6012,-5.5961,-5.5933,-5.5991,-5.5905,-5.5817,-5.5776,-5.5724,-5.5703,-5.5703,-5.5703,-5.5703,-5.5703,-5.5703,-5.5703,-5.5703,-5.5703,-5.5703,-5.5703,-5.5703,-5.5703,-5.5703,-5.5703,-5.5703,-5.5703,-5.5703,-5.5703,-5.5703,-6.0781,-6.0781,-6.0781,-6.0781,-6.0781,-6.0781,-6.0781,-6.0781,-6.0781,-6.0781,-6.0781,-6.0781,-6.0781,-6.0781,-6.0781,-6.0781,-6.0781,-6.0781,-6.0781,-6.0781,-6.0781,-6.0781,-6.0781,-6.0781,-6.0781,-6.0781,-6.0781,-6.0781,-6.0781,-6.0781,-6.0781,-6.0781,-6.0781,-6.0781,-6.0781,-6.0781,-6.0781,-6.0781,-6.0781,-6.0781,-6.0781,-6.0781,-6.0781,-6.0781,-6.0781,-6.0742,-6.0242,-5.9881,-5.9469,-5.9045,-5.8379,-5.7756,-5.7776,-5.7207,-5.6557,-5.6587,-5.628,-5.5933,-5.5933,-5.5895,-5.5865,-5.5895,-5.5875,-5.5865,-5.5895,-5.5875,-5.5837,-5.5923,-5.5932,-5.598,-5.6007,-5.5995,-5.6012,-5.6012,-5.6012,-5.6012,-5.6012,-5.6012,-5.6012,-5.6012,-5.6012,-5.6003,-5.6016,-5.5995,-5.5995,-5.6016,-5.5995,-5.5995,-5.6016,-5.5961,-5.5933,-5.5943,-5.5865,-5.5776,-5.5756,-5.5724,-5.5703,-5.5703,-5.5703,-5.5703,-5.5703,-5.5703,-5.5703,-5.5703,-5.5703,-5.5703,-5.5703,-5.5703,-5.5703,-5.5703,-5.5703,-5.5703,-5.5703,-5.5703,-5.5703,-5.5703,-6.0781,-6.0781,-6.0781,-6.0781,-6.0781,-6.0781,-6.0781,-6.0781,-6.0781,-6.0781,-6.0781,-6.0781,-6.0781,-6.0781,-6.0781,-6.0781,-6.0781,-6.0781,-6.0781,-6.0781,-6.0781,-6.0781,-6.0781,-6.0781,-6.0781,-6.0781,-6.0781,-6.0781,-6.0781,-6.0781,-6.0781,-6.0781,-6.0781,-6.0781,-6.0781,-6.0781,-6.0781,-6.0781,-6.0781,-6.0781,-6.0781,-6.0781,-6.0781,-6.0781,-6.0781,-6.0781,-6.0781,-6.0354,-5.9793,-5.9793,-5.9258,-5.8635,-5.8665,-5.8114,-5.7398,-5.7309,-5.6789,-5.6182,-5.6027,-5.5952,-5.5924,-5.5914,-5.5914,-5.5914,-5.5914,-5.5933,-5.5952,-5.5924,-5.5941,-5.5986,-5.5989,-5.5977,-5.6012,-5.6012,-5.6012,-5.6012,-5.6012,-5.6012,-5.6012,-5.6012,-5.6012,-5.5986,-5.6018,-5.6016,-5.6016,-5.6009,-5.5959,-5.5968,-5.5961,-5.6,-5.5933,-5.5885,-5.5766,-5.5714,-5.5703,-5.5703,-5.5703,-5.5703,-5.5703,-5.5703,-5.5703,-5.5703,-5.5703,-5.5703,-5.5703,-5.5703,-5.5703,-5.5703,-5.5703,-5.5703,-5.5703,-5.5703,-5.5703,-5.5703,-5.5703,-5.5703,-6.0781,-6.0781,-6.0781,-6.0781,-6.0781,-6.0781,-6.0781,-6.0781,-6.0781,-6.0781,-6.0781,-6.0781,-6.0781,-6.0781,-6.0781,-6.0781,-6.0781,-6.0781,-6.0781,-6.0781,-6.0781,-6.0781,-6.0781,-6.0781,-6.0781,-6.0781,-6.0781,-6.0781,-6.0781,-6.0781,-6.0781,-6.0781,-6.0781,-6.0781,-6.0781,-6.0781,-6.0781,-6.0781,-6.0781,-6.0781,-6.0781,-6.0781,-6.0781,-6.0781,-6.0781,-6.0781,-6.0781,-6.075,-6.0718,-6.0718,-6.0215,-5.9563,-5.9573,-5.9031,-5.8247,-5.7512,-5.7202,-5.6923,-5.6188,-5.5995,-5.5977,-5.5971,-5.5961,-5.5961,-5.5961,-5.5933,-5.5933,-5.5968,-5.6007,-5.5998,-5.5995,-5.6003,-5.6012,-5.6012,-5.6012,-5.6012,-5.6012,-5.6012,-5.6012,-5.6012,-5.6012,-5.5986,-5.6018,-5.598,-5.5961,-5.5914,-5.5914,-5.5914,-5.5914,-5.5875,-5.5817,-5.5807,-5.5787,-5.5756,-5.5703,-5.5703,-5.5703,-5.5703,-5.5703,-5.5703,-5.5703,-5.5703,-5.5703,-5.5703,-5.5703,-5.5703,-5.5703,-5.5703,-5.5703,-5.5703,-5.5703,-5.5703,-5.5703,-5.5703,-5.5703,-5.5703,-6.0781,-6.0781,-6.0781,-6.0781,-6.0781,-6.0781,-6.0781,-6.0781,-6.0781,-6.0781,-6.0781,-6.0781,-6.0781,-6.0781,-6.0781,-6.0781,-6.0781,-6.0781,-6.0781,-6.0781,-6.0781,-6.0781,-6.0781,-6.0781,-6.0781,-6.0781,-6.0781,-6.0781,-6.0781,-6.0781,-6.0781,-6.0781,-6.0781,-6.0781,-6.0781,-6.0781,-6.0781,-6.0781,-6.0781,-6.0781,-6.0781,-6.0781,-6.0781,-6.0781,-6.0781,-6.0781,-6.0781,-6.0877,-6.0955,-6.0922,-6.0738,-6.05,-6.0471,-5.992,-5.9223,-5.8836,-5.7714,-5.6506,-5.6119,-5.6012,-5.6003,-5.5977,-5.6016,-5.6016,-5.6016,-5.5998,-5.595,-5.5995,-5.5995,-5.5986,-5.6003,-5.6012,-5.6012,-5.6012,-5.6012,-5.6012,-5.6012,-5.6012,-5.6012,-5.6012,-5.6012,-5.5986,-5.6018,-5.6018,-5.5952,-5.5905,-5.5895,-5.5885,-5.5865,-5.5807,-5.5776,-5.5745,-5.5745,-5.5735,-5.5703,-5.5703,-5.5703,-5.5703,-5.5703,-5.5703,-5.5703,-5.5703,-5.5703,-5.5703,-5.5703,-5.5703,-5.5703,-5.5703,-5.5703,-5.5703,-5.5703,-5.5703,-5.5703,-5.5703,-5.5703,-5.5703,-6.0781,-6.0781,-6.0781,-6.0781,-6.0781,-6.0781,-6.0781,-6.0781,-6.0781,-6.0781,-6.0781,-6.0781,-6.0781,-6.0781,-6.0781,-6.0781,-6.0781,-6.0781,-6.0781,-6.0781,-6.0781,-6.0781,-6.0781,-6.0781,-6.0781,-6.0781,-6.0781,-6.0781,-6.0781,-6.0781,-6.0781,-6.0781,-6.0781,-6.0781,-6.0781,-6.0781,-6.0781,-6.0781,-6.0781,-6.0781,-6.0781,-6.0781,-6.0781,-6.0781,-6.0781,-6.0781,-6.0781,-6.09,-6.0987,-6.0944,-6.099,-6.107,-6.1032,-6.0626,-6.0151,-5.9957,-5.8333,-5.6553,-5.636,-5.6158,-5.6012,-5.6012,-5.6012,-5.6012,-5.6012,-5.6012,-5.6012,-5.6012,-5.6012,-5.6012,-5.6012,-5.6012,-5.6012,-5.6012,-5.6012,-5.6012,-5.6012,-5.6012,-5.6012,-5.6012,-5.5995,-5.6016,-5.6018,-5.6,-5.5933,-5.5885,-5.5885,-5.5865,-5.5776,-5.5776,-5.5756,-5.5703,-5.5703,-5.5703,-5.5703,-5.5703,-5.5703,-5.5703,-5.5703,-5.5703,-5.5703,-5.5703,-5.5703,-5.5703,-5.5703,-5.5703,-5.5703,-5.5703,-5.5703,-5.5703,-5.5703,-5.5703,-5.5703,-5.5703,-5.5703,-5.5703,-6.0781,-6.0781,-6.0781,-6.0781,-6.0781,-6.0781,-6.0781,-6.0781,-6.0781,-6.0781,-6.0781,-6.0781,-6.0781,-6.0781,-6.0781,-6.0781,-6.0781,-6.0781,-6.0781,-6.0781,-6.0781,-6.0781,-6.0781,-6.0781,-6.0781,-6.0781,-6.0781,-6.0781,-6.0781,-6.0781,-6.0781,-6.0781,-6.0781,-6.0781,-6.0781,-6.0781,-6.0781,-6.0781,-6.0781,-6.0781,-6.0781,-6.0781,-6.0781,-6.0781,-6.0781,-6.0781,-6.0781,-6.09,-6.0987,-6.0987,-6.1021,-6.1118,-6.107,-6.1079,-6.0886,-6.0112,-5.9184,-5.8217,-5.7434,-5.6622,-5.6012,-5.6012,-5.6012,-5.6012,-5.6012,-5.6012,-5.6012,-5.6012,-5.6012,-5.6012,-5.6012,-5.6012,-5.6012,-5.6012,-5.6012,-5.6012,-5.6012,-5.6012,-5.6012,-5.6012,-5.6007,-5.6018,-5.6018,-5.5933,-5.5885,-5.5797,-5.5797,-5.5776,-5.5714,-5.5714,-5.5714,-5.5703,-5.5703,-5.5703,-5.5703,-5.5703,-5.5703,-5.5703,-5.5703,-5.5703,-5.5703,-5.5703,-5.5703,-5.5703,-5.5703,-5.5703,-5.5703,-5.5703,-5.5703,-5.5703,-5.5703,-5.5703,-5.5703,-5.5703,-5.5703,-5.5703,-6.0781,-6.0781,-6.0781,-6.0781,-6.0781,-6.0781,-6.0781,-6.0781,-6.0781,-6.0781,-6.0781,-6.0781,-6.0781,-6.0781,-6.0781,-6.0781,-6.0781,-6.0781,-6.0781,-6.0781,-6.0781,-6.0781,-6.0781,-6.0781,-6.0781,-6.0781,-6.0781,-6.0781,-6.0781,-6.0781,-6.0781,-6.0781,-6.0781,-6.0781,-6.0781,-6.0781,-6.0781,-6.0781,-6.0781,-6.0781,-6.0781,-6.0781,-6.0781,-6.0781,-6.0781,-6.0781,-6.0781,-6.09,-6.0987,-6.0987,-6.1031,-6.1118,-6.1118,-6.1118,-6.1041,-6.0731,-6.0074,-5.9339,-5.899,-5.7869,-5.6815,-5.6815,-5.639,-5.6012,-5.6012,-5.6012,-5.6012,-5.6012,-5.6012,-5.6012,-5.6012,-5.6012,-5.6012,-5.6012,-5.6012,-5.6012,-5.6012,-5.6012,-5.6012,-5.6012,-5.5995,-5.5977,-5.5977,-5.598,-5.5943,-5.5924,-5.5865,-5.5797,-5.5807,-5.5776,-5.5745,-5.5703,-5.5703,-5.5703,-5.5703,-5.5703,-5.5703,-5.5703,-5.5703,-5.5703,-5.5703,-5.5703,-5.5703,-5.5703,-5.5703,-5.5703,-5.5703,-5.5703,-5.5703,-5.5703,-5.5703,-5.5703,-5.5703,-5.5703,-5.5703,-5.5703,-6.1589,-6.1589,-6.1589,-6.1589,-6.1589,-6.1512,-6.1243,-6.1204,-6.1089,-6.0819,-6.0781,-6.0781,-6.0781,-6.0781,-6.0781,-6.0781,-6.0781,-6.0781,-6.0781,-6.0781,-6.0781,-6.0781,-6.0781,-6.0781,-6.0781,-6.0781,-6.0781,-6.0781,-6.0781,-6.0781,-6.0781,-6.0781,-6.0781,-6.0781,-6.0781,-6.0781,-6.0781,-6.0781,-6.0781,-6.0781,-6.0781,-6.0781,-6.0781,-6.0781,-6.0781,-6.0781,-6.0781,-6.09,-6.0987,-6.0987,-6.1031,-6.1118,-6.1118,-6.1118,-6.1118,-6.1118,-6.0692,-6.0267,-6.0267,-5.9223,-5.8062,-5.7791,-5.7056,-5.639,-5.639,-5.6197,-5.6012,-5.6012,-5.6012,-5.6012,-5.6012,-5.6012,-5.6012,-5.6012,-5.6012,-5.6012,-5.6012,-5.6012,-5.6012,-5.6012,-5.5995,-5.5995,-5.6003,-5.6007,-5.6018,-5.6018,-5.5914,-5.5875,-5.5875,-5.5807,-5.5766,-5.5714,-5.5703,-5.5703,-5.5703,-5.5703,-5.5703,-5.5703,-5.5703,-5.5703,-5.5703,-5.5703,-5.5703,-5.5703,-5.5703,-5.5703,-5.5703,-5.5703,-5.5703,-5.5703,-5.5703,-5.5703,-5.5703,-5.5703,-5.5703,-5.5742,-6.3308,-6.3308,-6.3308,-6.3308,-6.3308,-6.3051,-6.2216,-6.2101,-6.1793,-6.0935,-6.0819,-6.0819,-6.0781,-6.0781,-6.0781,-6.0781,-6.0781,-6.0781,-6.0781,-6.0781,-6.0781,-6.0781,-6.0781,-6.0781,-6.0781,-6.0781,-6.0781,-6.0781,-6.0781,-6.0781,-6.0781,-6.0781,-6.0781,-6.0781,-6.0781,-6.0781,-6.0781,-6.0781,-6.0781,-6.0781,-6.0781,-6.0781,-6.0781,-6.0781,-6.0781,-6.0781,-6.0781,-6.09,-6.0987,-6.0987,-6.1031,-6.1118,-6.1118,-6.1118,-6.1118,-6.1118,-6.1118,-6.1118,-6.1118,-6.0538,-5.9687,-5.8845,-5.7946,-5.7318,-5.7318,-5.6622,-5.6012,-5.6012,-5.6012,-5.6012,-5.6012,-5.6012,-5.6012,-5.6012,-5.6012,-5.6012,-5.6012,-5.6012,-5.6012,-5.6012,-5.6007,-5.5998,-5.6003,-5.6007,-5.6018,-5.6018,-5.6018,-5.5933,-5.5797,-5.5797,-5.5766,-5.5714,-5.5703,-5.5703,-5.5703,-5.5703,-5.5703,-5.5703,-5.5703,-5.5703,-5.5703,-5.5703,-5.5703,-5.5703,-5.5703,-5.5703,-5.5703,-5.5703,-5.5703,-5.5703,-5.5703,-5.5703,-5.5703,-5.5703,-5.5703,-5.5818,-6.3308,-6.3308,-6.3308,-6.3308,-6.3308,-6.3243,-6.2974,-6.2935,-6.2666,-6.1831,-6.1716,-6.1485,-6.0858,-6.0781,-6.0781,-6.0781,-6.0781,-6.0781,-6.0781,-6.0781,-6.0781,-6.0781,-6.0781,-6.0781,-6.0781,-6.0781,-6.0781,-6.0781,-6.0781,-6.0781,-6.0781,-6.0781,-6.0781,-6.0781,-6.0781,-6.0781,-6.0781,-6.0781,-6.0781,-6.0781,-6.0781,-6.0781,-6.0781,-6.0781,-6.0781,-6.0781,-6.0781,-6.09,-6.0987,-6.0987,-6.1031,-6.1118,-6.1118,-6.1118,-6.1118,-6.1118,-6.1118,-6.1118,-6.1118,-6.0925,-6.0538,-5.9725,-5.8874,-5.8217,-5.8217,-5.8023,-5.7637,-5.7048,-5.6893,-5.6738,-5.6119,-5.6012,-5.6012,-5.6012,-5.6012,-5.6012,-5.6012,-5.6012,-5.6012,-5.6012,-5.5995,-5.5995,-5.6003,-5.5995,-5.5986,-5.5986,-5.5986,-5.5941,-5.5885,-5.5914,-5.5914,-5.5855,-5.5787,-5.5766,-5.5766,-5.5724,-5.5703,-5.5703,-5.5703,-5.5703,-5.5703,-5.5703,-5.5703,-5.5703,-5.5703,-5.5703,-5.5703,-5.5703,-5.5703,-5.5703,-5.5703,-5.5703,-5.5703,-5.5703,-5.6088,-5.6637,-6.432,-6.432,-6.432,-6.432,-6.432,-6.4205,-6.3858,-6.382,-6.3512,-6.2666,-6.2551,-6.2358,-6.1858,-6.1781,-6.1666,-6.132,-6.1012,-6.0781,-6.0781,-6.0781,-6.0781,-6.0781,-6.0781,-6.0781,-6.0781,-6.0781,-6.0781,-6.0781,-6.0781,-6.0781,-6.0781,-6.0781,-6.0781,-6.0781,-6.0781,-6.0781,-6.0781,-6.0781,-6.0781,-6.0781,-6.0781,-6.0781,-6.0781,-6.0781,-6.0781,-6.0781,-6.0781,-6.09,-6.0987,-6.0987,-6.1031,-6.1118,-6.1118,-6.1118,-6.1118,-6.1118,-6.1118,-6.1118,-6.1118,-6.1118,-6.0963,-6.0499,-5.9725,-5.9106,-5.9106,-5.8845,-5.8449,-5.7907,-5.783,-5.7637,-5.7134,-5.6747,-5.6506,-5.6506,-5.6197,-5.6012,-5.6012,-5.6012,-5.6012,-5.6012,-5.6012,-5.6012,-5.6012,-5.6012,-5.6012,-5.6012,-5.6012,-5.5977,-5.5933,-5.6,-5.5952,-5.5895,-5.5875,-5.5807,-5.5797,-5.5756,-5.5735,-5.5703,-5.5703,-5.5703,-5.5703,-5.5703,-5.5703,-5.5703,-5.5703,-5.5703,-5.5703,-5.5703,-5.5703,-5.5742,-5.6088,-5.6214,-5.6242,-5.6588,-5.7049,-5.755,-6.5897,-6.5897,-6.5897,-6.5897,-6.5897,-6.5628,-6.4859,-6.4705,-6.4397,-6.3538,-6.3423,-6.3397,-6.3308,-6.3308,-6.3012,-6.2293,-6.1473,-6.1012,-6.1012,-6.0973,-6.0935,-6.0935,-6.0819,-6.0781,-6.0781,-6.0781,-6.0781,-6.0781,-6.0781,-6.0781,-6.0781,-6.0781,-6.0781,-6.0781,-6.0781,-6.0781,-6.0781,-6.0781,-6.0781,-6.0781,-6.0781,-6.0781,-6.0781,-6.0781,-6.0781,-6.0781,-6.0781,-6.09,-6.0997,-6.1008,-6.1041,-6.1118,-6.1118,-6.1118,-6.1118,-6.1118,-6.1118,-6.1118,-6.1118,-6.1118,-6.1118,-6.1118,-6.0538,-5.9996,-5.9996,-5.9377,-5.8797,-5.8729,-5.8729,-5.869,-5.8613,-5.7946,-5.7434,-5.7434,-5.6661,-5.6128,-5.6128,-5.6051,-5.6012,-5.6012,-5.6012,-5.6012,-5.6012,-5.6012,-5.6012,-5.6012,-5.6012,-5.5986,-5.598,-5.598,-5.5961,-5.5914,-5.5905,-5.5885,-5.5807,-5.5797,-5.5766,-5.5703,-5.5703,-5.5703,-5.5703,-5.5703,-5.5703,-5.5703,-5.5703,-5.5703,-5.5703,-5.578,-5.5818,-5.5895,-5.6791,-5.7137,-5.7214,-5.8011,-5.8357,-5.8511,-6.5897,-6.5897,-6.5897,-6.5897,-6.5897,-6.582,-6.5628,-6.5628,-6.532,-6.4436,-6.432,-6.4051,-6.3346,-6.3308,-6.3243,-6.3051,-6.2858,-6.2781,-6.2781,-6.2166,-6.1831,-6.1831,-6.1166,-6.0781,-6.0781,-6.0781,-6.0781,-6.0781,-6.0781,-6.0781,-6.0781,-6.0781,-6.0781,-6.0781,-6.0781,-6.0781,-6.0781,-6.0781,-6.0781,-6.0781,-6.0781,-6.0781,-6.0781,-6.0781,-6.0781,-6.0781,-6.0781,-6.09,-6.1008,-6.1051,-6.1099,-6.1118,-6.1118,-6.1118,-6.1118,-6.1118,-6.1118,-6.1118,-6.1118,-6.1118,-6.1118,-6.1118,-6.0963,-6.0847,-6.0847,-6.0692,-6.0383,-5.9764,-5.9609,-5.9416,-5.8729,-5.8449,-5.8333,-5.8333,-5.7598,-5.7009,-5.7009,-5.6429,-5.6012,-5.6012,-5.6012,-5.6012,-5.6012,-5.6012,-5.6012,-5.6012,-5.6012,-5.6003,-5.5995,-5.5995,-5.5986,-5.5977,-5.598,-5.5952,-5.5943,-5.5905,-5.5835,-5.5703,-5.5703,-5.5703,-5.5703,-5.5703,-5.5703,-5.5703,-5.5703,-5.5703,-5.5742,-5.6445,-5.6714,-5.6791,-5.7665,-5.8011,-5.805,-5.8242,-5.8704,-5.9358,-6.5897,-6.5897,-6.5897,-6.5897,-6.5897,-6.5897,-6.5897,-6.5897,-6.5743,-6.5282,-6.5205,-6.5051,-6.4589,-6.4551,-6.4359,-6.3974,-6.3538,-6.3308,-6.3308,-6.2897,-6.2666,-6.2666,-6.2243,-6.1973,-6.1973,-6.1973,-6.1589,-6.0781,-6.0781,-6.0781,-6.0781,-6.0781,-6.0781,-6.0781,-6.0781,-6.0781,-6.0781,-6.0781,-6.0781,-6.0781,-6.0781,-6.0781,-6.0781,-6.0781,-6.0781,-6.0781,-6.0781,-6.09,-6.1008,-6.108,-6.1118,-6.1118,-6.1118,-6.1118,-6.1118,-6.1118,-6.1118,-6.1118,-6.1118,-6.1118,-6.1118,-6.1118,-6.1118,-6.1118,-6.1118,-6.1118,-6.0963,-6.0576,-6.046,-6.0344,-5.988,-5.9493,-5.9223,-5.9223,-5.8488,-5.7907,-5.7907,-5.7521,-5.7095,-5.6661,-5.6622,-5.6467,-5.6051,-5.6012,-5.6012,-5.6012,-5.6012,-5.6012,-5.6012,-5.6012,-5.6012,-5.6012,-5.5986,-5.5998,-5.6018,-5.5991,-5.5885,-5.5745,-5.5745,-5.5735,-5.5703,-5.5703,-5.5703,-5.5703,-5.6126,-5.6329,-5.6406,-5.7242,-5.7627,-5.7703,-5.855,-5.8858,-5.8934,-5.9358,-5.9742,-6.0204,-6.5897,-6.5897,-6.5897,-6.5897,-6.5897,-6.5897,-6.5897,-6.5897,-6.5897,-6.5897,-6.5897,-6.5897,-6.5897,-6.5897,-6.559,-6.4897,-6.4166,-6.3743,-6.3743,-6.3589,-6.3512,-6.3512,-6.3397,-6.3308,-6.3308,-6.3308,-6.2627,-6.1243,-6.1243,-6.1243,-6.1243,-6.1243,-6.1166,-6.1012,-6.1012,-6.0935,-6.0781,-6.0781,-6.0781,-6.0781,-6.0781,-6.0781,-6.0781,-6.0781,-6.0781,-6.0781,-6.0781,-6.09,-6.1008,-6.108,-6.1118,-6.1118,-6.1118,-6.1118,-6.1118,-6.1118,-6.1118,-6.1118,-6.1118,-6.1118,-6.1118,-6.1118,-6.1118,-6.1118,-6.1118,-6.1118,-6.1118,-6.1118,-6.1118,-6.1118,-6.1118,-6.0538,-6.0112,-6.0112,-5.9377,-5.8797,-5.8797,-5.869,-5.8333,-5.7598,-5.7512,-5.7164,-5.6313,-5.6197,-5.6158,-5.6012,-5.6012,-5.6012,-5.6012,-5.6012,-5.6012,-5.6012,-5.6012,-5.5986,-5.5989,-5.5989,-5.5943,-5.5807,-5.5961,-5.592,-5.5703,-5.5857,-5.5934,-5.5972,-5.683,-5.7214,-5.728,-5.8165,-5.8511,-5.8588,-5.9396,-5.9704,-5.9819,-6.0512,-6.0781,-6.0781,-6.5897,-6.5897,-6.5897,-6.5897,-6.5897,-6.5897,-6.5897,-6.5897,-6.5897,-6.5897,-6.5897,-6.5897,-6.5897,-6.5897,-6.5859,-6.5743,-6.5628,-6.5551,-6.5551,-6.4859,-6.4436,-6.4436,-6.3705,-6.3308,-6.3308,-6.3308,-6.3192,-6.2974,-6.2974,-6.2974,-6.2974,-6.2974,-6.2589,-6.1908,-6.1908,-6.1524,-6.0781,-6.0781,-6.0781,-6.0781,-6.0781,-6.0781,-6.0781,-6.0781,-6.0781,-6.0781,-6.0781,-6.09,-6.1008,-6.108,-6.1118,-6.1118,-6.1118,-6.1118,-6.1118,-6.1118,-6.1118,-6.1118,-6.1118,-6.1118,-6.1118,-6.1118,-6.1118,-6.1118,-6.1118,-6.1118,-6.1118,-6.1118,-6.1118,-6.1118,-6.1118,-6.1002,-6.0925,-6.0925,-6.0267,-5.9725,-5.9725,-5.9068,-5.8574,-5.8449,-5.841,-5.8062,-5.7202,-5.7125,-5.6815,-5.6051,-5.6012,-5.6012,-5.6012,-5.6012,-5.6012,-5.6012,-5.6012,-5.6003,-5.5995,-5.5995,-5.595,-5.5885,-5.6656,-5.6539,-5.5742,-5.6483,-5.683,-5.6868,-5.7742,-5.8127,-5.8204,-5.9011,-5.9358,-5.9435,-6.0281,-6.0627,-6.0627,-6.0742,-6.0781,-6.0781,-6.5897,-6.5897,-6.5897,-6.5897,-6.5897,-6.5897,-6.5897,-6.5897,-6.5897,-6.5897,-6.5897,-6.5897,-6.5897,-6.5897,-6.5897,-6.5897,-6.5897,-6.5897,-6.5897,-6.5551,-6.532,-6.532,-6.4974,-6.4743,-6.4743,-6.4743,-6.4743,-6.4743,-6.3782,-6.3308,-6.3308,-6.3308,-6.3128,-6.2781,-6.2781,-6.2551,-6.2204,-6.2204,-6.1935,-6.1524,-6.1524,-6.1243,-6.0781,-6.0781,-6.0781,-6.0793,-6.09,-6.0938,-6.1021,-6.109,-6.1118,-6.1118,-6.1118,-6.1118,-6.1118,-6.1118,-6.1118,-6.1118,-6.1118,-6.1118,-6.1118,-6.1118,-6.1118,-6.1118,-6.1118,-6.1118,-6.1118,-6.1118,-6.1118,-6.1118,-6.1118,-6.1118,-6.1118,-6.1118,-6.0809,-6.0576,-6.0576,-6.0228,-5.9841,-5.9377,-5.8913,-5.8449,-5.8062,-5.8023,-5.7869,-5.7482,-5.7443,-5.7443,-5.7443,-5.7443,-5.7425,-5.7398,-5.7398,-5.7398,-5.7398,-5.7398,-5.7361,-5.7284,-5.7669,-5.7349,-5.6483,-5.7319,-5.7742,-5.778,-5.8627,-5.8973,-5.905,-5.9896,-6.0242,-6.0242,-6.0666,-6.0781,-6.0781,-6.0781,-6.0781,-6.0781]},{"header":{"parameterUnit":"m.s-1","parameterCategory":1,"la1":30.6,"la2":28.766,"lo1":-90.7593,"lo2":-88.6598,"dy":0.0162,"dx":0.0183,"nx":116,"ny":114,"refTime":"2024-03-27T06:00:00:Z","depth":0,"parameterNumber":3,"parameterNumberName":"V-component_of_WINDS"},"data":[0.0,0.0,0.0,0.0,0.0,0.0,0.0,0.0,0.0,0.0,0.0,0.0,0.0,0.0,0.0,0.0,0.0,0.0,0.0,0.0,0.0,0.0,0.0,0.0,0.0,0.0,0.0,0.0,0.0,0.0,0.0,0.0,0.0,0.0,0.0,0.0,0.0,0.0,0.0,0.0,0.0,0.0,0.0,0.0,0.0,0.0,0.0,0.0,0.0,0.0,0.0,0.0,0.0,0.0,0.0,0.0,0.0,0.0,0.0,0.0,0.0,0.0,0.0,0.0,0.0,0.0,0.0,0.0,0.0,0.0,0.0,0.0,0.0,0.0,0.0,0.0,0.0,0.0,0.0,0.0,0.0,0.0,0.0,0.0,0.0,0.0,0.0,0.0,0.0,0.0,0.0,0.0,0.0,0.0,0.0,0.0,0.0,0.0,0.0,0.0,0.0,0.0,0.0,0.0,0.0,0.0,0.0,0.0,0.0,0.0,0.0,0.0,0.0,0.0,0.0,0.0,0.0,0.0,0.0,0.0,0.0,0.0,0.0,0.0,0.0,0.0,0.0,0.0,0.0,0.0,0.0,0.0,0.0,0.0,0.0,0.0,0.0,0.0,0.0,0.0,0.0,0.0,0.0,0.0,0.0,0.0,0.0,0.0,0.0,0.0,0.0,0.0,0.0,0.0,0.0,0.0,0.0,0.0,0.0,0.0,0.0,0.0,0.0,0.0,0.0,0.0,0.0,0.0,0.0,0.0,0.0,0.0,0.0,0.0,0.0,0.0,0.0,0.0,0.0,0.0,0.0,0.0,0.0,0.0,0.0,0.0,0.0,0.0,0.0,0.0,0.0,0.0,0.0,0.0,0.0,0.0,0.0,0.0,0.0,0.0,0.0,0.0,0.0,0.0,0.0,0.0,0.0,0.0,0.0,0.0,0.0,0.0,0.0,0.0,0.0,0.0,0.0,0.0,0.0,0.0,0.0,0.0,0.0,0.0,0.0,0.0,0.0,0.0,0.0,0.0,0.0,0.0,0.0,0.0,0.0,0.0,0.0,0.0,0.0,0.0,0.0,0.0,0.0,0.0,0.0,0.0,0.0,0.0,0.0,0.0,0.0,0.0,0.0,0.0,0.0,0.0,0.0,0.0,0.0,0.0,0.0,0.0,0.0,0.0,0.0,0.0,0.0,0.0,0.0,0.0,0.0,0.0,0.0,0.0,0.0,0.0,0.0,0.0,0.0,0.0,0.0,0.0,0.0,0.0,0.0,0.0,0.0,0.0,0.0,0.0,0.0,0.0,0.0,0.0,0.0,0.0,0.0,0.0,0.0,0.0,0.0,0.0,0.0,0.0,0.0,0.0,0.0,0.0,0.0,0.0,0.0,0.0,0.0,0.0,0.0,0.0,0.0,0.0,0.0,0.0,0.0,0.0,0.0,0.0,0.0,0.0,0.0,0.0,0.0,0.0,0.0,0.0,0.0,0.0,0.0,0.0,0.0,0.0,0.0,0.0,0.0,0.0,0.0,0.0,0.0,0.0,0.0,0.0,0.0,0.0,0.0,0.0,0.0,0.0,0.0,0.0,0.0,0.0,0.0,0.0,0.0,0.0,0.0,0.0,0.0,0.0,0.0,0.0,0.0,0.0,0.0,0.0,0.0,0.0,0.0,0.0,0.0,0.0,0.0,0.0,0.0,0.0,0.0,0.0,0.0,0.0,0.0,0.0,0.0,0.0,0.0,0.0,0.0,0.0,0.0,0.0,0.0,0.0,0.0,0.0,0.0,0.0,0.0,0.0,0.0,0.0,0.0,0.0,0.0,0.0,0.0,0.0,0.0,0.0,0.0,0.0,0.0,0.0,0.0,0.0,0.0,0.0,0.0,0.0,0.0,0.0,0.0,0.0,0.0,0.0,0.0,0.0,0.0,0.0,0.0,0.0,0.0,0.0,0.0,0.0,0.0,0.0,0.0,0.0,0.0,0.0,0.0,0.0,0.0,0.0,0.0,0.0,0.0,0.0,0.0,0.0,0.0,0.0,0.0,0.0,0.0,0.0,0.0,0.0,0.0,0.0,0.0,0.0,0.0,0.0,0.0,0.0,0.0,0.0,0.0,0.0,0.0,0.0,0.0,0.0,0.0,0.0,0.0,0.0,0.0,0.0,0.0,0.0,0.0,0.0,0.0,0.0,0.0,0.0,0.0,0.0,0.0,0.0,0.0,0.0,0.0,0.0,0.0,0.0,0.0,0.0,0.0,0.0,0.0,0.0,0.0,0.0,0.0,0.0,0.0,0.0,0.0,0.0,0.0,0.0,0.0,0.0,0.0,0.0,0.0,0.0,0.0,0.0,0.0,0.0,0.0,0.0,0.0,0.0,0.0,0.0,0.0,0.0,0.0,0.0,0.0,0.0,0.0,0.0,0.0,0.0,0.0,0.0,0.0,0.0,0.0,0.0,0.0,0.0,0.0,0.0,0.0,0.0,0.0,0.0,0.0,0.0,0.0,0.0,0.0,0.0,0.0,0.0,0.0,0.0,0.0,0.0,0.0,0.0,0.0,0.0,0.0,0.0,0.0,0.0,0.0,0.0,0.0,0.0,0.0,0.0,0.0,0.0,0.0,0.0,0.0,0.0,0.0,0.0,0.0,0.0,0.0,0.0,0.0,0.0,0.0,0.0,0.0,0.0,0.0,0.0,0.0,0.0,0.0,0.0,0.0,0.0,0.0,0.0,0.0,0.0,0.0,0.0,0.0,0.0,0.0,0.0,0.0,0.0,0.0,0.0,0.0,0.0,0.0,0.0,0.0,0.0,0.0,0.0,0.0,0.0,0.0,0.0,0.0,0.0,0.0,0.0,0.0,0.0,0.0,0.0,0.0,0.0,0.0,0.0,0.0,0.0,0.0,0.0,0.0,0.0,0.0,0.0,0.0,0.0,0.0,0.0,0.0,0.0,0.0,0.0,0.0,0.0,0.0,0.0,0.0,0.0,0.0,0.0,0.0,0.0,0.0,0.0,0.0,0.0,0.0,0.0,0.0,0.0,0.0,0.0,0.0,0.0,0.0,0.0,0.0,0.0,0.0,0.0,0.0,0.0,0.0,0.0,0.0,0.0,0.0,0.0,0.0,0.0,0.0,0.0,0.0,0.0,0.0,0.0,0.0,0.0,0.0,0.0,0.0,0.0,0.0,0.0,0.0,0.0,0.0,0.0,0.0,0.0,0.0,0.0,0.0,0.0,0.0,0.0,0.0,0.0,0.0,0.0,0.0,0.0,0.0,0.0,0.0,0.0,0.0,0.0,0.0,0.0,0.0,0.0,0.0,0.0,0.0,0.0,0.0,0.0,0.0,0.0,0.0,0.0,0.0,0.0,0.0,0.0,0.0,0.0,0.0,0.0,0.0,0.0,0.0,0.0,0.0,0.0,0.0,0.0,0.0,0.0,0.0,0.0,0.0,0.0,0.0,0.0,0.0,0.0,0.0,0.0,0.0,0.0,0.0,0.0,0.0,0.0,0.0,0.0,0.0,0.0,0.0,0.0,0.0,0.0,0.0,0.0,0.0,0.0,0.0,0.0,0.0,0.0,0.0,0.0,0.0,0.0,0.0,0.0,0.0,0.0,0.0,0.0,0.0,0.0,0.0,0.0,0.0,0.0,0.0,0.0,0.0,0.0,0.0,0.0,0.0,0.0,0.0,0.0,0.0,0.0,0.0,0.0,0.0,0.0,0.0,0.0,0.0,0.0,0.0,0.0,0.0,0.0,0.0,0.0,0.0,0.0,0.0,0.0,0.0,0.0,0.0,0.0,0.0,0.0,0.0,0.0,0.0,0.0,0.0,0.0,0.0,0.0,0.0,0.0,0.0,0.0,0.0,0.0,0.0,0.0,0.0,0.0,0.0,0.0,0.0,0.0,0.0,0.0,0.0,0.0,0.0,0.0,0.0,0.0,0.0,0.0,0.0,0.0,0.0,0.0,0.0,0.0,0.0,0.0,0.0,0.0,0.0,0.0,0.0,0.0,0.0,0.0,0.0,0.0,0.0,0.0,0.0,0.0,0.0,0.0,0.0,0.0,0.0,0.0,0.0,0.0,0.0,0.0,0.0,0.0,0.0,0.0,0.0,0.0,0.0,0.0,0.0,0.0,0.0,0.0,0.0,0.0,0.0,0.0,0.0,0.0,0.0,0.0,0.0,0.0,0.0,0.0,0.0,0.0,0.0,0.0,0.0,0.0,0.0,0.0,0.0,0.0,0.0,0.0,0.0,0.0,0.0,0.0,0.0,0.0,0.0,0.0,0.0,0.0,0.0,0.0,0.0,0.0,0.0,0.0,0.0,0.0,0.0,0.0,0.0,0.0,0.0,0.0,0.0,0.0,0.0,0.0,0.0,0.0,0.0,0.0,0.0,0.0,0.0,0.0,0.0,0.0,0.0,0.0,0.0,0.0,0.0,0.0,0.0,0.0,0.0,0.0,0.0,0.0,0.0,0.0,0.0,0.0,0.0,0.0,0.0,0.0,0.0,0.0,0.0,0.0,0.0,0.0,0.0,0.0,0.0,0.0,0.0,0.0,0.0,0.0,0.0,0.0,0.0,0.0,0.0,0.0,0.0,0.0,0.0,0.0,0.0,0.0,0.0,0.0,0.0,0.0,0.0,0.0,0.0,0.0,0.0,0.0,0.0,0.0,0.0,0.0,0.0,0.0,0.0,0.0,0.0,0.0,0.0,0.0,0.0,0.0,0.0,0.0,0.0,0.0,0.0,0.0,0.0,0.0,0.0,0.0,0.0,0.0,0.0,0.0,0.0,0.0,0.0,0.0,0.0,0.0,0.0,0.0,0.0,0.0,0.0,0.0,0.0,0.0,0.0,0.0,0.0,0.0,0.0,0.0,0.0,0.0,0.0,0.0,0.0,0.0,0.0,0.0,0.0,0.0,0.0,0.0,0.0,0.0,0.0,0.0,0.0,0.0,0.0,0.0,0.0,0.0,0.0,0.0,0.0,0.0,0.0,0.0,0.0,0.0,0.0,0.0,0.0,0.0,0.0,0.0,0.0,0.0,0.0,0.0,0.0,0.0,0.0,0.0,0.0,0.0,0.0,0.0,0.0,0.0,0.0,0.0,0.0,0.0,0.0,0.0,0.0,0.0,0.0,0.0,0.0,0.0,0.0,0.0,0.0,0.0,0.0,0.0,0.0,0.0,0.0,0.0,0.0,0.0,0.0,0.0,0.0,0.0,0.0,0.0,0.0,0.0,0.0,0.0,0.0,0.0,0.0,0.0,0.0,0.0,0.0,0.0,0.0,0.0,0.0,0.0,0.0,0.0,0.0,0.0,0.0,0.0,0.0,0.0,0.0,0.0,0.0,0.0,0.0,0.0,0.0,0.0,0.0,0.0,0.0,0.0,0.0,0.0,0.0,0.0,0.0,0.0,0.0,0.0,0.0,0.0,0.0,0.0,0.0,0.0,0.0,0.0,0.0,0.0,0.0,0.0,0.0,0.0,0.0,0.0,0.0,0.0,0.0,0.0,0.0,0.0,0.0,0.0,0.0,0.0,0.0,0.0,0.0,0.0,0.0,0.0,0.0,0.0,0.0,0.0,0.0,0.0,0.0,0.0,0.0,0.0,0.0,0.0,0.0,0.0,0.0,0.0,0.0,0.0,0.0,0.0,0.0,0.0,0.0,0.0,0.0,0.0,0.0,0.0,0.0,0.0,0.0,0.0,0.0,0.0,0.0,0.0,0.0,0.0,0.0,0.0,0.0,0.0,0.0,0.0,0.0,0.0,0.0,0.0,0.0,0.0,0.0,0.0,0.0,0.0,0.0,0.0,0.0,0.0,0.0,0.0,0.0,0.0,0.0,0.0,0.0,0.0,0.0,0.0,0.0,0.0,0.0,0.0,0.0,0.0,0.0,0.0,0.0,0.0,0.0,0.0,0.0,0.0,0.0,0.0,0.0,0.0,0.0,0.0,0.0,0.0,0.0,0.0,0.0,0.0,0.0,0.0,0.0,0.0,0.0,0.0,0.0,0.0,0.0,0.0,0.0,0.0,0.0,0.0,0.0,0.0,0.0,0.0,0.0,0.0,0.0,0.0,0.0,0.0,0.0,0.0,0.0,0.0,0.0,0.0,0.4863,0.3715,0.0,0.0,0.0,0.0,0.0,0.0,0.0,0.0,0.0,0.0,0.0,0.0,0.0,0.0,0.0,0.0,0.0,0.0,0.0,0.0,0.0,0.0,0.0,-0.842,-0.6757,-0.596,-0.4439,-0.3205,-0.2333,0.0,0.0,0.0,0.0,0.0,-0.0949,-0.073,-0.0657,-0.0657,-0.0657,-0.0657,-0.0657,-0.0803,-0.124,-0.1822,0.0,0.0,0.0,0.0,0.0,0.0,0.0,0.0,0.0,0.0,0.0,0.0,0.0,0.0,0.0,0.0,0.0,0.0,0.0,0.0,0.0,0.0,0.0,0.0,0.0,0.0,0.0,0.0,0.0,0.0,0.0,0.0,0.0,0.0,0.0,0.0,0.0,0.0,0.0,0.0,0.0,0.0,0.0,0.0,0.0,0.0,0.0,0.0,0.0,0.0,0.0,0.0,0.0,0.0,0.0,0.0,0.0,0.0,0.0,0.0,0.0,0.0,0.0,0.0,0.0,0.0,0.0,0.0,0.0,0.0,0.6377,0.5381,0.0,0.0,0.0,0.0,0.0,0.0,0.0,0.0,0.0,0.0,0.0,0.0,0.0,0.0,0.0,0.0,0.0,0.0,0.0,0.0,0.0,-0.9579,-0.9363,-0.6757,-0.502,-0.4729,-0.3205,-0.2333,-0.2333,-0.226,0.0,0.0,0.0,-0.0876,-0.0511,-0.0146,0.0,0.0,0.0,0.0,0.0,-0.0362,-0.087,-0.1593,-0.1674,0.0,0.0,0.0,0.0,0.0,0.0,0.0,0.0,0.0,0.0,0.0,0.0,0.0,0.0,0.0,0.0,0.0,0.0,0.0,0.0,0.0,0.0,0.0,0.0,0.0,0.0,0.0,0.0,0.0,0.0,0.0,0.0,0.0,0.0,0.0,0.0,0.0,0.0,0.0,0.0,0.0,0.0,0.0,0.0,0.0,0.0,0.0,0.0,0.0,0.0,0.0,0.0,0.0,0.0,0.0,0.0,0.0,0.0,0.0,0.0,0.0,0.0,0.0,0.9728,0.9728,0.9661,0.9389,0.9183,0.9123,0.7742,0.6986,0.6644,0.5232,0.0,0.0,0.0,0.0,0.0,0.0,0.0,0.0,0.0,0.0,0.0,0.0,0.0,0.0,0.0,0.0,0.0,0.0,0.0,-1.0815,-0.9435,-0.7765,-0.6174,-0.4802,-0.3205,-0.2333,-0.2333,-0.2041,-0.1677,-0.1313,-0.0876,-0.0511,-0.0073,0.0,0.0,0.0,0.0,0.0,0.0,-0.0071,-0.0353,-0.0776,-0.1156,-0.1314,-0.1386,0.0,0.0,0.0,0.0,0.0,0.0,0.0,0.0,0.0,0.0,0.0,0.0,0.0,0.0,0.0,0.0,0.0,0.0,0.0,0.0,0.0,0.0,0.0,0.0,0.0,0.0,0.0,0.0,0.0,0.0,0.0,0.0,0.0,0.0,0.0,0.0,0.0,0.0,0.0,0.0,0.0,0.9892,0.9874,0.0,0.0,0.0,0.0,0.0,0.0,0.0,0.0,0.0,0.0,0.0,0.0,0.0,0.9667,0.9685,0.974,0.9728,0.9728,0.9728,0.9728,0.9728,0.9661,0.9594,0.9594,0.9413,0.0,0.8184,0.6711,0.0,0.0,0.0,0.0,0.0,0.0,0.0,0.0,0.0,0.0,0.0,0.0,0.0,0.0,0.0,0.0,0.0,0.0,0.0,0.0,0.0,-0.6612,-0.509,-0.3496,-0.2551,-0.2114,-0.226,-0.1751,-0.1386,-0.1241,-0.0797,-0.0433,0.0,0.0,0.0,0.0,0.0,0.0,0.0,0.0,-0.007,-0.0281,-0.0426,-0.0785,-0.1214,-0.1356,0.0,0.0,0.0,0.0,0.0,0.0,0.0,0.0,0.0,0.0,0.0,0.0,0.0,0.0,0.0,0.0,0.0,0.0,0.0,0.0,0.0,0.0,0.0,0.0,0.0,0.0,0.0,0.0,0.0,0.0,0.0,0.0,0.0,0.0,0.0,0.0,0.0,0.0,0.0,0.9817,0.9959,0.988,0.9874,0.9843,0.0,0.0,0.0,0.0,0.0,0.0,0.0,0.0,0.0,0.9994,0.9994,1.006,1.0259,1.0259,1.0259,1.0259,1.0259,1.0259,1.0259,1.006,0.9994,0.9994,0.9794,0.9528,0.9189,0.8523,0.8117,0.7846,0.0,0.0,0.0,0.0,0.4964,0.4428,0.0,0.0,0.0,0.0,0.0,0.0,0.0,0.0,0.0,0.0,0.0,0.0,-0.7187,-0.5956,-0.4511,-0.2478,-0.1968,-0.1895,-0.2187,-0.1455,-0.1016,-0.1016,-0.0645,-0.0285,0.0,0.0,0.0,0.0,0.0,0.0,0.0,0.0,0.0,0.0,0.0,-0.0348,-0.0912,-0.0982,-0.1192,-0.1403,0.0,0.0,0.0,0.0,0.0,0.0,0.0,0.0,0.0,0.0,0.0,0.0,0.0,0.0,0.0,0.0,0.0,0.0,0.0,0.0,0.0,0.0,0.0,0.0,0.0,0.0,0.0,0.0,0.0,0.0,0.0,0.0,0.0,0.0,0.0,0.0,0.0,0.9979,1.0259,1.055,1.0604,1.0692,0.0,0.0,0.0,0.0,0.0,0.0,1.1042,1.1042,1.1108,1.1372,1.1372,1.1372,1.1247,1.1247,1.1049,1.0717,1.0717,1.0717,1.0717,1.0459,1.0326,1.0326,1.006,0.9927,0.9927,0.9794,0.9528,0.925,0.925,0.8451,0.7245,0.7245,0.6573,0.5834,0.0,0.0,0.0,0.0,0.0,0.0,0.0,0.0,0.0,0.0,0.0,-1.0305,-0.7331,-0.6898,-0.5667,-0.2551,-0.1968,-0.1822,-0.1822,-0.1081,-0.0645,-0.0645,-0.0212,0.0,0.0,0.0,0.0,0.0,0.0,0.0,0.0,0.0,0.0,0.0,0.0,0.0,-0.007,-0.0491,-0.0631,-0.0701,-0.1403,0.0,0.0,0.0,0.0,0.0,0.0,0.0,0.0,0.0,0.0,0.0,0.0,0.0,0.0,0.0,0.0,0.0,0.0,0.0,0.0,0.0,0.0,0.0,0.0,0.0,0.0,0.0,0.0,0.0,0.0,0.0,0.0,0.0,0.0,0.0,0.0,0.0,0.0,1.2503,1.2634,0.0,0.0,0.0,0.0,1.4651,1.4651,1.4651,1.4651,1.4651,1.4651,1.4651,1.4651,1.4063,1.2684,1.2684,1.2033,1.0717,1.0717,1.0717,1.0717,1.0651,1.0658,1.0658,1.0651,1.0651,1.0585,0.9994,0.9661,0.9661,0.9661,0.9594,0.9528,0.9528,0.9461,0.9389,0.0,0.0,0.0,0.0,0.0,-1.2135,-1.2135,-1.1809,-1.1619,-1.1619,-1.1619,-1.0815,-0.8709,-0.7621,-0.6174,-0.4003,-0.2333,-0.1532,-0.175,-0.0793,-0.0358,-0.0572,-0.021,0.0,0.0,0.0,0.0,0.0,0.0,0.0,0.0,0.0,0.0,0.0,0.0,0.0,0.0,-0.0137,-0.0342,-0.0615,-0.1093,-0.1435,0.0,0.0,0.0,0.0,0.0,0.0,0.0,0.0,0.0,0.0,0.0,0.0,0.0,0.0,0.0,0.0,0.0,0.0,0.0,0.0,0.0,0.0,0.0,0.0,0.0,0.0,0.0,0.0,0.0,0.0,0.0,0.0,0.0,0.0,0.0,0.0,0.0,1.275,1.3604,0.0,1.4847,1.4912,1.4912,1.4912,1.4912,1.4912,1.4912,1.4912,1.4912,1.4912,1.4912,1.4651,1.4193,1.3276,1.2553,1.2033,1.1115,1.1181,1.2033,1.1115,1.1181,1.2033,1.1115,1.0717,1.0651,1.0459,1.0193,0.9994,0.9994,0.9861,0.9728,0.9728,0.9728,0.9661,0.0,0.0,0.0,0.0,-1.2257,-1.2135,-1.2135,-1.1809,-1.1619,-1.1619,-1.1619,-1.1038,-0.9435,-0.842,-0.697,-0.4875,-0.3059,-0.1892,-0.1594,-0.0573,-0.0142,-0.0353,-0.0138,0.0,0.0,0.0,0.0,0.0,0.0,0.0,0.0,0.0,0.0,0.0,0.0,0.0,0.0,0.0,-0.0202,-0.0539,-0.0943,-0.1212,-0.1483,0.0,0.0,0.0,0.0,0.0,0.0,0.0,0.0,0.0,0.0,0.0,0.0,0.0,0.0,0.0,0.0,0.0,0.0,0.0,0.0,0.0,0.0,0.0,0.0,0.0,0.0,0.0,0.0,0.0,0.0,0.0,0.0,0.0,0.0,1.2487,1.3661,1.4184,1.5033,1.5814,1.6278,1.6343,1.6343,1.6343,1.6343,1.6343,1.6343,1.6343,1.6343,1.6343,1.6343,1.6073,1.5619,1.4707,1.3988,1.3473,1.2553,1.2618,1.3473,1.2553,1.2618,1.3407,1.2033,1.1439,1.1372,1.0916,1.0591,1.0392,1.0392,1.0259,1.006,1.006,1.006,0.9994,0.0,0.0,0.0,-1.2501,-1.2257,-1.2135,-1.2135,-1.1809,-1.1619,-1.1619,-1.1619,-1.1038,-0.9507,-0.9363,-0.8059,-0.502,-0.4,-0.2823,-0.1289,-0.0424,0.0,0.0,0.0,0.0,0.0,0.0,0.0,0.0,0.0,0.0,0.0,0.0,0.0,0.0,0.0,0.0,0.0,0.0,-0.0202,-0.0539,-0.0943,-0.1077,-0.1144,0.0,0.0,0.0,0.0,0.0,0.0,0.0,0.0,0.0,0.0,0.0,0.0,0.0,0.0,0.0,0.0,0.0,0.0,0.0,0.0,0.0,0.0,0.0,0.0,0.0,0.0,0.0,0.0,0.0,0.0,0.0,0.0,0.0,1.2618,1.3997,1.5424,1.685,1.7044,1.7636,1.8944,1.9072,1.9072,1.9072,1.9072,1.9072,1.9072,1.9072,1.9072,1.9072,1.9072,1.8419,1.7109,1.7044,1.6333,1.4977,1.4912,1.4912,1.4977,1.4912,1.4912,1.4912,1.3473,1.2882,1.275,1.1372,1.0784,1.0784,1.0717,1.0717,1.0717,1.0717,1.0717,1.0644,0.0,0.0,-1.2501,-1.2501,-1.2257,-1.2135,-1.2135,-1.1809,-1.1619,-1.1619,-1.1619,-1.1476,-1.1038,-0.9945,-0.842,-0.6105,-0.4434,-0.2823,-0.1218,-0.0424,0.0,0.0,0.0,0.0,0.0,0.0,0.0,0.0,0.0,0.0,0.0,0.0,0.0,0.0,0.0,0.0,0.0,0.0,-0.0337,-0.0943,-0.1077,-0.1077,-0.1144,0.0,0.0,0.0,0.0,0.0,0.0,0.0,0.0,0.0,0.0,0.0,0.0,0.0,0.0,0.0,0.0,0.0,0.0,0.0,0.0,0.0,0.0,0.0,0.0,0.0,0.0,0.0,0.0,0.0,0.0,0.0,1.2421,1.3538,1.2882,1.3997,1.5424,1.685,1.7893,1.8676,1.9072,1.9072,1.9072,1.9072,1.9072,1.9072,1.9072,1.9072,1.9072,1.9072,1.9072,1.8944,1.8547,1.7496,1.6786,1.6398,1.5359,1.5424,1.6398,1.5359,1.5489,1.6333,1.4903,1.4324,1.4315,1.3932,1.3144,1.2099,1.1115,1.0717,1.0717,1.0717,1.0649,1.0541,0.0,-1.2501,-1.2501,-1.2501,-1.2257,-1.2135,-1.2135,-1.1809,-1.1619,-1.1619,-1.1619,-1.1619,-1.1619,-1.0815,-0.9579,-0.777,-0.6357,-0.4657,-0.2481,-0.0975,-0.0137,0.0,0.0,0.0,0.0,0.0,0.0,0.0,0.0,0.0,0.0,0.0,0.0,0.0,0.0,0.0,0.0,0.0,-0.0404,-0.1077,-0.1077,-0.1077,-0.1144,-0.1346,-0.0943,-0.0269,-0.0269,-0.0135,0.0135,0.0951,0.0,0.0,0.0,0.0,0.0,0.0,0.0,0.0,0.0,0.0,0.0,0.0,0.0,0.0,0.0,0.0,0.0,0.0,0.0,0.0,0.0,0.0,0.0,0.0,1.2947,1.4119,1.4511,1.5749,1.699,1.7765,1.8612,1.9072,1.9072,1.9072,1.9072,1.9072,1.9072,1.9072,1.9072,1.9072,1.9072,1.9072,1.9072,1.9072,1.9072,1.8291,1.7893,1.7893,1.7055,1.712,1.7829,1.7055,1.712,1.7829,1.6398,1.5749,1.5749,1.5163,1.4446,1.3538,0.0,0.0,0.0,0.0,1.0568,1.0473,0.0,-1.2501,-1.2501,-1.2501,-1.2257,-1.2135,-1.2135,-1.1809,-1.1619,-1.1619,-1.1619,-1.1619,-1.1619,-1.1619,-1.0959,-0.9363,-0.8826,-0.7226,-0.4058,-0.1777,-0.0337,0.0,0.0,0.0,0.0,0.0,0.0,0.0,0.0,0.0,0.0,0.0,0.0,0.0,0.0,0.0,0.0,-0.0067,-0.0471,-0.1077,-0.1144,-0.1144,-0.1077,-0.1077,-0.0673,0.0,0.0,0.0,0.0,0.0202,0.0,0.0,0.0,0.0,0.0,0.0,0.0,0.0,0.0,0.0,0.0,0.0,0.0,0.0,0.0,0.0,0.0,0.0,0.0,0.0,0.0,0.0,0.0,0.0,1.3079,1.4119,1.6656,1.8226,1.9072,1.9072,1.9072,1.9072,1.9072,1.9072,1.9072,1.9072,1.9072,1.9072,1.9072,1.9072,0.0,0.0,0.0,1.9072,1.9072,1.9072,1.9072,1.9072,1.9072,1.9072,1.9072,1.9072,1.9072,1.9008,1.7765,1.7173,1.6915,1.5619,1.5043,1.4782,1.3341,1.1967,1.0697,1.0527,1.0466,1.0446,0.0,-1.2501,-1.2501,-1.2501,-1.2257,-1.2135,-1.2135,-1.1809,-1.1619,-1.1619,-1.1619,-1.1619,-1.1619,-1.1619,-1.0815,-0.8992,-0.8755,-0.7086,-0.3363,-0.1449,-0.034,0.0,0.0,0.0,0.0,0.0,0.0,0.0,0.0,0.0,0.0,0.0,0.0,0.0,0.0,0.0,0.0,-0.0269,-0.0673,-0.1144,-0.1414,-0.1346,-0.1077,-0.1077,-0.0673,0.0,0.0,0.0,0.0202,0.1277,0.2888,0.4495,0.5637,0.7178,0.0,0.0,0.0,0.0,0.0,0.0,0.0,0.0,0.0,0.0,0.0,0.0,0.0,0.0,0.0,0.0,0.0,0.0,0.0,1.275,1.4707,1.6387,1.6915,1.8226,1.9072,1.9072,1.9072,1.9072,1.9072,1.9072,1.9072,1.9072,1.9072,1.9072,1.9072,1.9072,1.9072,1.9072,1.9072,1.9072,1.9072,1.9072,1.9072,1.9072,1.9072,0.0,1.9072,1.9072,1.9072,1.9072,1.8816,1.8022,1.698,1.6721,1.5944,1.4782,1.3341,1.1967,1.069,1.0419,1.0324,1.0283,0.0,-1.2501,-1.2501,-1.2501,-1.2318,-1.2149,-1.2074,-1.187,-1.1701,-1.1626,-1.1619,-1.1619,-1.1619,-1.1619,-1.1181,-1.0233,-0.9446,-0.7624,-0.4477,-0.2969,-0.1574,-0.0068,-0.0135,-0.0202,0.0,0.0,0.0,0.0,0.0,0.0,0.0,0.0,0.0,0.0,0.0,0.0,0.0,-0.0337,-0.0741,-0.1144,-0.1481,-0.1414,-0.1077,-0.1077,-0.0673,0.0,0.0,0.0,0.0135,0.0807,0.2486,0.4428,0.5098,0.684,0.859,0.0,0.0,0.0,0.0,0.0,0.0,0.0,0.0,0.0,0.0,0.0,0.0,0.0,0.0,1.0717,1.0717,0.0,1.3013,1.3735,1.5619,1.7238,1.7958,1.8688,1.9072,1.9072,1.9072,1.9072,1.9072,1.9072,1.9072,1.9072,1.9072,1.9072,1.9072,1.9072,1.9072,1.9072,1.9072,1.9072,1.9072,1.9072,1.9072,1.9072,1.9072,1.9072,1.9072,1.9072,1.9072,1.9072,1.9072,1.8688,1.8022,1.7302,1.6138,1.4847,1.4128,1.3013,1.1732,1.146,1.0904,1.0236,0.0,-1.2501,-1.2501,-1.2501,-1.2386,-1.225,-1.2128,-1.1952,-1.1789,-1.1674,-1.164,-1.1619,-1.1619,-1.1619,-1.1619,-1.1619,-1.006,-0.8308,-0.6306,-0.5065,-0.3237,-0.0687,-0.0816,-0.0675,0.0,0.0,0.0,0.0,0.0,0.0,0.0,0.0,0.0,0.0,0.0,-0.0067,-0.0135,-0.0471,-0.0808,-0.1212,-0.1548,-0.1481,-0.1212,-0.1144,-0.0673,0.0,0.0,0.0,0.0,0.0,0.1948,0.4294,0.4294,0.6301,0.859,0.859,0.859,0.0,0.0,0.0,0.0,0.0,0.0,0.0,0.0,1.0717,1.0717,1.0717,1.0717,1.0717,1.0717,1.2099,1.3604,1.4716,1.6333,1.7829,1.8944,1.9072,1.9136,1.92,1.92,1.92,1.9264,1.9264,1.9264,1.9264,1.9264,1.9264,1.92,1.92,1.92,1.9072,1.9072,1.9072,1.9072,1.9072,1.9072,1.9072,1.9072,1.9072,1.9072,1.9072,1.9072,1.9072,1.8816,1.8676,1.8547,1.7173,1.5944,1.4912,1.5229,1.4446,1.316,1.2592,1.1649,1.0608,0.0,-1.2501,-1.2501,-1.2501,-1.2386,-1.2284,-1.2271,-1.202,-1.1823,-1.1809,-1.1694,-1.1619,-1.1619,-1.1619,-1.1619,-1.1619,-0.9856,-0.8637,-0.8379,-0.6595,-0.4704,-0.2676,-0.2601,-0.1837,-0.0067,0.0,0.0,0.0,0.0,0.0,0.0,0.0,0.0,0.0,0.0,-0.0135,-0.0471,-0.0875,-0.1212,-0.1548,-0.1952,-0.1885,-0.1481,-0.1212,-0.0673,0.0,0.0,0.0,0.0,0.0,0.1948,0.4294,0.4294,0.6301,0.859,0.859,0.859,0.8656,0.8984,0.9588,1.0259,1.0591,1.0717,1.0717,0.0,1.0717,1.0717,1.0717,1.0717,1.0717,1.0717,1.2882,1.4716,1.4847,1.712,1.8944,1.9072,1.9072,1.92,1.952,1.9507,1.9647,1.9979,1.9979,1.9979,1.9979,1.9979,1.9851,1.9584,1.9507,1.9392,1.9136,1.9072,1.9072,1.9072,1.9072,1.9072,1.9072,1.9072,1.9072,1.9072,1.9072,1.9072,1.9008,1.7765,1.7238,1.7109,1.5749,1.5043,1.5033,1.6268,1.5879,1.4465,1.2974,1.2272,1.1909,0.0,0.0,-1.2501,-1.2501,-1.2454,-1.2386,-1.2305,-1.2182,-1.2033,-1.1857,-1.1782,-1.1708,-1.1626,-1.1619,-1.1619,-1.1619,-1.0887,-0.9916,-0.878,-0.8145,-0.6798,-0.4698,-0.3937,-0.294,-0.1701,-0.1013,-0.0404,0.0,-0.0404,-0.0539,-0.0269,-0.0539,-0.0673,-0.0673,-0.0673,-0.0741,-0.0875,-0.1212,-0.1481,-0.1616,-0.2019,-0.1818,-0.1279,-0.1144,-0.0673,0.0,0.0,0.0,0.0,0.0,0.1345,0.3155,0.4026,0.5704,0.7512,0.8318,0.859,0.8723,0.9322,0.9661,1.006,1.0591,1.0717,1.0717,1.0717,1.0717,1.0717,1.0717,1.0717,1.0717,1.0717,1.2355,1.3932,1.4782,1.6592,1.815,1.9008,1.9072,1.9264,1.9839,1.9903,1.9979,2.0106,2.0106,2.0106,2.0106,2.0106,2.0043,1.9903,1.9903,1.9711,1.9392,1.9392,1.9328,1.9072,1.9072,1.92,1.9392,1.92,1.92,1.9392,1.92,1.9072,1.9072,1.8483,1.7765,1.6915,1.5489,1.4912,1.4912,1.4642,1.4632,1.4685,1.3879,1.308,1.216,0.0,0.0,0.0,-1.2501,-1.2501,-1.2467,-1.2366,-1.2318,-1.221,-1.1986,-1.1918,-1.1837,-1.1694,-1.164,-1.1619,-1.1619,-1.1619,-1.1031,-0.9574,-0.9709,-0.886,-0.6689,-0.573,-0.4759,-0.37,-0.2378,-0.1486,-0.0874,-0.1009,-0.0943,-0.0673,-0.0943,-0.1077,-0.1077,-0.1077,-0.1144,-0.1279,-0.1481,-0.1683,-0.1818,-0.2087,-0.1885,-0.1414,-0.1279,-0.0875,-0.0269,-0.0067,0.0,0.0,0.0,0.0942,0.2286,0.3356,0.4964,0.6644,0.765,0.8251,0.8723,0.9389,0.9594,0.9861,1.0392,1.0651,1.0717,1.0717,1.0717,1.0717,1.0717,1.0717,1.0717,1.0717,1.1835,1.3276,1.4651,1.6073,1.7496,1.888,1.9072,1.934,2.0043,2.0106,2.017,2.0361,2.0361,2.0361,2.0361,2.0361,2.0361,2.0234,2.0234,2.003,1.9647,1.9711,1.952,1.9072,1.92,1.9392,1.9571,1.9328,1.9392,1.9571,1.9264,1.9072,1.9072,1.9072,1.8547,1.7431,1.5619,1.4912,1.4782,1.3341,1.3353,1.4116,1.3978,1.3242,1.2096,0.0,0.0,0.0,0.0,-1.2501,-1.2501,-1.2494,-1.2379,-1.2284,-1.2277,-1.2149,-1.1999,-1.1843,-1.1701,-1.1619,-1.1619,-1.1619,-1.1548,-1.1548,-1.1541,-1.0674,-0.8682,-0.8596,-0.758,-0.5539,-0.4108,-0.3267,-0.309,-0.1749,-0.1077,-0.1077,-0.1077,-0.1077,-0.1077,-0.1077,-0.1279,-0.1616,-0.1616,-0.1818,-0.2155,-0.2223,-0.2155,-0.2154,-0.175,-0.1346,-0.0943,-0.0269,0.0,0.0,0.0,0.0942,0.2084,0.2151,0.4096,0.6376,0.6443,0.7445,0.8656,0.905,0.9389,0.9794,1.0127,1.0459,1.0717,1.0717,1.0717,1.0717,1.0717,1.0717,1.0717,1.0717,1.1835,1.3276,1.4651,1.6073,1.7496,1.888,1.9072,1.934,2.0043,2.0106,2.0361,2.0982,2.1046,2.1046,2.1046,2.1046,2.0919,2.0602,2.0615,2.0284,1.9635,1.9915,1.9788,1.9136,1.9456,1.9571,1.9571,1.9571,1.9571,1.9571,1.9264,1.9072,1.9072,1.9072,1.9072,1.8816,1.6019,1.4912,1.4782,1.3341,1.2767,1.2652,1.2526,1.2291,1.1872,0.0,0.0,0.0,0.0,0.0,-1.2501,-1.2501,-1.2461,-1.2393,-1.2305,-1.2155,0.0,0.0,0.0,0.0,0.0,-1.1619,-1.1619,-1.1619,-1.1619,-1.1305,-1.0674,-0.9581,-0.857,-0.765,-0.6283,-0.4851,-0.3337,-0.324,-0.2623,-0.1414,-0.1683,-0.1818,-0.1818,-0.1818,-0.1885,-0.2019,-0.2019,-0.2087,-0.2223,-0.2223,-0.2019,-0.1818,-0.1683,-0.1414,-0.101,0.0,-0.0202,0.0,0.0,0.0336,0.0875,0.1815,0.2754,0.3895,0.5837,0.745,0.8656,0.8984,0.9183,0.9389,0.9794,1.0127,1.0392,1.0392,1.0518,1.0717,1.0717,1.0717,1.0717,1.0717,1.1115,1.1901,1.3276,1.4707,1.6073,1.7507,1.8483,1.934,2.0043,2.0106,2.0361,2.1046,2.1109,2.1109,2.1109,2.1109,2.1046,2.0919,2.0919,2.0602,1.9979,2.0234,2.0094,1.9456,1.9775,2.003,2.0284,2.003,1.9839,1.9571,1.9264,1.9072,1.9072,1.9072,1.9072,1.8944,1.7055,1.5749,1.4782,1.3341,1.2118,1.104,1.1053,1.0794,1.0494,0.0,0.0,0.0,0.0,0.0,0.0,0.0,0.0,0.0,0.0,0.0,0.0,0.0,0.0,0.0,0.0,0.0,-1.1674,-1.1619,-1.1619,-1.1619,-1.1619,-1.0584,-0.9942,-0.9677,-0.8328,-0.6842,-0.5341,-0.4688,-0.3782,-0.2556,-0.2289,-0.2223,-0.2223,-0.2223,-0.2223,-0.2223,-0.2223,-0.2223,-0.2223,-0.2223,-0.2019,-0.1818,-0.1818,-0.1616,0.0,-0.101,-0.0606,-0.0135,-0.0067,0.0,0.0135,0.1076,0.1681,0.2687,0.557,0.7045,0.7984,0.8717,0.8984,0.9183,0.9389,0.9728,0.9994,0.9994,1.0259,1.0525,1.0525,1.0591,1.0717,1.0717,1.0717,1.1181,1.2553,1.3997,1.5359,1.6786,1.8226,1.934,2.0043,2.0106,2.0361,2.1046,2.1109,2.1109,2.1109,2.1109,2.1109,2.1109,2.0982,2.0666,2.0106,2.0297,2.0094,1.9456,1.9775,2.0106,2.0425,2.017,1.9979,1.9775,1.9328,1.9072,1.9072,1.9072,1.9072,1.9008,1.756,1.6138,1.4782,1.3341,1.1762,1.0283,1.0283,1.0086,0.9822,0.0,0.0,0.0,0.0,0.0,0.0,0.0,0.0,0.0,0.0,0.0,0.0,0.0,0.0,0.0,0.0,0.0,0.0,-1.164,-1.1619,-1.1619,-1.1619,-1.1619,-1.1552,-1.1402,-1.0036,-0.9137,-0.8843,-0.61,-0.4632,-0.4372,-0.2963,-0.229,-0.2289,-0.2223,-0.2223,-0.2223,-0.2223,-0.2223,-0.2223,-0.2223,-0.2223,-0.2223,-0.2223,-0.1952,-0.1616,-0.1616,-0.1144,-0.0471,-0.0135,0.0,0.0,0.0,0.0941,0.262,0.5436,0.6376,0.6711,0.8184,0.8851,0.905,0.905,0.9389,0.9661,0.9661,0.9927,1.0193,1.0193,1.0459,1.0651,1.0717,1.0717,1.1115,1.2487,1.3866,1.5294,1.6721,1.8086,1.9264,1.9979,2.0106,2.0361,2.0982,2.1109,2.1109,2.1109,2.1109,2.1109,2.1109,2.0792,2.0425,2.0106,2.0106,1.9788,1.9136,1.9456,1.9775,2.0106,2.0106,2.0106,2.0043,1.9392,1.9072,1.9072,1.9072,1.9072,1.9008,1.7636,1.6268,1.4782,1.3407,1.1827,1.0283,1.0283,1.0086,0.9822,0.0,0.0,0.0,0.0,0.0,0.0,0.0,0.0,0.0,0.0,0.0,0.0,0.0,0.0,0.0,0.0,0.0,0.0,-1.1782,-1.1681,-1.1619,0.0,0.0,0.0,0.0,-1.1089,-1.0287,-0.9089,-0.8238,-0.7246,-0.6062,-0.4567,-0.3869,-0.3698,-0.2692,-0.2223,-0.2223,-0.2223,-0.2223,-0.2223,-0.2223,-0.2223,-0.2223,-0.2223,-0.2154,-0.2019,-0.1683,-0.1481,-0.1212,-0.0606,-0.0202,0.0,0.0,0.0941,0.2486,0.4294,0.557,0.6711,0.8184,0.8656,0.8717,0.8717,0.8984,0.925,0.925,0.9522,0.9927,1.0127,1.0259,1.0392,1.0651,1.0717,1.085,1.1181,1.2421,1.3866,1.5229,1.6656,1.8086,1.9571,1.9979,2.0297,2.0679,2.0919,2.1109,2.1109,2.1109,2.0982,2.0729,2.0666,2.0348,1.9775,1.9979,1.9915,1.9456,2.003,2.0297,2.0106,2.0106,1.9979,1.9711,1.9264,1.9072,1.9072,1.9072,1.9072,1.9072,1.8676,1.712,1.4847,1.4511,1.2734,1.0283,1.0283,1.0086,0.9822,0.0,0.0,0.0,0.0,0.0,0.0,0.0,0.0,0.0,0.0,0.0,0.0,0.0,0.0,0.0,0.0,0.0,0.0,0.0,-1.1755,-1.1687,-1.1619,0.0,0.0,0.0,-1.1538,-1.1025,-1.0177,-0.9467,-0.8601,-0.7662,-0.6218,-0.5146,-0.4338,-0.3596,-0.2841,-0.2223,-0.2223,-0.2223,0.0,0.0,-0.2223,-0.2223,-0.2223,-0.2223,-0.2154,-0.1952,-0.1683,-0.1279,-0.0673,-0.0269,0.0,0.0,0.0538,0.1479,0.2888,0.4361,0.577,0.7245,0.8117,0.859,0.859,0.8717,0.8851,0.8851,0.9189,0.9522,0.9655,0.9987,1.0259,1.0459,1.0585,1.0717,1.0717,1.1901,1.3079,1.3866,1.5749,1.7431,1.8536,1.952,2.0234,2.0539,2.0919,2.1109,2.1109,2.0982,2.0792,2.0615,2.0348,1.9966,1.9647,1.9647,1.9647,1.9571,2.0094,2.0297,2.0106,2.0106,1.9915,1.9571,1.9264,1.9072,1.9072,1.9072,1.9072,1.9072,1.9072,1.7765,1.5749,1.5163,1.3371,1.115,1.0531,1.0086,0.9822,0.0,0.0,0.0,0.0,0.0,0.0,0.0,0.0,0.0,0.0,-1.2501,-1.2501,0.0,0.0,0.0,0.0,0.0,0.0,0.0,0.0,0.0,0.0,0.0,0.0,-1.1619,-1.1619,-1.1552,-1.1423,-1.0131,-0.9431,-0.9312,-0.7841,-0.6468,-0.5081,-0.4672,-0.3754,-0.2497,-0.2296,-0.2225,-0.2223,-0.2223,-0.2223,-0.2223,0.0,0.0,-0.2223,-0.2223,-0.175,-0.1077,-0.0741,-0.0337,0.0,0.0,0.0,0.0269,0.1681,0.3023,0.4361,0.5971,0.7312,0.8384,0.8518,0.859,0.859,0.859,0.8851,0.905,0.9117,0.9588,1.006,1.0193,1.0459,1.0651,1.0717,1.1703,1.2618,1.275,1.5024,1.6915,1.7378,1.8996,2.0234,2.0488,2.0856,2.1109,2.1109,2.0792,2.0615,2.0552,1.9966,1.9647,1.952,1.9264,1.9264,1.952,1.9915,2.0106,2.0043,2.0106,1.9915,1.9571,1.9264,1.9072,1.9072,1.9072,1.9072,1.9072,1.888,1.7958,1.6592,1.5163,1.3638,1.1988,1.0785,1.01,0.9849,0.0,0.0,0.0,0.0,0.0,0.0,0.0,0.0,0.0,0.0,-1.2501,-1.2501,0.0,0.0,0.0,0.0,0.0,0.0,0.0,0.0,0.0,0.0,0.0,0.0,-1.1619,-1.1619,-1.1606,-1.1579,-1.1292,-1.1142,-1.0927,-0.9501,-0.8594,-0.8144,-0.5643,-0.4428,-0.403,-0.2738,-0.2177,-0.2223,-0.2223,-0.2223,-0.2223,0.0,0.0,0.0,-0.2223,-0.1885,-0.1481,0.0,-0.0539,0.0,0.0,0.0,0.0269,0.1681,0.2286,0.3023,0.5704,0.6577,0.7045,0.8318,0.859,0.859,0.859,0.8651,0.8784,0.905,0.9183,0.9455,1.006,1.0259,1.0392,1.0651,1.0916,1.1439,1.2618,1.425,1.5749,1.6915,1.8868,2.0106,2.017,2.0729,2.1109,2.1109,2.0792,2.0488,2.017,2.0106,1.9775,1.92,1.9136,1.9136,1.92,1.9788,1.9979,1.9711,1.9979,1.9915,1.9571,1.9264,1.9072,1.9072,1.9072,1.9072,1.9008,1.7829,1.6527,1.5098,1.3735,1.223,1.0755,1.0452,1.0168,0.993,0.0,0.0,0.0,0.0,0.0,0.0,0.0,-1.2501,-1.2501,-1.2501,-1.2501,-1.2501,-1.2501,-1.2501,-1.2501,0.0,0.0,0.0,0.0,0.0,0.0,0.0,0.0,0.0,-1.1728,-1.1653,-1.1619,-1.1619,0.0,-1.1586,-1.144,-0.9995,-0.8784,-0.7832,-0.5581,-0.414,-0.3259,-0.2481,-0.2192,-0.2177,-0.2228,-0.2223,0.0,0.0,0.0,0.0,0.0,-0.1952,-0.1548,-0.1414,-0.0875,-0.0202,-0.0067,0.0,0.0135,0.0807,0.1546,0.242,0.3761,0.5235,0.6577,0.7245,0.8051,0.859,0.859,0.859,0.8651,0.8784,0.8984,0.925,0.9861,1.006,1.0326,1.0651,1.0717,1.0916,1.1637,1.2947,1.4315,1.5749,1.7753,1.9252,1.9775,2.0602,2.1046,2.0856,2.0856,2.0729,2.0361,2.0043,1.9584,1.9136,1.9072,1.92,1.9392,1.9851,1.9903,1.9571,1.9915,1.9851,1.9328,1.92,1.9072,1.9072,1.9072,1.9072,1.9008,1.756,1.6592,1.5814,1.3661,1.2319,1.1508,1.067,1.0243,0.9977,0.0,0.0,0.0,0.0,0.0,0.0,-1.2501,-1.2501,-1.2501,-1.2501,-1.2501,-1.2501,-1.2501,-1.2501,-1.2501,0.0,0.0,0.0,0.0,0.0,0.0,0.0,0.0,0.0,0.0,0.0,0.0,-1.1619,-1.1619,0.0,0.0,0.0,0.0,0.0,-0.5444,-0.3916,-0.2674,-0.2368,-0.2211,0.0,0.0,-0.2228,0.0,0.0,0.0,0.0,0.0,-0.2019,-0.1683,-0.1616,-0.1212,-0.0673,-0.0337,-0.0135,0.0,0.0,0.0807,0.1748,0.2017,0.3761,0.5637,0.6243,0.7245,0.8184,0.8523,0.859,0.859,0.859,0.8784,0.9123,0.9594,0.9927,1.0259,1.0651,1.0717,1.0717,1.0717,1.1901,1.3341,1.4716,1.6656,1.8343,1.9507,2.0412,2.0792,2.0475,2.0729,2.0792,2.0488,1.9839,1.9392,1.9136,1.9072,1.92,1.9507,1.9915,1.9903,1.9571,1.9915,1.9788,1.92,1.9136,1.9072,1.9072,1.9072,1.8944,1.8547,1.7109,1.6398,1.5869,1.3333,1.2277,1.2079,1.089,1.0344,1.0071,0.0,0.0,0.0,0.0,0.0,0.0,-1.2501,-1.2501,-1.2501,-1.2501,-1.2501,-1.2501,-1.2501,-1.2501,-1.2501,0.0,0.0,0.0,0.0,0.0,0.0,0.0,0.0,0.0,0.0,0.0,0.0,-1.1619,-1.1619,0.0,0.0,0.0,0.0,0.0,0.0,-0.4544,-0.4274,-0.2852,0.0,0.0,0.0,0.0,0.0,0.0,0.0,0.0,0.0,-0.2155,-0.2087,-0.175,-0.1548,-0.1414,-0.1077,-0.0539,0.0,0.0,0.0067,0.0471,0.1748,0.2286,0.3157,0.577,0.651,0.6978,0.8318,0.859,0.859,0.859,0.8656,0.8856,0.9594,0.9728,0.9927,1.0585,1.0717,1.0717,1.0717,1.1901,1.3341,1.4716,1.6462,1.8086,1.9444,1.9966,2.017,2.017,2.017,2.017,2.017,1.952,1.9136,1.9072,1.9072,1.9136,1.9136,1.9788,1.9903,1.9571,1.9915,1.9915,1.9507,1.9264,1.9072,1.9072,1.9072,1.8355,1.7109,1.5684,1.4315,1.3013,1.1505,1.0909,1.0809,1.0606,1.0473,1.0412,0.0,0.0,0.0,0.0,0.0,0.0,-1.2501,-1.2501,-1.2501,-1.2501,-1.2501,-1.2501,-1.2501,-1.2501,-1.2501,-1.2501,0.0,0.0,0.0,0.0,0.0,0.0,0.0,0.0,0.0,0.0,-1.1619,-1.1619,-1.1619,0.0,0.0,0.0,0.0,0.0,0.0,-0.3268,-0.3179,-0.2584,0.0,0.0,0.0,0.0,0.0,0.0,0.0,0.0,0.0,0.0,-0.2155,-0.2019,-0.1818,-0.1548,-0.1414,-0.0875,-0.0269,-0.0269,-0.0135,0.0135,0.0673,0.1479,0.262,0.4629,0.577,0.6777,0.8251,0.859,0.859,0.859,0.859,0.8723,0.9256,0.9528,0.9861,1.0326,1.0591,1.0717,1.0717,1.1181,1.2355,1.4651,1.5684,1.7044,1.9136,1.9788,2.0106,2.0106,1.9915,1.9775,1.9775,1.952,1.9328,1.9136,1.9072,1.9072,1.9072,1.9584,1.9647,1.9328,1.9647,1.9647,1.9264,1.9136,1.9072,1.9072,1.9072,1.8752,1.8098,1.5814,1.4586,1.3866,1.1571,1.0717,1.0711,1.0649,1.0568,1.0473,0.0,0.0,0.0,0.0,0.0,-1.2501,-1.2501,-1.2501,-1.2501,-1.2501,-1.2501,-1.2501,-1.2501,-1.2501,-1.2501,-1.2501,-1.2501,0.0,0.0,0.0,0.0,0.0,0.0,0.0,0.0,0.0,-1.166,-1.1619,-1.1619,-1.0815,0.0,0.0,-0.6174,-0.4657,0.0,0.0,0.0,0.0,0.0,0.0,0.0,0.0,0.0,0.0,0.0,0.0,0.0,0.0,0.0,0.0,0.0,-0.175,-0.175,-0.1279,0.0,-0.0539,-0.0269,0.0,0.0,0.074,0.1815,0.3289,0.4361,0.5637,0.7512,0.7917,0.8051,0.8523,0.859,0.8717,0.905,0.9455,0.9794,1.0127,1.0452,1.0717,1.0717,1.0717,1.1571,1.3997,1.4838,1.6073,1.8291,1.9264,1.9788,1.9788,1.9584,1.9456,1.9456,1.9456,1.9328,1.9136,1.9072,1.9072,1.9072,1.952,1.952,1.9136,1.952,1.952,1.9072,1.9072,1.9072,1.9072,1.9072,1.888,1.8291,1.5889,1.4651,1.4054,1.1637,1.0717,1.0717,1.0717,1.0649,1.0555,0.0,0.0,0.0,0.0,0.0,0.0,-1.2501,-1.2501,-1.2501,-1.2501,-1.2501,-1.2501,-1.2501,-1.2501,-1.2501,-1.2501,-1.2501,0.0,0.0,0.0,0.0,0.0,0.0,0.0,0.0,0.0,-1.1762,-1.1619,-1.1619,-1.0815,-0.9291,-0.7693,-0.6174,-0.4657,0.0,0.0,0.0,0.0,0.0,0.0,0.0,0.0,-0.2223,0.0,0.0,0.0,0.0,0.0,0.0,0.0,0.0,0.0,0.0,-0.1683,-0.101,-0.0606,-0.0269,0.0,0.0,0.0,0.0336,0.1748,0.2151,0.2888,0.577,0.6443,0.6844,0.8318,0.859,0.8717,0.905,0.9455,0.9794,1.0127,1.0452,1.0717,1.0717,1.0717,1.1247,1.2618,1.4063,1.5489,1.6915,1.8291,1.9136,1.9136,1.9136,1.9136,1.9136,1.9136,1.9072,1.9072,1.9072,1.9072,1.9072,1.9788,1.9788,1.9136,1.9788,1.9724,1.9072,1.9072,1.9072,1.9072,1.9072,1.8291,1.6915,1.5489,1.4063,1.2684,1.1247,1.0717,1.0717,1.0717,1.0717,1.0697,0.0,0.0,0.0,0.0,0.0,0.0,-1.2501,-1.2501,-1.2501,-1.2501,-1.2501,-1.2501,-1.2501,-1.2501,-1.2501,-1.2501,-1.2501,0.0,0.0,0.0,0.0,0.0,0.0,0.0,0.0,-1.1911,-1.1762,-1.1619,-1.0527,-0.9219,-0.7693,-0.6177,-0.4584,-0.3059,-0.2551,-0.2333,0.0,0.0,0.0,0.0,0.0,-0.2223,-0.2223,0.0,0.0,0.0,0.0,0.0,0.0,0.0,0.0,0.0,0.0,0.0,0.0,-0.101,-0.0471,0.0,0.0,0.0,0.0336,0.1748,0.2084,0.262,0.4495,0.5704,0.651,0.6978,0.7917,0.8651,0.8717,0.9256,0.9728,0.9861,1.0326,1.0717,1.0717,1.0717,1.1247,1.2618,1.4903,1.6527,1.698,1.8291,1.9072,1.9072,1.9072,1.9072,1.9072,1.9072,1.9072,1.9072,1.9072,1.9072,1.9072,1.952,1.9647,1.9456,1.9647,1.9647,1.9456,1.92,1.9072,1.9072,1.9072,1.8291,1.6915,1.5489,1.4063,1.2684,1.1247,1.0717,1.0717,1.0717,1.0717,1.0711,0.0,0.0,0.0,0.0,0.0,0.0,-1.2508,-1.2501,-1.2501,-1.2501,-1.2501,-1.2501,-1.2501,-1.2501,-1.2501,-1.2501,-1.2501,0.0,0.0,0.0,0.0,0.0,0.0,0.0,-1.2067,-1.1965,-1.1823,-1.1619,-1.0089,-0.8492,-0.697,-0.5452,-0.386,-0.2333,-0.2333,-0.2333,0.0,0.0,0.0,0.0,-0.223,-0.2223,-0.2223,0.0,0.0,0.0,0.0,0.0,0.0,0.0,0.0,0.0,0.0,0.0,0.0,0.0,-0.0673,-0.0135,-0.0067,0.0,0.0202,0.1076,0.1277,0.1681,0.3155,0.4562,0.577,0.6309,0.7579,0.859,0.859,0.9195,0.9728,0.9728,1.0259,1.0717,1.0717,1.0717,1.1247,1.2618,1.4381,1.5804,1.6915,1.7765,1.8547,1.9072,1.9072,1.9072,1.9072,1.92,1.92,1.9072,1.9072,1.9072,1.9072,1.9456,1.952,1.9392,1.9507,1.952,1.9392,1.92,1.9072,1.9072,1.9072,1.8291,0.0,1.5489,1.4063,1.2684,1.1247,1.0717,1.0717,1.0717,1.0717,1.0717,0.0,0.0,0.0,0.0,0.0,0.0,0.0,-1.2108,-1.2192,-1.2347,-1.2192,-1.2192,-1.2347,-1.2347,-1.2347,-1.2347,-1.2424,0.0,0.0,0.0,0.0,0.0,0.0,0.0,-1.2142,-1.2135,-1.1918,-1.1619,-0.9945,-0.842,-0.697,-0.5307,-0.3714,-0.2333,-0.2333,-0.233,-0.2323,-0.2195,-0.2208,-0.2223,-0.2223,-0.2223,0.0,0.0,0.0,0.0,0.0,0.0,0.0,0.0,0.0,0.0,0.0,0.0,0.0,0.0,0.0,0.0,0.0,0.0,0.0,0.0,0.0,0.0336,0.1681,0.309,0.0,0.5971,0.7445,0.8451,0.859,0.9195,0.9728,0.9728,1.0259,1.0717,1.0717,1.0717,1.1247,1.2618,1.2882,1.3988,1.6592,1.7044,1.7636,1.888,1.9072,1.9136,1.9136,1.9456,1.9456,1.9136,1.9136,1.9136,1.9072,1.9456,1.9456,1.9136,1.9456,1.9456,1.9136,1.9136,1.9072,1.9072,1.9072,1.8226,1.6721,1.5424,1.3997,1.2487,1.1181,1.0717,1.0717,1.0717,1.0717,1.0717,0.0,0.0,0.0,0.0,0.0,0.0,0.0,0.0,0.0,0.0,-0.9459,-0.9148,-1.0474,-1.0552,-1.0552,0.0,0.0,0.0,0.0,0.0,0.0,0.0,0.0,0.0,-1.2142,-1.2135,-1.1918,-1.1619,-0.8853,-0.7331,-0.697,-0.4148,-0.2697,-0.2333,-0.2333,-0.2308,-0.2192,-0.2226,-0.2189,-0.2223,-0.2223,-0.2223,0.0,0.0,0.0,0.0,-0.2223,-0.2223,0.0,0.0,0.0,0.0,0.0,0.0,0.0,0.0,-0.0808,-0.0404,-0.0067,0.0,0.0,0.0,0.0,0.0067,0.0,0.1614,0.3023,0.4495,0.5904,0.7245,0.8384,0.9195,0.9728,0.9728,1.0259,1.0717,1.0717,1.0717,1.1247,1.2618,1.3735,1.4651,1.5294,1.7313,1.8419,1.7893,1.8868,1.9456,1.9456,1.9775,1.9724,1.9136,1.9328,1.9392,1.9072,1.9456,1.9584,1.9456,1.9584,1.9584,1.9456,1.92,1.9072,1.9072,1.9072,1.77,1.5359,1.5043,1.3473,1.1181,1.085,1.0717,1.0717,1.0717,1.0717,1.0717,0.0,0.0,0.0,0.0,0.0,0.0,0.0,0.0,0.0,0.0,-0.8059,-0.7825,-0.8759,-0.8837,-0.8837,0.0,0.0,0.0,0.0,0.0,0.0,0.0,0.0,-1.2298,-1.2067,-1.1993,-1.1477,-1.0527,-0.8131,-0.6608,-0.5887,-0.3423,-0.2333,-0.2333,-0.2319,-0.2281,-0.2223,-0.2207,-0.2183,-0.2223,-0.2223,0.0,0.0,0.0,0.0,0.0,-0.2223,-0.2223,0.0,-0.2223,-0.2223,-0.2223,0.0,0.0,0.0,0.0,-0.0808,-0.0404,-0.0067,0.0,0.0,0.0,0.0,0.0,0.0,0.1076,0.2486,0.4026,0.5436,0.6844,0.8318,0.9195,0.9728,0.9728,1.0259,1.0717,1.0717,1.0717,1.0982,1.1769,1.2487,1.3473,1.4782,1.6278,1.7442,1.8162,1.906,1.9571,1.9571,2.003,2.003,1.9328,1.9647,1.9584,1.9072,1.9264,1.9456,1.9571,1.9456,1.9456,1.9571,1.9264,1.9072,1.9072,1.9072,1.7507,1.4912,1.4912,1.321,1.0717,1.0717,1.0717,1.0717,1.0717,1.0717,1.0711,0.0,0.0,0.0,0.0,0.0,0.0,0.0,0.0,0.0,0.0,0.0,0.0,0.0,0.0,0.0,0.0,0.0,0.0,0.0,0.0,0.0,0.0,-1.181,-1.1832,-1.1762,-1.1536,-1.0657,-0.8925,-0.7404,-0.5956,-0.4657,-0.3059,-0.233,-0.2324,-0.2297,-0.2252,-0.22,-0.2195,-0.2178,-0.2223,-0.2223,0.0,0.0,0.0,0.0,0.0,0.0,0.0,0.0,-0.2223,-0.2223,-0.2223,-0.2223,0.0,0.0,0.0,0.0,0.0,-0.0067,0.0,0.0,0.0,0.0,0.0,0.0,0.0,0.0,0.0,0.0,0.651,0.7984,0.9056,0.9728,0.9728,1.0259,1.0717,1.0717,1.0717,1.0784,1.0982,1.1049,1.1967,1.4324,1.4968,1.6138,1.8419,1.9252,1.9711,1.9775,2.0348,2.0348,1.9711,1.9979,1.9788,1.92,1.92,1.9264,1.9507,1.9264,1.9328,1.9507,1.92,1.9072,1.9072,1.9072,1.7507,1.4912,1.4912,1.321,1.0717,1.0717,1.0717,1.0717,1.0717,1.0717,1.0697,0.0,0.0,0.0,0.0,0.0,0.0,0.0,0.0,0.0,0.0,0.0,0.0,0.0,0.0,0.0,0.0,0.0,0.0,0.0,0.0,0.0,-0.8247,-0.9529,-1.0148,-1.0099,-0.99,-0.9045,-0.7331,-0.5815,-0.4947,-0.4657,-0.3059,-0.232,-0.2296,-0.2266,-0.2233,-0.2199,-0.2173,-0.2227,-0.2223,-0.2223,0.0,0.0,0.0,0.0,0.0,0.0,0.0,0.0,-0.2223,-0.2223,-0.2223,-0.2223,0.0,0.0,0.0,0.0,0.0,0.0,0.0,0.0,0.0,0.0,0.0,0.0,0.0135,0.0,0.0,0.3624,0.5031,0.651,0.8384,0.9728,0.9728,1.0259,1.0717,1.0717,1.0717,1.1115,1.2355,1.2487,1.2618,1.3079,1.5294,1.6581,1.6441,1.8664,2.017,2.0412,2.0792,2.0729,2.0043,2.0043,1.9915,1.952,1.9507,1.9392,1.92,1.9392,1.9392,1.92,1.9136,1.9072,1.9072,1.9072,1.7507,1.4912,1.4912,1.321,1.0717,1.0717,1.0717,1.0717,1.0717,1.0717,1.0683,0.0,0.0,0.0,0.0,0.0,0.0,0.0,0.0,0.0,0.0,0.0,0.0,0.0,0.0,0.0,0.0,0.0,0.0,0.0,0.0,-0.5186,-0.6075,-0.6755,-0.7435,-0.8359,-0.8181,-0.7379,-0.5742,-0.502,-0.4221,-0.3423,-0.2678,-0.2294,-0.2264,-0.2234,-0.2204,-0.2174,-0.2228,-0.2223,-0.2223,0.0,0.0,0.0,0.0,0.0,0.0,0.0,0.0,0.0,0.0,-0.2223,-0.2223,-0.2223,0.0,0.0,0.0,0.0,0.0,0.0,0.0,0.0,0.0,0.0,0.0,0.0,0.0,0.0404,0.1815,0.262,0.3761,0.5975,0.7579,0.8917,1.0054,1.0525,1.0717,1.0717,1.0717,1.0916,1.1571,1.1637,1.1967,1.275,1.4642,1.6073,1.6441,1.8728,2.017,2.0297,2.0792,2.0856,2.0361,2.017,1.9915,1.9571,1.9571,1.9507,1.9392,1.952,1.9507,1.9392,1.92,1.9072,1.9072,1.8291,1.6796,1.4847,1.4063,1.2553,1.0717,1.0717,1.0717,1.0717,1.0717,1.0622,1.0466,0.0,0.0,0.0,0.0,0.0,0.0,0.0,0.0,0.0,0.0,0.0,0.0,0.0,0.0,0.0,0.0,0.0,0.0,0.0,-0.2485,-0.3081,-0.4369,-0.4279,-0.4969,-0.6592,-0.6509,-0.567,-0.4151,-0.4151,-0.349,-0.2323,-0.2301,-0.2271,-0.2234,-0.221,-0.2184,-0.2223,-0.2223,-0.2223,-0.2223,0.0,0.0,0.0,0.0,0.0,0.0,0.0,0.0,0.0,0.0,0.0,0.0,0.0,0.0,0.0,-0.1077,-0.0606,0.0,0.0,0.0,0.0,0.0,0.0,0.0,0.0,0.0,0.0336,0.1412,0.1882,0.2888,0.5436,0.704,0.8579,1.0386,1.0717,1.0717,1.0717,1.0717,1.0717,1.0717,1.0717,1.1115,1.2223,1.3604,1.5033,1.6527,1.8472,1.9775,2.017,2.0792,2.0919,2.0615,2.0297,1.9915,1.9571,1.9571,1.9584,1.9456,1.9584,1.9584,1.9456,1.92,1.9072,1.9008,1.7625,1.6203,1.4782,1.3407,1.1967,1.0717,1.0717,1.0717,1.0717,1.0677,1.05,1.0276,0.0,0.0,0.0,0.0,0.0,0.0,0.0,0.0,0.0,0.0,0.0,0.0,0.0,0.0,0.0,0.0,0.0,0.0,0.0,-0.2485,-0.2533,-0.258,-0.2545,-0.3341,-0.5043,-0.4906,-0.4075,-0.2478,-0.2478,-0.2391,-0.2294,-0.2292,-0.2259,-0.2203,-0.2202,-0.2184,-0.2223,-0.2223,-0.2223,-0.2223,-0.2223,0.0,0.0,0.0,0.0,0.0,0.0,0.0,0.0,0.0,0.0,0.0,0.0,0.0,-0.1077,-0.1077,-0.0606,0.0,0.0,0.0,0.0,0.0,0.0,0.0,0.0,0.0,0.0,0.0135,0.121,0.2553,0.416,0.724,0.9794,1.0585,1.0717,1.0717,1.0717,1.0717,1.0717,1.0717,1.0717,1.0717,1.085,1.2099,1.3661,1.5414,1.7162,1.8856,2.0475,2.0919,2.0919,2.0615,2.0297,1.9915,1.9571,1.9571,1.9456,1.9136,1.9456,1.9456,1.9136,1.9136,1.9072,1.9008,1.7625,1.6203,1.4782,1.3407,1.1967,1.0717,1.0717,1.0717,1.0704,1.0561,1.0412,1.0256,0.0,0.0,0.0,0.0,0.0,0.0,0.0,0.0,0.0,0.0,0.0,0.0,0.0,0.0,0.0,0.0,0.0,0.0,0.0,-0.2458,-0.2427,-0.2397,-0.2367,-0.2642,-0.3302,-0.3212,-0.2914,-0.2333,-0.2333,-0.2319,-0.229,-0.2271,-0.224,-0.2199,-0.218,-0.2232,-0.2223,-0.2223,-0.2223,-0.2223,-0.2223,-0.2223,0.0,0.0,0.0,0.0,0.0,0.0,0.0,0.0,-0.2223,-0.2223,-0.2223,-0.1683,-0.1077,-0.1077,-0.0606,0.0,0.0,0.0,0.0,0.0,0.0,0.0,0.0,0.0,0.0,0.0,0.0404,0.1345,0.3289,0.6168,0.8579,0.931,1.0114,1.0717,1.0717,1.0717,1.0717,1.0717,1.0717,1.0717,1.0717,1.1967,1.3473,1.4968,1.6721,1.8472,2.0234,2.0615,2.0856,2.0919,2.0361,2.0043,1.9915,1.952,1.92,1.9072,1.9456,1.9456,1.9072,1.9072,1.9072,1.8944,1.6667,1.5359,1.4716,1.2421,1.1181,1.0717,1.0717,1.0663,1.0568,1.0514,1.0344,1.0127,0.0,0.0,0.0,0.0,0.0,0.0,0.0,0.0,0.0,0.0,0.0,0.0,0.0,0.0,0.0,0.0,0.0,0.0,-0.247,-0.2432,-0.2399,-0.2379,-0.2349,-0.2333,-0.2333,-0.2333,-0.2333,-0.2333,-0.2324,-0.2305,-0.2275,-0.2245,-0.2215,-0.2185,-0.2231,-0.2223,-0.2223,-0.2087,-0.2019,-0.2019,-0.1885,-0.1885,0.0,0.0,0.0,0.0,0.0,0.0,0.0,0.0,-0.2087,-0.2223,-0.2223,-0.1683,-0.1077,-0.1077,-0.0606,0.0,0.0,0.0,0.0,0.0,0.0,0.0,0.0,0.0,0.0,0.0,0.0336,0.1143,0.2752,0.5496,0.7702,0.8302,0.9709,1.0717,1.0717,1.0717,1.0717,1.0717,1.0717,1.0717,1.0717,1.1571,1.2882,1.4782,1.6073,1.7765,1.9839,2.0297,2.0475,2.0602,2.0157,1.9915,1.9788,1.9328,1.9072,1.9072,1.9328,1.9328,1.9072,1.9072,1.9072,1.8944,1.6148,1.5173,1.5359,1.2487,1.1372,1.1306,1.0795,1.0582,1.048,1.0385,1.0222,0.9977,0.0,0.0,0.0,0.0,0.0,0.0,0.0,0.0,0.0,0.0,0.0,0.0,0.0,0.0,0.0,0.0,0.0,0.0,-0.2469,-0.2412,-0.2378,-0.2378,-0.2349,-0.2333,-0.2333,-0.2333,-0.2333,-0.2333,-0.2304,-0.2275,-0.2174,-0.2214,-0.2184,-0.2223,-0.2223,-0.2223,-0.2154,-0.175,-0.1616,-0.1548,-0.1212,-0.1077,-0.1077,0.0,0.0,0.0,0.0,0.0,0.0,0.0,-0.1885,-0.2223,-0.2223,-0.1683,-0.1077,-0.1077,-0.0606,0.0,0.0,0.0,0.0,0.0,0.0,0.0,0.0,0.0,0.0,0.0,0.1076,0.2217,0.2618,0.5295,0.7569,0.7897,0.951,1.0651,1.0717,1.0717,1.0717,1.0717,1.0717,1.0717,1.0717,1.0717,1.1835,1.4651,1.5219,1.6646,1.9444,1.9903,1.9966,1.9635,1.9571,1.9444,1.9136,1.9072,1.9072,1.9072,1.9072,1.9072,1.9072,1.9072,1.9072,1.8944,1.6138,1.5684,1.6775,1.3988,1.2816,1.2594,1.1062,1.0487,1.0453,1.0092,0.9984,0.9963,0.0,0.0,0.0,0.0,0.0,0.0,0.0,0.0,0.0,0.0,0.0,0.0,0.0,0.0,0.0,0.0,0.0,0.0,-0.2408,-0.2388,-0.2369,-0.2348,-0.2338,-0.2333,-0.2333,-0.2313,-0.2304,-0.2304,-0.2294,-0.2264,-0.2214,-0.2204,-0.2184,-0.2223,-0.2223,-0.2019,-0.175,-0.1683,-0.1481,-0.1212,-0.1144,-0.1077,-0.1077,0.0,0.0,0.0,0.0,0.0,0.0,0.0,0.0,0.0,-0.1414,-0.1077,-0.0673,-0.0673,-0.0337,0.0,0.0,0.0,0.0,0.0,0.0,0.0,0.0,0.0,0.0,0.0,0.0336,0.074,0.1076,0.2752,0.4626,0.6235,0.7836,0.9238,1.0518,1.0717,1.0717,1.0717,1.0717,1.0717,1.0717,1.0717,1.1439,1.3276,1.4244,1.5701,1.7748,1.8726,1.9261,1.9372,1.9137,1.9013,1.8889,1.8641,1.8529,1.8529,1.8529,1.8722,1.9072,1.9072,1.9072,1.8996,1.6935,1.635,1.6467,1.357,1.1875,1.0977,1.055,1.0276,1.0168,1.0017,0.9916,0.9883,0.0,0.0,0.0,0.0,0.0,0.0,0.0,0.0,0.0,0.0,-0.2514,-0.2514,0.0,0.0,0.0,0.0,0.0,0.0,0.0,-0.2367,-0.2352,-0.2334,-0.2333,-0.2333,-0.2333,-0.2305,-0.2285,-0.2273,-0.226,-0.2236,-0.22,-0.2188,-0.2172,-0.2223,-0.2019,-0.1818,-0.1548,-0.1279,-0.1077,-0.0808,-0.0135,-0.0135,-0.0606,0.0,0.0,0.0,0.0,0.0,0.0,0.0,0.0,0.0,-0.1077,-0.0808,-0.0471,-0.0471,-0.0269,0.0,0.0,0.0,0.0,0.0,0.0,0.0,0.0,0.0,0.0,0.0,0.0,0.0067,0.0269,0.1613,0.3289,0.5162,0.6898,0.8568,1.0253,1.0591,1.0717,1.0717,1.0717,1.0717,1.0717,1.0663,1.1213,1.258,1.3751,1.509,1.6724,1.7916,1.8717,1.89,1.8717,1.8594,1.8594,1.841,1.83,1.83,1.83,1.8456,1.877,1.877,1.877,1.8758,1.7702,1.6683,1.5531,1.3771,1.228,1.1087,1.0398,1.0134,0.9977,0.9916,0.9835,0.9822,0.0,0.0,-0.2637,-0.2604,0.0,0.0,0.0,0.0,0.0,0.0,-0.2514,-0.2514,0.0,0.0,0.0,0.0,0.0,-0.2378,-0.2375,-0.2348,-0.2333,-0.2333,-0.2333,-0.2331,-0.2328,-0.2301,-0.2271,-0.2171,-0.2214,-0.2199,-0.2195,-0.2168,-0.2155,-0.2154,-0.175,-0.1548,-0.1414,-0.0673,-0.0269,-0.0135,0.1614,0.1545,0.0537,0.1812,0.0,0.0,0.0,0.0,0.0,0.0,0.0,0.0,-0.101,-0.0741,-0.0471,-0.0471,-0.0269,0.0,0.0,0.0,0.0,0.0,0.0,0.0,0.0,0.0,0.0,0.0,0.0,0.0,0.0,0.1344,0.2952,0.4356,0.636,0.8235,0.9788,1.0386,1.0658,1.0717,1.0711,1.0697,1.0697,1.0561,1.0984,1.2266,1.3428,1.4687,1.6113,1.7357,1.8093,1.8215,1.8215,1.8215,1.8215,1.8215,1.8215,1.8215,1.8215,1.8215,1.8227,1.8275,1.8275,1.8251,1.8251,1.6741,1.4232,1.4232,1.3412,1.2019,1.0571,0.9963,0.995,0.9869,0.9822,0.9822,0.0,0.0,-0.2631,-0.2578,0.0,0.0,0.0,0.0,0.0,0.0,0.0,0.0,0.0,0.0,0.0,0.0,-0.2386,-0.2368,-0.2343,-0.2337,-0.2333,-0.2333,-0.2333,-0.2322,-0.23,-0.2271,-0.224,-0.221,-0.2203,-0.2188,-0.2232,-0.2225,-0.2019,-0.175,-0.1616,-0.1279,-0.0673,0.0605,0.1277,0.1681,0.3222,0.3601,0.3239,0.3569,0.2775,0.0,0.0,0.0,0.0,0.0,0.0,0.0,-0.0269,-0.0202,-0.0135,-0.0135,-0.0067,0.0,0.0,0.0,0.0,0.0,0.0,0.0,0.0,0.0,0.0,0.0,0.0,0.0,0.0,0.0336,0.1142,0.2887,0.449,0.616,0.8169,0.9516,1.0392,1.0658,1.0616,1.0541,1.0541,1.0412,1.0452,1.0771,1.1862,1.3049,1.4392,1.5576,1.6626,1.766,1.766,1.766,1.766,1.766,1.766,1.766,1.766,1.766,1.7672,1.8094,1.8179,1.7962,1.7962,1.6386,1.3857,1.3857,1.2465,1.0339,1.0005,0.9869,0.9869,0.9836,0.9822,0.9822,0.0,0.0,0.0,0.0,0.0,0.0,0.0,0.0,0.0,0.0,0.0,0.0,0.0,0.0,0.0,0.0,-0.2365,-0.2349,-0.2334,-0.2333,-0.2333,-0.2333,-0.232,-0.2305,-0.2292,-0.2247,-0.2217,-0.22,-0.2185,-0.217,-0.2223,-0.2019,-0.1818,-0.1616,-0.1212,-0.0471,0.0538,0.1479,0.2351,0.3289,0.4663,0.4763,0.4142,0.4829,0.4164,0.2929,0.2929,0.0,0.0,0.0,0.0,0.0,0.0,0.0,0.0,0.0,0.0,0.0,0.0,0.0,0.0,0.0,0.0,0.0,0.0,0.0,0.0,0.0,0.0,0.0,0.0,0.0,0.0538,0.215,0.3756,0.5426,0.7236,0.9045,1.0233,1.0359,1.0411,1.0466,1.0399,1.0256,1.0168,1.0168,1.1194,1.243,1.3756,1.4978,1.6172,1.7479,1.7479,1.7479,1.7479,1.7479,1.7479,1.7479,1.7479,1.7479,1.7491,1.7781,1.7829,1.7684,1.7684,1.6164,1.3725,1.3725,1.2165,0.9822,0.9822,0.9822,0.9822,0.9822,0.9822,0.9822,0.0,0.0,0.0,0.0,0.0,0.0,0.0,0.0,0.0,0.0,0.0,0.0,0.0,0.0,-0.2376,0.0,0.0,0.0,-0.2333,-0.2328,-0.2326,-0.2326,-0.2298,-0.2281,-0.2275,-0.2226,-0.2198,-0.2192,-0.2166,-0.2154,-0.2087,-0.175,-0.1548,-0.1346,-0.0538,0.0538,0.1748,0.2486,0.3553,0.4742,0.614,0.5896,0.4887,0.605,0.5507,0.4232,0.4232,0.3431,0.2295,0.2104,0.0,0.0,0.0,0.0,0.0,0.0,0.0,0.0,0.0,0.0,0.0,0.0,0.0,0.0,0.0,0.0,0.0,0.0,0.0,0.0,0.0,0.0,0.0404,0.1546,0.3222,0.4894,0.6435,0.8379,0.9738,0.9993,1.0207,1.0334,1.0256,1.01,0.995,0.995,1.0867,1.1933,1.3306,1.456,1.5865,1.7126,1.7361,1.7479,1.7479,1.7479,1.7479,1.7479,1.7479,1.7479,1.7479,1.7479,1.7479,1.7479,1.7479,1.6053,1.3725,1.3725,1.2165,0.9822,0.9822,0.9822,0.9822,0.9822,0.9822,0.9822,0.0,0.0,0.0,0.0,0.0,0.0,0.0,0.0,0.0,0.0,-0.2472,-0.2448,0.0,-0.2383,-0.2368,-0.2341,-0.2335,-0.2333,-0.2333,0.0,0.0,-0.2296,-0.2267,-0.2238,-0.2213,-0.2204,-0.2187,-0.2228,-0.2224,-0.2019,-0.1683,-0.1616,-0.1279,-0.0606,0.074,0.1614,0.2218,0.4766,0.5929,0.6124,0.7566,0.7899,0.7592,0.7765,0.6939,0.5619,0.5619,0.4779,0.3491,0.2359,0.191,0.0,0.0,0.0,0.0,0.0,0.0,0.0,0.0,0.0,0.0,0.0,0.0,0.0,0.0,0.0,0.0,0.0,0.0,0.0,0.0,0.0,0.0067,0.0269,0.1479,0.3088,0.4824,0.6435,0.8066,0.9791,0.9864,0.9856,1.0031,0.9883,0.9849,0.9849,0.995,1.0604,1.1872,1.3246,1.456,1.5806,1.6938,1.7479,1.7479,1.7479,1.7479,1.7479,1.7479,1.7479,1.7479,1.7479,1.7479,1.7479,1.7479,1.6053,1.3725,1.3725,1.2165,0.9822,0.9822,0.9822,0.9822,0.9822,0.9822,0.9822,0.0,0.0,0.0,0.0,0.0,0.0,0.0,0.0,0.0,0.0,0.0,-0.1731,0.0,-0.192,-0.2054,-0.2042,-0.2187,-0.2326,-0.2311,-0.2298,-0.2283,-0.2266,-0.2236,-0.2214,-0.22,-0.2184,-0.2168,-0.2223,-0.1952,-0.1683,-0.1346,-0.1077,-0.0808,-0.0404,0.1143,0.2418,0.349,0.5457,0.6806,0.7546,0.8012,0.8149,0.8108,0.8037,0.7578,0.7022,0.7022,0.6148,0.4963,0.4354,0.318,0.191,0.1327,0.0,0.0,0.0,0.0,0.0,0.0,0.0,0.0,0.0,0.0,0.0,0.0,0.0,0.0,0.0,0.0,0.0,0.0,0.0,0.0,0.0,0.121,0.2687,0.4292,0.5859,0.751,0.9098,0.9475,0.9649,0.963,0.9741,0.9822,0.9822,0.9822,1.0361,1.1631,1.2946,1.4262,1.5569,1.682,1.7479,1.7479,1.7479,1.7479,1.7479,1.7479,1.7479,1.7479,1.7479,1.7479,1.7479,1.7479,1.6053,1.3725,1.3725,1.2165,0.9822,0.9822,0.9822,0.9822,0.9822,0.9822,0.9822,0.0,0.0,0.0,0.0,0.0,0.0,0.0,0.0,0.0,0.0,0.0,0.0,0.0,0.0,0.0,0.0,-0.189,-0.2021,-0.2138,-0.2202,-0.2258,-0.2234,-0.2204,-0.2188,-0.2188,-0.2234,-0.2154,-0.2019,-0.175,-0.1346,-0.0943,-0.0673,-0.0269,0.0202,0.1881,0.349,0.4894,0.6279,0.7411,0.8356,0.8138,0.8097,0.8059,0.7966,0.7872,0.7872,0.7872,0.7249,0.6385,0.6035,0.4597,0.2866,0.2232,0.1326,0.0,0.0,0.0,0.0,0.0,0.0,0.0,0.0,0.0,0.0,0.0,0.0,0.0,0.0,0.0,0.0,0.0,0.0,0.0,0.0,0.0875,0.2217,0.4026,0.5367,0.6727,0.8497,0.9136,0.9435,0.9287,0.9579,0.9822,0.9822,0.9822,1.0179,1.1148,1.2826,1.4143,1.5095,1.6644,1.7479,1.7479,1.7479,1.7479,1.7479,1.7479,1.7479,1.7479,1.7479,1.7479,1.7479,1.7185,1.5747,1.3665,1.3306,1.1864,0.9822,0.9822,0.9822,0.9822,0.9822,0.9822,0.9822,0.0,0.0,0.0,0.0,0.0,0.0,0.0,0.0,0.0,0.0,0.0,0.0,-0.1171,-0.1241,-0.1241,-0.1241,-0.1226,-0.1425,-0.1687,-0.2013,-0.2204,-0.2203,-0.2173,0.0,-0.2224,-0.2223,-0.2019,-0.1616,-0.1616,-0.1212,-0.0539,-0.0539,0.0404,0.2017,0.349,0.4964,0.6368,0.7736,0.8286,0.8236,0.8106,0.8048,0.7939,0.7872,0.7872,0.7872,0.7872,0.7872,0.7587,0.6326,0.5796,0.5262,0.2804,0.1975,0.1652,0.0,0.0,0.0,0.0,0.0,0.0,0.0,0.0,0.0,0.0,0.0,0.0,0.0,0.0,0.0,0.0,0.0,0.0,0.0,0.0067,0.1076,0.3892,0.4245,0.536,0.837,0.8884,0.9125,0.9287,0.9579,0.9822,0.9822,0.9822,0.9822,0.9883,1.2346,1.3725,1.3784,1.6231,1.7479,1.7479,1.7479,1.7479,1.7479,1.7479,1.7479,1.7479,1.7479,1.7479,1.742,1.6231,1.4917,1.3605,1.2346,1.1027,0.9822,0.9822,0.9822,0.9822,0.9822,0.9822,0.9822,0.0,0.0,0.0,0.0,0.0,0.0,0.0,0.0,0.0,0.0,0.0,0.0,0.0,-0.0657,-0.08,-0.0794,-0.1068,-0.1265,-0.1316,-0.1448,-0.1506,-0.1493,-0.1687,-0.1683,-0.1481,-0.1683,-0.1616,-0.1279,-0.101,-0.0741,-0.0471,0.0673,0.2016,0.3557,0.4093,0.5072,0.6415,0.7697,0.8231,0.8106,0.7986,0.7971,0.7872,0.7872,0.7872,0.7872,0.7872,0.7872,0.7816,0.7367,0.6616,0.5737,0.4779,0.3927,0.2992,0.1651,0.0668,0.0,0.0,0.0,0.0,0.0,0.0,0.0,0.0,0.0,0.0,0.0,0.0,0.0,0.0,0.0,0.0,0.0,0.0,0.0673,0.262,0.3489,0.4723,0.6814,0.7994,0.8725,0.9044,0.9335,0.9579,0.9761,0.9822,0.9822,0.9822,1.2286,1.3725,1.3725,1.6172,1.7479,1.7479,1.7479,1.7479,1.7479,1.7479,1.7479,1.7479,1.7479,1.7479,1.7361,1.5273,1.4143,1.3605,1.2225,1.0967,0.9822,0.9822,0.9822,0.9822,0.9822,0.9822,0.9822,0.0,0.0,0.0,0.0,0.0,0.0,0.0,0.0,0.0,0.0,0.0,0.0,0.0,0.0,-0.0432,-0.0424,-0.0771,-0.097,-0.0888,-0.1024,-0.1087,-0.1078,-0.1346,-0.1346,-0.1077,-0.1346,-0.1279,-0.0875,-0.0606,-0.0471,-0.0269,0.1345,0.2888,0.4294,0.4763,0.5727,0.7024,0.783,0.8166,0.8103,0.7982,0.7872,0.7872,0.7872,0.7872,0.7872,0.7872,0.7872,0.7872,0.7872,0.7306,0.65,0.6031,0.4959,0.3742,0.2948,0.1723,0.0669,0.0672,0.0336,0.0,0.0,0.0,0.0135,0.0606,0.0336,0.0135,0.0606,0.0336,0.0,0.0,0.0,0.0,0.0,0.0,0.0471,0.1882,0.3146,0.4438,0.5913,0.7453,0.8488,0.8732,0.9098,0.9396,0.964,0.9761,0.9822,0.9822,1.1864,1.3426,1.4321,1.6408,1.7479,1.7479,1.7479,1.7479,1.7479,1.7479,1.7479,1.7479,1.7479,1.7479,1.7361,1.4798,1.3725,1.3545,1.1804,1.0543,0.9822,0.9822,0.9822,0.9822,0.9822,0.9822,0.9822,0.0,0.0,0.0,0.0077,0.0077,0.0076,0.0149,0.0149,0.0148,0.0146,0.0,0.0,0.0,0.0,0.0,0.0,-0.0275,-0.0478,-0.0472,-0.0875,-0.1077,-0.1077,-0.1077,-0.1077,-0.1077,-0.1077,-0.0875,-0.0471,-0.0471,-0.0269,0.0067,0.1479,0.2956,0.4428,0.5834,0.719,0.8405,0.8285,0.816,0.8103,0.7982,0.7872,0.7872,0.7872,0.7872,0.7872,0.7872,0.7872,0.7872,0.7872,0.7872,0.7643,0.6385,0.502,0.3997,0.412,0.3154,0.2046,0.0,0.0,0.0,0.0067,0.0067,0.0404,0.1748,0.1009,0.0404,0.1815,0.1009,0.0067,0.0067,0.0067,0.0067,0.0,0.0,0.0471,0.1814,0.3081,0.4438,0.5845,0.7453,0.8372,0.8372,0.8915,0.9275,0.9275,0.964,0.9822,0.9822,1.1027,1.2946,1.551,1.682,1.7479,1.7479,1.7479,1.7479,1.7479,1.7479,1.7479,1.7479,1.7479,1.742,1.7303,1.4738,1.3665,1.3426,1.0846,0.9822,0.9822,0.9822,0.9822,0.9822,0.9822,0.9822,0.9822,0.0,0.0,0.0386,0.1448,0.166,0.202,0.3192,0.3386,0.3435,0.0,0.0,0.0,0.1643,0.0703,0.0,0.0,-0.0068,-0.0135,-0.0135,-0.0269,-0.0337,-0.0337,-0.0539,-0.0539,-0.0337,-0.0539,-0.0471,-0.0135,-0.0135,0.0404,0.1546,0.3023,0.4428,0.59,0.7238,0.8003,0.8285,0.8183,0.8111,0.7982,0.7883,0.7872,0.7872,0.7872,0.7872,0.7872,0.7872,0.7872,0.7872,0.7872,0.7872,0.7816,0.748,0.6442,0.5322,0.5411,0.4529,0.3555,0.3569,0.0,0.0,0.0,0.0,0.0,0.074,0.0269,0.0404,0.1815,0.1815,0.1546,0.1546,0.1546,0.121,0.0135,0.0,0.0134,0.0531,0.2475,0.4037,0.4437,0.6593,0.8122,0.8372,0.8793,0.9098,0.9275,0.964,0.9822,0.9822,1.1924,1.3904,1.5569,1.682,1.7479,1.7479,1.7479,1.7479,1.7479,1.7479,1.7479,1.7479,1.6526,1.6113,1.5994,1.3366,1.2225,1.2113,1.0482,0.9822,0.9822,0.9822,0.9822,0.9822,0.9822,0.9822,0.9822,0.1839,0.1986,0.2208,0.3156,0.3278,0.3627,0.4562,0.4679,0.4649,0.0,0.0,0.0,0.3161,0.2342,0.1768,0.1768,0.1823,0.1814,0.1814,0.121,0.0875,0.0875,0.0135,-0.0202,0.0,-0.0202,0.0067,0.0875,0.0875,0.1614,0.3023,0.4495,0.5637,0.6439,0.7807,0.835,0.8167,0.8182,0.8046,0.7872,0.7872,0.7872,0.7872,0.7872,0.7872,0.7872,0.7872,0.7872,0.7872,0.7872,0.7872,0.7872,0.7872,0.7362,0.674,0.6781,0.5863,0.4849,0.4943,0.4607,0.3993,0.3131,0.0,0.0,0.2754,0.2217,0.2217,0.3627,0.3425,0.3023,0.3023,0.3023,0.2749,0.1867,0.1732,0.1529,0.0923,0.2598,0.4095,0.4665,0.658,0.7994,0.8183,0.8488,0.8793,0.9098,0.9396,0.964,0.9822,1.1744,1.3485,1.4798,1.6053,1.695,1.7479,1.7479,1.7479,1.7479,1.7479,1.7479,1.7479,1.6172,1.5569,1.5451,1.2826,1.1692,1.1571,1.0301,0.9822,0.9822,0.9822,0.9822,0.9822,0.9822,0.9822,0.9822,0.0,0.467,0.4726,0.4889,0.4952,0.5008,0.5174,0.5232,0.5132,0.0,0.4837,0.4642,0.4319,0.4324,0.4294,0.4294,0.4294,0.4294,0.4294,0.309,0.2353,0.2353,0.1143,0.0471,0.0471,0.0471,0.1076,0.2353,0.2353,0.309,0.4562,0.5837,0.651,0.6706,0.7858,0.8339,0.8225,0.8089,0.8032,0.7872,0.7872,0.7872,0.7872,0.7872,0.7872,0.7872,0.7872,0.7872,0.7872,0.7872,0.7872,0.7872,0.7872,0.7872,0.7955,0.8065,0.7166,0.6185,0.626,0.5447,0.4526,0.433,0.4435,0.0,0.5878,0.5142,0.4609,0.5878,0.5142,0.4206,0.4073,0.4073,0.3993,0.3689,0.3743,0.3476,0.2357,0.3301,0.4533,0.5788,0.7069,0.7872,0.7872,0.8183,0.8549,0.8854,0.9153,0.9457,0.9761,1.1027,1.2294,1.3665,1.4917,1.6231,1.7479,1.7479,1.7479,1.7479,1.7479,1.742,1.7244,1.5983,1.5332,1.5035,1.2586,1.1511,1.139,1.024,0.9822,0.9822,0.9822,0.9822,0.9822,0.9822,0.9822,0.9822,0.4622,0.4683,0.5111,0.6363,0.6566,0.6998,0.8218,0.8289,0.823,0.8206,0.7,0.5697,0.4454,0.43,0.4294,0.4294,0.4294,0.4294,0.4294,0.4026,0.3892,0.3892,0.3624,0.349,0.349,0.349,0.3624,0.3892,0.3892,0.4629,0.5971,0.6243,0.7045,0.8174,0.8237,0.8194,0.8156,0.8002,0.7894,0.7872,0.7872,0.7872,0.7872,0.7872,0.7872,0.7872,0.7872,0.7872,0.7872,0.7872,0.7872,0.7872,0.7872,0.7872,0.7877,0.796,0.779,0.7681,0.7702,0.7536,0.7107,0.6005,0.5755,0.0,0.4606,0.4153,0.4088,0.4477,0.4347,0.3829,0.2726,0.2532,0.2148,0.0986,0.1695,0.2703,0.3433,0.4687,0.5592,0.5883,0.7087,0.7872,0.7872,0.8183,0.8549,0.8854,0.9396,0.9761,0.9822,1.1027,1.2294,1.3665,1.4917,1.6231,1.7479,1.7479,1.7479,1.7479,1.7479,1.695,1.5924,1.4679,1.3485,1.2406,1.0846,1.0179,1.0126,0.9883,0.9822,0.9822,0.9822,0.9822,0.9822,0.9822,0.9822,0.9822,0.684,0.697,0.7246,0.8005,0.8098,0.8284,0.9077,0.9117,0.9024,0.8959,0.8176,0.7305,0.651,0.6439,0.6439,0.6439,0.6439,0.6439,0.6439,0.5767,0.5369,0.5369,0.4696,0.4294,0.4294,0.4294,0.4629,0.5369,0.5369,0.6105,0.7512,0.7512,0.7887,0.8497,0.8318,0.8204,0.8133,0.7948,0.7872,0.7872,0.7872,0.7872,0.7872,0.7872,0.7872,0.7872,0.7872,0.7872,0.7872,0.7872,0.7872,0.7872,0.7872,0.7872,0.7872,0.7872,0.7977,0.8026,0.8026,0.8051,0.7954,0.7248,0.7096,0.0,0.0,0.6046,0.6046,0.611,0.6174,0.5917,0.5272,0.4631,0.3922,0.3151,0.3579,0.4239,0.4801,0.5449,0.6131,0.6841,0.75,0.7872,0.7872,0.8055,0.8366,0.8854,0.9275,0.964,0.9822,1.0422,1.1683,1.3665,1.4321,1.5569,1.7479,1.7479,1.7479,1.7479,1.7479,1.682,1.5569,1.4262,1.2946,1.1631,1.0361,0.9822,0.9822,0.9822,0.9822,0.9822,0.9822,0.9822,0.9822,0.9822,0.9822,0.9822,0.9034,0.9302,0.9296,0.9275,0.9193,0.9128,0.9035,0.8927,0.8872,0.8753,0.8649,0.859,0.859,0.859,0.859,0.859,0.859,0.859,0.859,0.7512,0.6844,0.6844,0.5767,0.5098,0.5098,0.5098,0.5704,0.6844,0.6844,0.7445,0.859,0.859,0.8524,0.841,0.8291,0.8166,0.8108,0.8049,0.7994,0.7994,0.7994,0.7933,0.7872,0.7872,0.7872,0.7872,0.7872,0.7872,0.7872,0.7872,0.7872,0.7872,0.7872,0.7872,0.7872,0.7872,0.7872,0.7872,0.7872,0.8004,0.8081,0.8081,0.8095,0.8166,0.0,0.0,0.0,0.778,0.7785,0.7653,0.7399,0.6502,0.5784,0.5667,0.5894,0.6052,0.5941,0.6106,0.6673,0.776,0.7872,0.7872,0.7872,0.7933,0.8238,0.8854,0.9159,0.9457,0.9761,0.9822,1.0906,1.3246,1.3545,1.4679,1.6762,1.7009,1.7009,1.6762,1.6762,1.6113,1.4798,1.3784,1.2586,1.1269,1.0247,0.9822,0.9822,0.9822,0.9822,0.9822,0.9822,0.9822,0.9822,0.9822,0.9822,0.9822,0.9235,0.9302,0.9275,0.9171,0.9144,0.9025,0.8922,0.8867,0.8747,0.8622,0.8595,0.859,0.859,0.859,0.859,0.859,0.859,0.859,0.859,0.8451,0.8318,0.8318,0.8184,0.8117,0.8117,0.8117,0.8184,0.8318,0.8318,0.8451,0.859,0.859,0.8524,0.841,0.8291,0.8166,0.8108,0.8301,0.8366,0.8366,0.8366,0.8183,0.7872,0.7872,0.7872,0.7872,0.7872,0.7872,0.7872,0.7872,0.7872,0.7872,0.7872,0.7872,0.7872,0.7872,0.7872,0.7872,0.7872,0.7883,0.7955,0.7955,0.7899,0.7915,0.7915,0.0,0.7603,0.643,0.0,0.5814,0.4635,0.0,0.0,0.4145,0.5164,0.5945,0.5894,0.6898,0.7699,0.7872,0.7872,0.7872,0.7872,0.8183,0.8488,0.8854,0.9159,0.9457,0.9761,0.9822,1.0422,1.1872,1.3066,1.3844,1.4143,1.5273,1.5273,1.4143,1.4143,1.3426,1.2113,1.1993,1.1209,1.0004,0.9883,0.9822,0.9822,0.9822,0.9822,0.9822,0.9822,0.9822,0.9822,0.9822,0.9822,0.9822,0.9264,0.9204,0.9166,0.8976,0.897,0.8905,0.8856,0.8742,0.8644,0.8595,0.859,0.859,0.859,0.859,0.859,0.859,0.859,0.859,0.859,0.859,0.859,0.859,0.859,0.859,0.859,0.859,0.859,0.859,0.859,0.859,0.8584,0.8519,0.8426,0.8307,0.8182,0.8062,0.8004,0.8077,0.8122,0.8122,0.8305,0.8305,0.8183,0.8183,0.8183,0.8183,0.7994,0.7872,0.7872,0.7872,0.7872,0.7872,0.7872,0.7872,0.7872,0.7872,0.7872,0.7872,0.7872,0.7872,0.7872,0.7872,0.7872,0.7872,0.7872,0.7872,0.775,0.7194,0.0,0.0,0.0,0.0,0.0,0.0,0.5559,0.5921,0.5895,0.704,0.7872,0.7872,0.7872,0.7872,0.7872,0.8055,0.8244,0.861,0.8732,0.8976,0.9457,0.9518,1.0186,1.1631,1.2225,1.2886,1.3665,1.4202,1.4202,1.3725,1.3725,1.3006,1.1692,1.1692,1.1027,0.9822,0.9822,0.9822,0.9822,0.9822,0.9822,0.9822,0.9822,0.9822,0.9822,0.9822,0.9822,0.9822,0.9369,0.9338,0.9257,0.906,0.9034,0.9098,0.9064,0.8985,0.8923,0.8923,0.879,0.8717,0.8717,0.8656,0.859,0.859,0.859,0.859,0.859,0.859,0.859,0.859,0.859,0.859,0.859,0.859,0.859,0.859,0.859,0.859,0.8584,0.847,0.835,0.8167,0.8106,0.8048,0.7933,0.8116,0.8177,0.8177,0.8549,0.8671,0.861,0.8494,0.8372,0.8366,0.7994,0.7872,0.7872,0.7872,0.7872,0.7872,0.7872,0.7872,0.7872,0.7872,0.7872,0.7872,0.7872,0.7872,0.7872,0.7872,0.7872,0.7872,0.7872,0.7872,0.7872,0.7872,0.7872,0.0,0.0,0.0,0.646,0.646,0.0,0.646,0.646,0.7255,0.7872,0.7872,0.7872,0.7872,0.7872,0.7872,0.8055,0.8372,0.8372,0.8671,0.9275,0.9275,0.9883,1.1148,1.1511,1.1993,1.2646,1.3006,1.3006,1.2646,1.2646,1.2105,1.1209,1.1209,1.0664,0.9822,0.9822,0.9822,0.9822,0.9822,0.9822,0.9822,0.9822,0.9822,0.9822,0.9822,0.9822,0.9822,0.9819,0.9904,0.9814,0.9342,0.9585,0.974,0.9685,0.9667,0.9661,0.9661,0.9322,0.9117,0.9117,0.8784,0.859,0.859,0.859,0.859,0.859,0.859,0.859,0.859,0.859,0.859,0.859,0.859,0.859,0.859,0.859,0.859,0.8584,0.847,0.835,0.8167,0.8106,0.8048,0.7933,0.861,0.8854,0.8915,0.9153,0.9275,0.9214,0.861,0.8372,0.8366,0.7994,0.7872,0.7872,0.7872,0.7872,0.7872,0.7872,0.7872,0.7872,0.7872,0.7872,0.7872,0.7872,0.7872,0.7872,0.7872,0.7872,0.7872,0.7872,0.7872,0.7872,0.7872,0.7872,0.7872,0.7872,0.7872,0.7811,0.7811,0.7811,0.0,0.0,0.7872,0.7872,0.7872,0.7872,0.7872,0.7872,0.7872,0.8055,0.8372,0.8372,0.8671,0.9275,0.9275,0.9457,0.9822,1.1088,1.1148,0.9943,1.1148,1.1148,0.9943,0.9943,0.9883,0.9883,0.9883,0.9822,0.9822,0.9822,0.9822,0.9822,0.9822,0.9822,0.9822,0.9822,0.9822,0.9822,0.9822,0.9822,0.9822,1.0136,1.0296,1.0248,0.9667,0.9661,0.971,0.9734,0.9728,0.9728,0.9728,0.9594,0.9522,0.9522,0.9395,0.9328,0.9328,0.9056,0.8917,0.8917,0.8723,0.859,0.859,0.859,0.859,0.859,0.859,0.859,0.859,0.859,0.859,0.8584,0.8388,0.8274,0.8161,0.8024,0.7971,0.7933,0.8366,0.8555,0.861,0.9092,0.9457,0.9579,0.8976,0.8854,0.8915,0.8427,0.8244,0.8183,0.7994,0.7872,0.7872,0.7872,0.7872,0.7872,0.7872,0.7872,0.7872,0.7872,0.7872,0.7872,0.7872,0.7872,0.7872,0.7872,0.7872,0.7872,0.7872,0.7872,0.7872,0.7872,0.7872,0.7872,0.7872,0.7872,0.7872,0.0,0.7872,0.7872,0.7872,0.7872,0.7872,0.7872,0.7872,0.7933,0.8055,0.8055,0.8244,0.8671,0.8915,0.9159,0.9457,1.0126,1.0247,0.9822,1.0247,1.0247,0.9822,0.9822,0.9822,0.9822,0.9822,0.9822,0.9822,0.9822,0.9822,0.9822,0.9822,0.9822,0.9822,0.9822,0.9822,0.9822,0.9822,0.9822,0.9822,1.0392,1.0518,1.0518,0.9994,0.9994,1.006,1.006,1.006,1.006,1.006,0.9927,0.9861,0.9861,0.9794,0.9728,0.9728,0.9455,0.925,0.9117,0.8917,0.8723,0.859,0.859,0.859,0.859,0.859,0.859,0.859,0.859,0.859,0.0,0.0,0.0,0.8161,0.8024,0.7971,0.7933,0.8366,0.8549,0.861,0.9214,0.9579,0.9761,0.9335,0.9275,0.9214,0.861,0.8372,0.8366,0.7994,0.7872,0.7872,0.7872,0.7872,0.7872,0.7872,0.7872,0.7872,0.7872,0.7872,0.7872,0.7872,0.7872,0.7872,0.7872,0.7872,0.7872,0.7872,0.7872,0.7872,0.7872,0.7872,0.7872,0.7872,0.7872,0.7872,0.0,0.7872,0.7872,0.7872,0.7872,0.7872,0.7872,0.7872,0.7872,0.7872,0.7872,0.8055,0.8372,0.8732,0.9037,0.9275,0.964,0.9822,0.9822,0.9822,0.9822,0.9822,0.9822,0.9822,0.9822,0.9822,0.9822,0.9822,0.9822,0.9822,0.9822,0.9822,0.9822,0.9822,0.9822,0.9822,0.9822,0.9822,0.9822,0.9822,1.0717,1.0717,1.0585,1.0259,1.0518,1.0717,1.0717,1.0717,1.0717,1.0717,1.0392,1.0193,1.0193,0.9927,0.9728,0.9728,0.9728,0.9594,0.9183,0.9117,0.8984,0.8651,0.859,0.859,0.859,0.859,0.859,0.859,0.859,0.859,0.0,0.0,0.0,0.0,0.8111,0.8054,0.8,0.861,0.8915,0.8976,0.9579,0.9822,0.9822,0.9822,0.9579,0.9275,0.8671,0.8433,0.8372,0.8055,0.7933,0.7872,0.7872,0.7872,0.7872,0.7872,0.7872,0.7872,0.7872,0.7872,0.7872,0.7872,0.7872,0.7872,0.7872,0.7872,0.7872,0.7872,0.7872,0.7872,0.7872,0.7872,0.7872,0.7872,0.7872,0.7872,0.7872,0.7872,0.7872,0.7872,0.7872,0.7872,0.7872,0.7872,0.7872,0.7872,0.7872,0.8055,0.8366,0.8671,0.8976,0.9275,0.9579,0.9761,0.9822,0.9822,0.9822,0.9822,0.9822,0.9822,0.9822,0.9822,0.9822,0.9822,0.9822,0.9822,0.9822,0.9822,0.9822,0.9822,0.9822,0.9822,0.9822,0.9822,0.9822,0.9822,1.0717,1.0717,1.0658,1.0585,1.0651,1.0717,1.0717,1.0717,1.0717,1.0717,1.0651,1.0591,1.0591,1.0518,1.0459,1.0459,1.0193,1.006,0.9921,0.9383,0.905,0.8984,0.8717,0.859,0.859,0.859,0.859,0.859,0.859,0.859,0.8584,0.0,0.0,0.0,0.8149,0.8222,0.8369,0.8775,0.9159,0.9579,0.9761,0.9822,0.9822,0.9822,0.9761,0.964,0.9214,0.8915,0.8732,0.8366,0.8122,0.7872,0.7872,0.7872,0.7872,0.7872,0.7872,0.7872,0.7872,0.7872,0.7872,0.7872,0.7872,0.7872,0.7872,0.7872,0.7872,0.7872,0.7872,0.7872,0.7872,0.7872,0.7872,0.7872,0.7872,0.7872,0.7872,0.7872,0.7872,0.7872,0.7872,0.7872,0.7872,0.7872,0.7872,0.7872,0.7872,0.7933,0.7994,0.8366,0.8671,0.8976,0.9275,0.9518,0.9822,0.9822,0.9822,0.9822,0.9822,0.9822,0.9822,0.9822,0.9822,0.9822,0.9822,0.9822,0.9822,0.9822,0.9822,0.9822,0.9822,0.9822,0.9822,0.9822,0.9822,0.9822,1.0717,1.0717,1.0717,1.0717,1.0717,1.0717,1.0717,1.0717,1.0717,1.0717,1.0717,1.0717,1.0717,1.0717,1.0717,1.0717,1.0518,1.0392,1.0193,0.9788,0.9522,0.9389,0.8989,0.8784,0.8784,0.8656,0.859,0.859,0.859,0.859,0.8584,0.0,0.0,0.0,0.8274,0.8344,0.8539,0.8909,0.9335,0.9822,0.9822,0.9822,0.0,0.9822,0.9822,0.9761,0.9579,0.9335,0.9037,0.8732,0.8488,0.836,0.836,0.8244,0.8122,0.8122,0.7994,0.7872,0.7872,0.7872,0.7872,0.7872,0.7872,0.7872,0.7872,0.7872,0.7872,0.7872,0.7872,0.7872,0.7872,0.7872,0.7872,0.7872,0.7872,0.7872,0.7872,0.7872,0.7872,0.7872,0.7872,0.7872,0.7872,0.7872,0.7872,0.7872,0.7872,0.7872,0.7872,0.8244,0.8549,0.8915,0.9037,0.9335,0.9822,0.964,0.964,0.9822,0.9822,0.9822,0.9822,0.9822,0.9822,0.9822,0.9822,0.9822,0.9822,0.9822,0.9822,0.9822,0.9822,0.9822,0.9822,0.9822,0.9822,0.9822,1.0717,1.0717,1.0717,1.0717,1.0717,1.0717,1.0717,1.0717,1.0717,1.0717,1.0717,1.0717,1.0717,1.0717,1.0717,1.0717,1.0717,1.0585,1.0259,1.0193,1.006,0.9794,0.9389,0.9183,0.9117,0.8784,0.8651,0.859,0.859,0.859,0.0,0.0,0.0,0.0,0.0,0.8537,0.8664,0.9174,0.9538,0.9822,0.9822,0.9822,0.9822,0.9822,0.9822,0.9822,0.9822,0.9579,0.9275,0.9037,0.8915,0.8915,0.8915,0.8671,0.8494,0.8494,0.8244,0.8055,0.8055,0.7994,0.7994,0.7994,0.7933,0.7872,0.7872,0.7872,0.7872,0.7872,0.7872,0.7872,0.7872,0.7872,0.7872,0.7872,0.7872,0.7872,0.7872,0.7872,0.7872,0.7872,0.7872,0.0,0.7872,0.7872,0.7872,0.7872,0.7872,0.7872,0.7872,0.8183,0.8488,0.8793,0.8854,0.9098,0.97,0.9396,0.9457,0.9761,0.9761,0.9822,0.9822,0.9822,0.9822,0.9822,0.9822,0.9822,0.9822,0.9822,0.9822,0.9822,0.9822,0.9822,0.9822,0.9822,0.9822,0.9822,1.0717,1.0717,1.0717,1.0717,1.0717,1.0717,1.0717,1.0717,1.0717,1.0717,1.0717,1.0717,1.0717,1.0717,1.0717,1.0717,1.0717,1.0651,1.0591,1.0326,1.0193,1.0127,0.9794,0.9455,0.9117,0.905,0.8851,0.859,0.859,0.859,0.859,0.0,0.0,0.0,0.0,0.905,0.943,0.9771,0.9876,0.9822,0.9822,0.9822,0.9822,0.9822,0.9822,0.9822,0.9822,0.9579,0.9275,0.9275,0.9098,0.8915,0.8915,0.8854,0.8793,0.8793,0.8793,0.8732,0.8732,0.8549,0.8305,0.8305,0.8122,0.7872,0.7872,0.7872,0.7872,0.7872,0.7872,0.7872,0.7872,0.7872,0.7872,0.7872,0.7872,0.7872,0.7872,0.7872,0.7872,0.7872,0.7872,0.7872,0.7872,0.7872,0.7872,0.7872,0.7872,0.7872,0.7872,0.7933,0.8116,0.8488,0.8488,0.8671,0.9037,0.9214,0.9335,0.9396,0.964,0.9822,0.9822,0.9822,0.9822,0.9822,0.9822,0.9822,0.9822,0.9822,0.9822,0.9822,0.9822,0.9822,0.9822,0.9822,0.9822,0.9822,1.0717,1.0717,1.0717,1.0717,1.0717,1.0717,1.0717,1.0717,1.0717,1.0717,1.0717,1.0717,1.0717,1.0717,1.0717,1.0717,1.0717,1.0717,1.0717,1.0518,1.0459,1.0459,1.0127,0.9861,0.9655,0.9522,0.9256,0.8851,0.8851,0.8784,0.859,0.859,0.859,0.8651,0.0,0.9257,0.9506,0.9863,0.9943,0.9869,0.9849,0.9822,0.9822,0.9822,0.9822,0.9822,0.9822,0.97,0.9579,0.9579,0.9457,0.9335,0.9335,0.9214,0.9098,0.9098,0.9037,0.8915,0.8915,0.8793,0.861,0.8433,0.8305,0.8122,0.7933,0.7872,0.7872,0.7872,0.7872,0.7872,0.7872,0.7872,0.7872,0.7872,0.7872,0.7872,0.7872,0.7872,0.7872,0.7872,0.7872,0.7872,0.7872,0.7872,0.7872,0.7872,0.7872,0.7872,0.7872,0.7872,0.8055,0.8372,0.8244,0.8427,0.9098,0.9098,0.9275,0.9579,0.97,0.9822,0.9822,0.9822,0.9822,0.9822,0.9822,0.9822,0.9822,0.9822,0.9822,0.9822,0.9822,0.9822,0.9822,0.9822,0.9822,0.9822,1.0717,1.0717,1.0717,1.0717,1.0717,1.0717,1.0717,1.0717,1.0717,1.0717,1.0717,1.0717,1.0717,1.0717,1.0717,1.0717,1.0717,1.0717,1.0717,1.0717,1.0717,1.0717,1.0459,1.0259,1.0193,0.9927,0.9594,0.925,0.925,0.9039,0.8751,0.8706,0.8717,0.8717,0.9216,0.9484,0.9571,0.9926,1.0044,0.9977,0.9856,0.9849,0.9822,0.9822,0.9822,0.9822,0.9822,0.9822,0.9822,0.9822,0.9822,0.9822,0.9822,0.964,0.9396,0.9396,0.9281,0.9098,0.9098,0.9037,0.8915,0.8671,0.8488,0.8305,0.8055,0.7933,0.7872,0.7872,0.7872,0.7872,0.7872,0.7872,0.7872,0.7872,0.7872,0.7872,0.7872,0.7872,0.7872,0.7872,0.7872,0.7872,0.7872,0.7872,0.7872,0.7872,0.7872,0.7872,0.7872,0.7872,0.7994,0.8305,0.8055,0.8299,0.9092,0.8976,0.9159,0.97,0.9761,0.9822,0.9822,0.9822,0.9822,0.9822,0.9822,0.9822,0.9822,0.9822,0.9822,0.9822,0.9822,0.9822,0.9822,0.9822,0.9822,0.9822,1.0717,1.0717,1.0717,1.0717,1.0717,1.0717,1.0717,1.0717,1.0717,1.0717,1.0717,1.0717,1.0717,1.0717,1.0717,1.0717,1.0717,1.0717,1.0717,1.0717,1.0717,1.0717,1.0658,1.0525,1.0193,1.0193,0.9994,0.9661,0.9661,0.9528,0.9347,0.9131,0.905,0.905,0.951,0.9773,0.9974,1.033,1.0297,0.9984,0.997,0.9883,0.9822,0.9822,0.9822,0.9822,0.9822,0.9822,0.9822,0.9822,0.9822,0.9822,0.9822,0.9761,0.9761,0.9761,0.9761,0.97,0.97,0.9518,0.9275,0.9214,0.8793,0.8372,0.8366,0.8122,0.7872,0.7872,0.7872,0.7872,0.7872,0.7872,0.7872,0.7872,0.7872,0.7872,0.7872,0.7872,0.7872,0.7872,0.7872,0.7872,0.7872,0.7872,0.7872,0.7872,0.7872,0.7872,0.7872,0.7872,0.7933,0.7933,0.7933,0.8116,0.8488,0.8732,0.9037,0.9335,0.964,0.9822,0.9822,0.9822,0.9822,0.9822,0.9822,0.9822,0.9822,0.9822,0.9822,0.9822,0.9822,0.9822,0.9822,0.9822,0.9822,0.9822,1.0717,1.0717,1.0717,1.0717,1.0717,1.0717,1.0717,1.0717,1.0717,1.0717,1.0717,1.0717,1.0717,1.0717,1.0717,1.0717,1.0717,1.0717,1.0717,1.0717,1.0717,1.0717,1.0717,1.0651,1.0525,1.0525,1.0326,0.9994,0.9994,0.9829,0.9582,0.9226,0.9117,0.9117,0.9721,1.0028,1.0162,1.0404,1.0426,1.0297,1.0058,0.995,0.9883,0.9856,0.9822,0.9822,0.9822,0.9822,0.9822,0.9822,0.9822,0.9822,0.9822,0.9822,0.9822,0.9822,0.9822,0.9822,0.9822,0.97,0.9579,0.9335,0.9092,0.8854,0.8488,0.8305,0.8122,0.7933,0.7872,0.7872,0.7872,0.7872,0.7872,0.7872,0.7872,0.7872,0.7872,0.7872,0.7872,0.7872,0.7872,0.7872,0.7872,0.7872,0.7872,0.7872,0.7872,0.7872,0.7872,0.7872,0.7872,0.7872,0.8122,0.8366,0.8671,0.8976,0.9275,0.9579,0.9761,0.9822,0.9822,0.9822,0.9822,0.9822,0.9822,0.9822,0.9822,0.9822,0.9822,0.9822,0.9822,0.9822,0.9822,0.9822,0.9822,0.9822,1.0717,1.0717,1.0717,1.0717,1.0717,1.0717,1.0717,1.0717,1.0717,1.0717,1.0717,1.0717,1.0717,1.0717,1.0717,1.0717,1.0717,1.0717,1.0717,1.0717,1.0717,1.0717,1.0717,1.0717,1.0717,1.0717,1.0585,1.0326,1.0326,1.0233,0.993,0.9528,0.9347,0.9322,0.9921,1.0193,1.0253,1.0471,1.0534,1.0473,1.0263,1.0092,1.01,0.9944,0.989,0.9883,0.9836,0.9822,0.9822,0.9822,0.9761,0.964,0.9761,0.9761,0.97,0.9761,0.9822,0.9822,0.9822,0.9822,0.9761,0.9518,0.9396,0.9153,0.8671,0.8494,0.8305,0.7994,0.7872,0.7872,0.7872,0.7872,0.7872,0.7872,0.7872,0.7872,0.7872,0.7872,0.7872,0.7872,0.7872,0.7872,0.7872,0.7872,0.7872,0.7872,0.7872,0.7872,0.7872,0.7872,0.7933,0.8055,0.8305,0.861,0.9037,0.9214,0.9457,0.9822,0.9822,0.9822,0.9822,0.9822,0.9822,0.9822,0.9822,0.9822,0.9822,0.9822,0.9822,0.9822,0.9822,0.9822,0.9822,0.9822,0.9822,0.9822,1.0717,1.0717,1.0717,1.0717,1.0717,1.0717,1.0717,1.0717,1.0717,1.0717,1.0717,1.0717,1.0717,1.0717,1.0717,1.0717,1.0717,1.0717,1.0717,1.0717,1.0717,1.0717,1.0717,1.0717,1.0717,1.0717,1.0717,1.0717,1.0717,1.0643,1.0493,1.0169,0.9855,0.9728,1.006,1.0193,1.0193,1.0585,1.0629,1.0493,1.0487,1.0399,1.0263,1.0044,0.9984,0.9963,0.9876,0.9822,0.9822,0.9822,0.9579,0.9335,0.97,0.9579,0.9396,0.97,0.9822,0.9822,0.9822,0.9822,0.9822,0.9822,0.9518,0.9214,0.8976,0.861,0.8305,0.7994,0.7872,0.7872,0.7872,0.7872,0.7872,0.7872,0.7872,0.7872,0.7872,0.7872,0.7872,0.7872,0.7872,0.7872,0.7872,0.7872,0.7872,0.7872,0.7872,0.7872,0.7872,0.7872,0.8055,0.8372,0.8372,0.8671,0.9275,0.9275,0.9457,0.9822,0.9822,0.9822,0.9822,0.9822,0.9822,0.9822,0.9822,0.9822,0.9822,0.9822,0.9822,0.9822,0.9822,0.9822,0.9822,0.9822,0.9822,0.9822,1.0717,1.0717,1.0717,1.0717,1.0717,1.0717,1.0717,1.0717,1.0717,1.0717,1.0717,1.0717,1.0717,1.0717,1.0717,1.0717,1.0717,1.0717,1.0717,1.0717,1.0717,1.0717,1.0717,1.0717,1.0717,1.0717,1.0717,1.0717,1.0717,1.0565,1.032,1.0452,1.0346,1.006,1.0392,1.0518,1.0518,1.0651,1.069,1.0636,1.0534,1.0466,1.0412,1.0263,1.0209,1.0188,0.997,0.9916,0.9903,0.9856,0.9457,0.9098,0.9396,0.9275,0.9098,0.9396,0.9457,0.9518,0.9761,0.9822,0.9822,0.9822,0.97,0.9579,0.9214,0.8976,0.861,0.7994,0.8055,0.8183,0.7933,0.7872,0.7872,0.7872,0.7872,0.7872,0.7872,0.7872,0.7872,0.7872,0.7872,0.7872,0.7872,0.7872,0.7872,0.7872,0.7872,0.7872,0.7872,0.7872,0.7933,0.8055,0.8488,0.8854,0.9037,0.9457,0.97,0.9822,0.9822,0.9822,0.9822,0.9822,0.9822,0.9822,0.9822,0.9822,0.9822,0.9822,0.9822,0.9822,0.9822,0.9822,0.9822,0.9822,0.9822,0.9822,1.0717,1.0717,1.0717,1.0717,1.0717,1.0717,1.0717,1.0717,1.0717,1.0717,1.0717,1.0717,1.0717,1.0717,1.0717,1.0717,1.0717,1.0717,1.0717,1.0717,1.0717,1.0717,1.0717,1.0717,1.0717,1.0717,1.0717,1.0717,1.0717,1.0585,1.0392,1.0585,1.0585,1.0392,1.0591,1.0717,1.0717,1.0717,1.0717,1.0711,1.0616,1.0575,1.0561,1.0419,1.0358,1.0337,1.0188,1.0038,0.997,0.9814,0.9442,0.9037,0.8976,0.8854,0.8793,0.9037,0.9214,0.9335,0.9579,0.97,0.9822,0.9822,0.9822,0.97,0.9396,0.8976,0.861,0.836,0.8244,0.8183,0.8122,0.7994,0.7872,0.7872,0.7872,0.7872,0.7872,0.7872,0.7872,0.7872,0.7872,0.7872,0.7872,0.7872,0.7872,0.7872,0.7872,0.7872,0.7872,0.7994,0.8116,0.8299,0.8793,0.9098,0.922,0.964,0.9822,0.9822,0.9822,0.9822,0.9822,0.9822,0.9822,0.9822,0.9822,0.9822,0.9822,0.9822,0.9822,0.9822,0.9822,0.9822,0.9822,0.9822,0.9822,0.9822,1.0717,1.0717,1.0717,1.0717,1.0717,1.0717,1.0717,1.0717,1.0717,1.0717,1.0717,1.0717,1.0717,1.0717,1.0717,1.0717,1.0717,1.0717,1.0717,1.0717,1.0717,1.0717,1.0717,1.0717,1.0717,1.0717,1.0717,1.0717,1.0717,1.0717,1.0717,1.0717,1.0717,1.0717,1.0717,1.0717,1.0717,1.0717,1.0717,1.0717,1.0717,1.0717,1.0704,1.0561,1.0507,1.0487,1.0344,1.0202,1.0017,0.9761,0.9471,0.9172,0.8628,0.8439,0.8433,0.8793,0.9037,0.9275,0.9275,0.9518,0.9761,0.9761,0.9761,0.97,0.9335,0.8854,0.8549,0.8793,0.836,0.8055,0.8305,0.8122,0.7872,0.7872,0.7872,0.7872,0.7872,0.7872,0.7872,0.7872,0.7872,0.7872,0.7872,0.7872,0.7872,0.7872,0.7872,0.7872,0.7872,0.8244,0.8555,0.8854,0.9153,0.9457,0.9761,0.9761,0.9822,0.9822,0.9822,0.9822,0.9822,0.9822,0.9822,0.9822,0.9822,0.9822,0.9822,0.9822,0.9822,0.9822,0.9822,0.9822,0.9822,0.9822,0.9822,0.9822,1.0717,1.0717,1.0717,1.0717,1.0717,1.0717,1.0717,1.0717,1.0717,1.0717,1.0717,1.0717,1.0717,1.0717,1.0717,1.0717,1.0717,1.0717,1.0717,1.0717,1.0717,1.0717,1.0717,1.0717,1.0717,1.0717,1.0717,1.0717,1.0717,1.0717,1.0717,1.0717,1.0717,1.0717,1.0717,1.0717,1.0717,1.0717,1.0717,1.0717,1.0717,1.0717,1.0717,1.0677,1.0663,1.0649,1.0493,1.0419,1.0371,1.0199,0.9688,0.9131,0.8951,0.8503,0.8055,0.8427,0.8732,0.8976,0.8976,0.922,0.9396,0.9159,0.9275,0.9335,0.9037,0.9214,0.9214,0.8299,0.8421,0.8549,0.8116,0.7933,0.7872,0.7872,0.7872,0.7872,0.7872,0.7872,0.7872,0.7872,0.7872,0.7872,0.7872,0.7872,0.7872,0.7872,0.7872,0.7872,0.7872,0.8488,0.8671,0.8555,0.8854,0.9153,0.9396,0.97,0.9822,0.9822,0.9822,0.9822,0.9822,0.9822,0.9822,0.9822,0.9822,0.9822,0.9822,0.9822,0.9822,0.9822,0.9822,0.9822,0.9822,0.9822,0.9822,0.9822,1.0717,1.0717,1.0717,1.0717,1.0717,1.0717,1.0717,1.0717,1.0717,1.0717,1.0717,1.0717,1.0717,1.0717,1.0717,1.0717,1.0717,1.0717,1.0717,1.0717,1.0717,1.0717,1.0717,1.0717,1.0717,1.0717,1.0717,1.0717,1.0717,1.0717,1.0717,1.0717,1.0717,1.0717,1.0717,1.0717,1.0717,1.0717,1.0717,1.0717,1.0717,1.0717,1.0717,1.0717,1.0717,1.0711,1.0622,1.0424,1.0285,1.0212,0.9704,0.9148,0.9022,0.8613,0.82,0.8268,0.8474,0.8671,0.8671,0.8915,0.9098,0.8915,0.9037,0.9098,0.8915,0.9037,0.9031,0.8482,0.8421,0.8366,0.8183,0.7994,0.7872,0.7872,0.7872,0.7872,0.7872,0.7872,0.7872,0.7872,0.7872,0.7933,0.8122,0.7994,0.7994,0.8122,0.7994,0.7994,0.8122,0.8488,0.8671,0.861,0.9098,0.9396,0.9518,0.97,0.9822,0.9822,0.9822,0.9822,0.9822,0.9822,0.9822,0.9822,0.9822,0.9822,0.9822,0.9822,0.9822,0.9822,0.9822,0.9822,0.9822,0.9822,0.9822,0.9822,1.0717,1.0717,1.0717,1.0717,1.0717,1.0717,1.0717,1.0717,1.0717,1.0717,1.0717,1.0717,1.0717,1.0717,1.0717,1.0717,1.0717,1.0717,1.0717,1.0717,1.0717,1.0717,1.0717,1.0717,1.0717,1.0717,1.0717,1.0717,1.0717,1.0717,1.0717,1.0717,1.0717,1.0717,1.0717,1.0717,1.0717,1.0717,1.0717,1.0717,1.0717,1.0717,1.0717,1.0717,1.0717,1.0717,1.0717,1.0438,1.0006,1.0006,0.9651,0.909,0.8898,0.862,0.8386,0.8182,0.8234,0.8334,0.8311,0.8549,0.8732,0.8793,0.8793,0.8793,0.8793,0.8671,0.8549,0.8732,0.836,0.8055,0.8305,0.8116,0.7872,0.7872,0.7872,0.7872,0.7872,0.7872,0.7872,0.7872,0.7872,0.8055,0.8372,0.8122,0.8122,0.8433,0.8238,0.8177,0.8488,0.8494,0.8671,0.8976,0.9457,0.9761,0.9822,0.9822,0.9822,0.9822,0.9822,0.9822,0.9822,0.9822,0.9822,0.9822,0.9822,0.9822,0.9822,0.9822,0.9822,0.9822,0.9822,0.9822,0.9822,0.9822,0.9822,0.9822,1.0717,1.0717,1.0717,1.0717,1.0717,1.0717,1.0717,1.0717,1.0717,1.0717,1.0717,1.0717,1.0717,1.0717,1.0717,1.0717,1.0717,1.0717,1.0717,1.0717,1.0717,1.0717,1.0717,1.0717,1.0717,1.0717,1.0717,1.0717,1.0717,1.0717,1.0717,1.0717,1.0717,1.0717,1.0717,1.0717,1.0717,1.0717,1.0717,1.0717,1.0717,1.0717,1.0717,1.0717,1.0717,1.0717,1.0717,1.0439,1.0161,1.0161,0.9605,0.8968,0.8903,0.8559,0.8251,0.8147,0.8103,0.8127,0.8022,0.7994,0.8116,0.8427,0.8488,0.8488,0.8488,0.8671,0.8671,0.8177,0.8183,0.8244,0.7994,0.7933,0.7872,0.7872,0.7872,0.7872,0.7872,0.7872,0.7872,0.7872,0.7872,0.8055,0.8372,0.8366,0.8488,0.8793,0.8793,0.8793,0.8793,0.9037,0.9153,0.9214,0.9335,0.9518,0.9822,0.9822,0.9822,0.9822,0.9822,0.9822,0.9822,0.9822,0.9822,0.9822,0.9822,0.9822,0.9822,0.9822,0.9822,0.9822,0.9822,0.9822,0.9822,0.9822,0.9822,0.9822,1.0717,1.0717,1.0717,1.0717,1.0717,1.0717,1.0717,1.0717,1.0717,1.0717,1.0717,1.0717,1.0717,1.0717,1.0717,1.0717,1.0717,1.0717,1.0717,1.0717,1.0717,1.0717,1.0717,1.0717,1.0717,1.0717,1.0717,1.0717,1.0717,1.0717,1.0717,1.0717,1.0717,1.0717,1.0717,1.0717,1.0717,1.0717,1.0717,1.0717,1.0717,1.0717,1.0717,1.0717,1.0717,1.0717,1.0717,1.0392,0.9927,1.0127,0.9552,0.8772,0.897,0.8688,0.8323,0.8269,0.8111,0.8004,0.7949,0.7872,0.7933,0.8116,0.8122,0.8122,0.8122,0.8244,0.8299,0.7994,0.7994,0.8055,0.7933,0.7872,0.7872,0.7872,0.7872,0.7872,0.7872,0.7872,0.7872,0.7872,0.7872,0.8055,0.8372,0.8372,0.8549,0.8854,0.8915,0.8976,0.9098,0.9214,0.9396,0.9579,0.9579,0.964,0.9822,0.9822,0.9822,0.9822,0.9822,0.9822,0.9822,0.9822,0.9822,0.9822,0.9822,0.9822,0.9822,0.9822,0.9822,0.9822,0.9822,0.9822,0.9822,0.9822,0.9822,0.9822,1.0717,1.0717,1.0717,1.0717,1.0717,1.0717,1.0717,1.0717,1.0717,1.0717,1.0717,1.0717,1.0717,1.0717,1.0717,1.0717,1.0717,1.0717,1.0717,1.0717,1.0717,1.0717,1.0717,1.0717,1.0717,1.0717,1.0717,1.0717,1.0717,1.0717,1.0717,1.0717,1.0717,1.0717,1.0717,1.0717,1.0717,1.0717,1.0717,1.0717,1.0717,1.0717,1.0717,1.0717,1.0717,1.0717,1.0717,1.0259,0.9728,0.9994,0.9455,0.8651,0.8917,0.8723,0.8454,0.8426,0.8198,0.7948,0.7921,0.7955,0.7872,0.7872,0.7872,0.7872,0.7872,0.7872,0.7872,0.7872,0.7872,0.7872,0.7872,0.7872,0.7872,0.7872,0.7872,0.7872,0.7872,0.7872,0.7872,0.7872,0.7994,0.8122,0.8372,0.8494,0.8671,0.8976,0.8976,0.9098,0.9396,0.9396,0.9518,0.9822,0.9822,0.9822,0.9822,0.9822,0.9822,0.9822,0.9822,0.9822,0.9822,0.9822,0.9822,0.9822,0.9822,0.9822,0.9822,0.9822,0.9822,0.9822,0.9822,0.9822,0.9822,0.9822,0.9822,0.9822,1.0717,1.0717,1.0717,1.0717,1.0717,1.0717,1.0717,1.0717,1.0717,1.0717,1.0717,1.0717,1.0717,1.0717,1.0717,1.0717,1.0717,1.0717,1.0717,1.0717,1.0717,1.0717,1.0717,1.0717,1.0717,1.0717,1.0717,1.0717,1.0717,1.0717,1.0717,1.0717,1.0717,1.0717,1.0717,1.0717,1.0717,1.0717,1.0717,1.0717,1.0717,1.0717,1.0717,1.0717,1.0717,1.0717,1.0717,1.0259,0.9728,0.9728,0.9256,0.859,0.8651,0.8584,0.8557,0.8448,0.8318,0.8182,0.8136,0.8021,0.7872,0.7872,0.7872,0.7872,0.7872,0.7872,0.7872,0.7872,0.7872,0.7872,0.7872,0.7872,0.7872,0.7872,0.7872,0.7872,0.7872,0.7872,0.7872,0.7872,0.8183,0.8372,0.8372,0.8671,0.8976,0.9275,0.9275,0.9396,0.9761,0.9761,0.9761,0.9822,0.9822,0.9822,0.9822,0.9822,0.9822,0.9822,0.9822,0.9822,0.9822,0.9822,0.9822,0.9822,0.9822,0.9822,0.9822,0.9822,0.9822,0.9822,0.9822,0.9822,0.9822,0.9822,0.9822,0.9822,1.0717,1.0717,1.0717,1.0717,1.0717,1.0717,1.0717,1.0717,1.0717,1.0717,1.0717,1.0717,1.0717,1.0717,1.0717,1.0717,1.0717,1.0717,1.0717,1.0717,1.0717,1.0717,1.0717,1.0717,1.0717,1.0717,1.0717,1.0717,1.0717,1.0717,1.0717,1.0717,1.0717,1.0717,1.0717,1.0717,1.0717,1.0717,1.0717,1.0717,1.0717,1.0717,1.0717,1.0717,1.0717,1.0717,1.0717,1.0259,0.9728,0.9728,0.9189,0.859,0.859,0.859,0.8579,0.8535,0.8443,0.8339,0.8291,0.8133,0.8048,0.8048,0.7988,0.7872,0.7872,0.7872,0.7872,0.7872,0.7872,0.7872,0.7872,0.7872,0.7872,0.7872,0.7872,0.7872,0.7872,0.7872,0.7872,0.7872,0.7994,0.8116,0.8116,0.8366,0.861,0.8732,0.9098,0.9275,0.9214,0.9396,0.9579,0.9822,0.9822,0.9822,0.9822,0.9822,0.9822,0.9822,0.9822,0.9822,0.9822,0.9822,0.9822,0.9822,0.9822,0.9822,0.9822,0.9822,0.9822,0.9822,0.9822,0.9822,0.9822,0.9822,0.9822,0.9822,1.086,1.086,1.086,1.086,1.086,1.0846,1.0799,1.0792,1.0772,1.0724,1.0717,1.0717,1.0717,1.0717,1.0717,1.0717,1.0717,1.0717,1.0717,1.0717,1.0717,1.0717,1.0717,1.0717,1.0717,1.0717,1.0717,1.0717,1.0717,1.0717,1.0717,1.0717,1.0717,1.0717,1.0717,1.0717,1.0717,1.0717,1.0717,1.0717,1.0717,1.0717,1.0717,1.0717,1.0717,1.0717,1.0717,1.0259,0.9728,0.9728,0.9189,0.859,0.859,0.859,0.859,0.859,0.853,0.847,0.847,0.8323,0.816,0.8122,0.8019,0.7988,0.7988,0.796,0.7872,0.7872,0.7872,0.7872,0.7872,0.7872,0.7872,0.7872,0.7872,0.7872,0.7872,0.7872,0.7872,0.7872,0.7994,0.7994,0.7933,0.8183,0.8372,0.8372,0.8793,0.9037,0.9037,0.9214,0.9457,0.9761,0.9822,0.9822,0.9822,0.9822,0.9822,0.9822,0.9822,0.9822,0.9822,0.9822,0.9822,0.9822,0.9822,0.9822,0.9822,0.9822,0.9822,0.9822,0.9822,0.9822,0.9822,0.9822,0.9822,0.9829,1.1234,1.1234,1.1234,1.1234,1.1234,1.1118,1.09,1.088,1.0826,1.0744,1.0724,1.0724,1.0717,1.0717,1.0717,1.0717,1.0717,1.0717,1.0717,1.0717,1.0717,1.0717,1.0717,1.0717,1.0717,1.0717,1.0717,1.0717,1.0717,1.0717,1.0717,1.0717,1.0717,1.0717,1.0717,1.0717,1.0717,1.0717,1.0717,1.0717,1.0717,1.0717,1.0717,1.0717,1.0717,1.0717,1.0717,1.0259,0.9728,0.9728,0.9189,0.859,0.859,0.859,0.859,0.859,0.859,0.859,0.859,0.8508,0.8388,0.8205,0.8144,0.8119,0.8119,0.8021,0.7872,0.7872,0.7872,0.7872,0.7872,0.7872,0.7872,0.7872,0.7872,0.7872,0.7872,0.7872,0.7872,0.7872,0.8183,0.8244,0.7933,0.8183,0.8372,0.8372,0.8372,0.8671,0.9275,0.9275,0.9457,0.9761,0.9822,0.9822,0.9822,0.9822,0.9822,0.9822,0.9822,0.9822,0.9822,0.9822,0.9822,0.9822,0.9822,0.9822,0.9822,0.9822,0.9822,0.9822,0.9822,0.9822,0.9822,0.9822,0.9822,0.9842,1.1234,1.1234,1.1234,1.1234,1.1234,1.1151,1.1104,1.1097,1.105,1.0833,1.0813,1.0772,1.0731,1.0717,1.0717,1.0717,1.0717,1.0717,1.0717,1.0717,1.0717,1.0717,1.0717,1.0717,1.0717,1.0717,1.0717,1.0717,1.0717,1.0717,1.0717,1.0717,1.0717,1.0717,1.0717,1.0717,1.0717,1.0717,1.0717,1.0717,1.0717,1.0717,1.0717,1.0717,1.0717,1.0717,1.0717,1.0259,0.9728,0.9728,0.9189,0.859,0.859,0.859,0.859,0.859,0.859,0.859,0.859,0.8562,0.8508,0.8394,0.8274,0.8182,0.8182,0.8155,0.81,0.8081,0.8059,0.8037,0.7949,0.7872,0.7872,0.7872,0.7872,0.7872,0.7872,0.7872,0.7872,0.7872,0.7994,0.7994,0.7933,0.7994,0.8055,0.8055,0.8055,0.836,0.8976,0.8793,0.8793,0.9159,0.9335,0.9457,0.9457,0.97,0.9822,0.9822,0.9822,0.9822,0.9822,0.9822,0.9822,0.9822,0.9822,0.9822,0.9822,0.9822,0.9822,0.9822,0.9822,0.9822,0.9822,0.9822,0.989,0.9923,1.1341,1.1341,1.1341,1.1341,1.1341,1.1321,1.126,1.1253,1.1199,1.105,1.1029,1.0995,1.0907,1.0894,1.0873,1.0812,1.0758,1.0717,1.0717,1.0717,1.0717,1.0717,1.0717,1.0717,1.0717,1.0717,1.0717,1.0717,1.0717,1.0717,1.0717,1.0717,1.0717,1.0717,1.0717,1.0717,1.0717,1.0717,1.0717,1.0717,1.0717,1.0717,1.0717,1.0717,1.0717,1.0717,1.0717,1.0259,0.9728,0.9728,0.9189,0.859,0.859,0.859,0.859,0.859,0.859,0.859,0.859,0.859,0.8568,0.8503,0.8394,0.8307,0.8307,0.8205,0.8214,0.8138,0.8127,0.81,0.803,0.7975,0.8004,0.8004,0.796,0.7872,0.7872,0.7872,0.7872,0.7872,0.7872,0.7872,0.7872,0.7872,0.7872,0.7872,0.7872,0.8116,0.8671,0.8494,0.8549,0.8915,0.9037,0.9214,0.9275,0.9518,0.964,0.9822,0.9822,0.9822,0.9822,0.9822,0.9822,0.9822,0.9822,0.9822,0.9822,0.9822,0.9822,0.9829,0.989,0.9849,0.9917,0.9978,1.0059,1.0148,1.1619,1.1619,1.1619,1.1619,1.1619,1.1572,1.1436,1.1409,1.1355,1.1275,1.1255,1.1179,1.1234,1.1234,1.1111,1.0914,1.0839,1.0758,1.0758,1.0751,1.0744,1.0744,1.0724,1.0717,1.0717,1.0717,1.0717,1.0717,1.0717,1.0717,1.0717,1.0717,1.0717,1.0717,1.0717,1.0717,1.0717,1.0717,1.0717,1.0717,1.0717,1.0717,1.0717,1.0717,1.0717,1.0717,1.0717,1.0259,0.9661,0.9594,0.9123,0.859,0.859,0.859,0.859,0.859,0.859,0.859,0.859,0.859,0.859,0.859,0.8508,0.8432,0.8432,0.8345,0.8263,0.8188,0.8188,0.8183,0.8172,0.8144,0.8136,0.8136,0.8026,0.7888,0.7888,0.7877,0.7872,0.7872,0.7872,0.7872,0.7872,0.7872,0.7872,0.7872,0.7872,0.8055,0.8366,0.8366,0.8488,0.8793,0.8854,0.8976,0.9214,0.9275,0.9457,0.9822,0.9822,0.9822,0.9822,0.9822,0.9822,0.9822,0.9822,0.9822,0.9822,0.9836,0.9842,0.9856,0.995,1.0011,1.0024,1.0229,1.029,1.0317,1.1619,1.1619,1.1619,1.1619,1.1619,1.1606,1.1572,1.1572,1.1518,1.1362,1.1341,1.1294,1.1241,1.1234,1.1151,1.1118,1.1084,1.107,1.107,1.0962,1.0833,1.0833,1.0785,1.0717,1.0717,1.0717,1.0717,1.0717,1.0717,1.0717,1.0717,1.0717,1.0717,1.0717,1.0717,1.0717,1.0717,1.0717,1.0717,1.0717,1.0717,1.0717,1.0717,1.0717,1.0717,1.0717,1.0717,1.0259,0.9594,0.9056,0.8723,0.859,0.859,0.859,0.859,0.859,0.859,0.859,0.859,0.859,0.859,0.859,0.8568,0.8552,0.8552,0.853,0.8486,0.8399,0.8378,0.835,0.8188,0.8214,0.8198,0.8198,0.8095,0.8075,0.8075,0.7993,0.7872,0.7872,0.7872,0.7872,0.7872,0.7872,0.7872,0.7872,0.7872,0.7933,0.7994,0.7994,0.8055,0.8116,0.8366,0.8549,0.861,0.8854,0.9281,0.9822,0.9822,0.9822,0.9822,0.9822,0.9822,0.9822,0.9822,0.9822,0.9829,0.9889,0.9936,0.995,1.0168,1.0229,1.0236,1.027,1.0351,1.0466,1.1619,1.1619,1.1619,1.1619,1.1619,1.1619,1.1619,1.1619,1.1592,1.1511,1.1497,1.147,1.1389,1.1382,1.1348,1.128,1.1275,1.1234,1.1234,1.109,1.105,1.105,1.0975,1.0928,1.0928,1.0928,1.086,1.0717,1.0717,1.0717,1.0717,1.0717,1.0717,1.0717,1.0717,1.0717,1.0717,1.0717,1.0717,1.0717,1.0717,1.0717,1.0717,1.0717,1.0717,1.0717,1.0717,1.0259,0.9594,0.8856,0.859,0.859,0.859,0.859,0.859,0.859,0.859,0.859,0.859,0.859,0.859,0.859,0.859,0.859,0.859,0.859,0.8568,0.8513,0.8497,0.8481,0.8416,0.8361,0.8323,0.8323,0.822,0.8138,0.8138,0.8084,0.8024,0.8026,0.8021,0.7999,0.7877,0.7872,0.7872,0.7872,0.7872,0.7872,0.7872,0.7872,0.7872,0.7872,0.8055,0.8244,0.8372,0.8555,0.8976,0.9579,0.9579,0.964,0.9822,0.9822,0.9822,0.9822,0.9897,0.9869,0.9883,1.0093,1.0161,1.0175,1.0324,1.0378,1.0392,1.0466,1.0534,1.0616,1.1619,1.1619,1.1619,1.1619,1.1619,1.1619,1.1619,1.1619,1.1619,1.1619,1.1619,1.1619,1.1619,1.1619,1.1565,1.1443,1.1314,1.124,1.124,1.1212,1.1199,1.1199,1.1179,1.1234,1.1234,1.1234,1.1043,1.0799,1.0799,1.0799,1.0799,1.0799,1.0785,1.0758,1.0758,1.0744,1.0717,1.0717,1.0717,1.0717,1.0717,1.0717,1.0717,1.0717,1.0717,1.0717,1.0717,1.0259,0.9594,0.8856,0.859,0.859,0.859,0.859,0.859,0.859,0.859,0.859,0.859,0.859,0.859,0.859,0.859,0.859,0.859,0.859,0.859,0.859,0.859,0.859,0.859,0.8508,0.8448,0.8448,0.8345,0.8263,0.8263,0.8183,0.8198,0.8095,0.8147,0.8097,0.7977,0.796,0.7955,0.7872,0.7872,0.7872,0.7872,0.7872,0.7872,0.7872,0.7872,0.8055,0.8305,0.8305,0.861,0.9214,0.9239,0.9483,0.9822,0.9849,0.9863,0.9869,0.9957,1.0024,1.01,1.0256,1.0317,1.0331,1.0473,1.0527,1.0548,1.067,1.0717,1.0717,1.1619,1.1619,1.1619,1.1619,1.1619,1.1619,1.1619,1.1619,1.1619,1.1619,1.1619,1.1619,1.1619,1.1619,1.1613,1.1592,1.1572,1.1558,1.1558,1.1436,1.1362,1.1362,1.1233,1.1234,1.1234,1.1234,1.1214,1.1104,1.1104,1.1104,1.1104,1.1104,1.1036,1.0847,1.0847,1.0779,1.0717,1.0717,1.0717,1.0717,1.0717,1.0717,1.0717,1.0717,1.0717,1.0717,1.0717,1.0259,0.9594,0.8856,0.859,0.859,0.859,0.859,0.859,0.859,0.859,0.859,0.859,0.859,0.859,0.859,0.859,0.859,0.859,0.859,0.859,0.859,0.859,0.859,0.859,0.8573,0.8562,0.8562,0.847,0.8394,0.8394,0.8301,0.8167,0.8214,0.8209,0.816,0.8103,0.8092,0.8048,0.7877,0.7872,0.7872,0.7872,0.7872,0.7872,0.7872,0.7872,0.7933,0.7994,0.7994,0.8299,0.8976,0.91,0.9335,0.9829,0.9896,0.9957,0.9963,1.0181,1.0249,1.0263,1.0405,1.0466,1.048,1.0629,1.069,1.069,1.0711,1.0717,1.0717,1.1619,1.1619,1.1619,1.1619,1.1619,1.1619,1.1619,1.1619,1.1619,1.1619,1.1619,1.1619,1.1619,1.1619,1.1619,1.1619,1.1619,1.1619,1.1619,1.1558,1.1518,1.1518,1.1457,1.1416,1.1416,1.1416,1.1416,1.1416,1.1246,1.1234,1.1234,1.1234,1.1131,1.107,1.107,1.1029,1.0968,1.0968,1.0921,1.0779,1.0779,1.0799,1.0717,1.0717,1.0717,1.0651,1.0259,0.9788,0.9256,0.879,0.859,0.859,0.859,0.859,0.859,0.859,0.859,0.859,0.859,0.859,0.859,0.859,0.859,0.859,0.859,0.859,0.859,0.859,0.859,0.859,0.859,0.859,0.859,0.859,0.8546,0.8513,0.8513,0.8465,0.841,0.8345,0.828,0.8214,0.816,0.8155,0.8133,0.8079,0.8073,0.8073,0.8073,0.8073,0.8198,0.8386,0.8386,0.8386,0.8386,0.8386,0.8637,0.9137,0.9198,0.9468,0.9896,1.0107,1.0181,1.0188,1.0337,1.0399,1.0412,1.0561,1.0622,1.0622,1.0697,1.0717,1.0717,1.0717,1.0717,1.0717]}]]